GFSWCAN_con_3kmhel_000.txt.gz
Helicity
84 68 32 14 17 13 -4 -5 -13 -18 29 79 107 147 98 115 287 227 148 96 85 67 51 15 50 27 24 20 -29 3 27 92 131 85 93 51 35 20 40 34 44 95 57 14 13 3 24 28 35 40 22 33 28 90
77 55 15 12 15 21 -6 7 -9 -16 26 80 111 175 140 168 288 252 63 90 67 59 49 41 44 29 -10 4 -1 24 49 89 105 94 88 79 51 48 32 48 46 40 79 51 19 12 23 40 48 39 15 20 16 93
55 40 23 19 19 18 -10 -5 -3 -13 23 58 100 150 150 121 246 248 126 64 64 51 35 11 30 17 70 51 108 17 25 90 127 182 81 81 51 50 31 15 25 18 54 44 36 50 39 32 34 35 47 59 57 79
59 51 26 23 34 20 -5 1 10 -8 13 46 85 132 172 137 215 297 128 60 60 42 31 16 17 13 14 47 52 31 20 76 125 126 115 95 69 54 56 57 53 37 73 56 60 7 17 13 42 47 102 117 145 144
58 53 32 32 29 11 7 -1 7 -7 7 37 83 122 168 139 166 237 135 50 58 64 30 21 30 10 26 20 -16 16 24 116 183 174 173 138 130 90 83 79 53 48 62 69 68 27 43 64 75 85 122 104 124 185
47 53 37 26 26 10 6 3 0 -4 11 34 75 111 141 153 145 249 125 59 40 46 77 27 14 4 25 3 -47 -17 23 65 94 112 93 78 81 94 59 50 47 55 61 58 81 98 82 97 145 127 156 130 165 178
44 54 47 35 27 24 18 10 -1 -2 26 49 96 117 163 190 80 189 166 188 42 80 66 34 11 20 23 22 0 -18 8 95 114 108 103 47 18 15 -4 18 15 38 69 84 83 125 142 136 124 204 242 239 270 262
48 63 69 56 33 14 5 10 0 4 40 63 116 157 204 209 192 127 90 97 54 107 81 43 27 23 17 27 15 -16 4 78 108 128 80 51 64 59 -4 8 -5 74 110 100 97 85 95 187 240 235 234 264 305 261
55 48 59 64 61 33 8 -9 1 17 40 80 132 146 118 152 227 142 99 64 98 154 101 60 44 31 44 41 40 22 14 108 90 116 104 71 36 10 62 30 10 26 25 42 126 136 158 224 228 235 270 262 280 213
71 59 51 62 76 61 30 -15 9 33 73 90 70 187 174 162 70 139 131 182 159 108 117 66 81 56 35 64 49 41 29 55 69 80 87 31 -34 23 50 38 39 81 108 160 196 165 198 220 212 210 221 201 198 176
83 71 58 51 59 64 43 16 6 41 5 60 158 243 238 223 135 113 71 226 188 148 130 103 104 101 81 71 68 45 38 55 40 47 62 22 -1 31 40 64 53 123 111 101 117 166 154 230 251 262 248 211 190 168
76 76 63 53 40 53 73 27 -14 -17 7 79 140 -14 236 216 142 137 210 203 145 171 121 175 178 114 94 88 78 70 55 48 39 47 41 17 50 68 73 77 146 189 181 164 153 215 231 270 255 256 236 206 183 178
69 67 63 49 30 67 60 31 9 19 33 57 36 57 245 306 195 169 134 142 181 151 230 209 249 156 143 145 116 70 54 45 52 49 49 54 60 51 64 114 203 273 278 250 252 266 298 305 254 253 247 209 201 178
58 59 60 45 59 55 56 52 35 3 13 66 99 181 235 219 207 133 161 139 211 193 142 219 258 170 193 168 94 89 72 66 43 44 57 35 19 67 87 122 216 240 242 250 252 257 309 313 307 284 250 202 187 150
48 51 64 85 68 26 37 52 5 -22 16 102 123 163 216 83 180 115 117 142 170 149 242 242 246 164 232 168 134 121 98 65 24 15 24 18 22 75 115 152 203 234 235 254 244 291 309 296 285 290 248 209 175 134
47 57 139 90 20 21 17 34 -2 -5 4 68 64 104 90 183 185 192 202 131 109 204 304 269 206 193 207 196 159 97 105 47 32 11 6 43 50 70 126 158 182 206 229 270 289 312 305 284 270 257 232 188 144 126
48 141 110 44 37 40 51 34 11 -5 48 58 27 23 35 168 175 153 154 61 116 177 249 259 233 181 208 203 175 117 90 59 40 44 32 6 32 89 132 183 202 228 273 303 338 334 328 296 276 256 228 166 167 161
132 129 64 45 70 116 98 28 14 14 66 87 22 -30 73 22 126 70 63 77 110 144 172 182 139 157 156 121 138 124 112 99 74 50 47 58 102 130 158 209 223 248 295 308 323 325 287 240 239 206 186 167 201 186
81 70 54 62 105 143 118 48 15 54 29 27 40 -5 -45 34 28 98 84 57 99 162 216 201 136 86 88 67 64 80 87 100 92 100 109 111 122 145 191 210 278 293 317 309 288 251 212 187 169 143 136 129 153 123
28 65 66 56 111 132 108 93 10 32 37 17 18 20 19 1 31 63 96 109 123 159 179 150 144 110 70 91 74 73 78 79 138 167 149 165 171 216 262 270 335 378 410 351 320 274 249 231 172 128 107 112 131 111
59 71 56 91 119 120 124 106 66 17 50 26 5 20 67 29 -5 25 76 134 125 147 162 167 156 141 104 101 93 45 29 52 99 119 130 203 222 278 312 334 383 367 357 300 281 224 194 161 131 135 137 143 137 137
72 65 81 83 133 106 101 81 96 28 30 22 23 13 47 65 -29 43 99 119 181 178 122 84 68 75 75 83 86 67 60 114 96 148 182 200 274 263 322 361 390 386 313 251 220 211 206 189 182 182 194 177 162 156
91 96 108 116 150 115 79 92 104 66 31 25 31 13 25 71 82 88 77 130 148 164 121 75 88 132 125 132 181 202 162 161 175 211 236 310 364 345 381 350 305 350 342 297 246 235 214 172 172 198 164 155 149 170
107 135 151 150 168 103 98 90 84 81 60 64 43 26 24 31 53 57 90 115 220 204 179 180 162 168 204 238 233 215 220 224 277 299 317 375 418 459 426 414 386 345 265 249 247 239 205 193 149 143 114 120 155 143
155 117 174 192 144 122 100 75 68 80 73 51 71 40 32 25 32 38 36 27 103 152 249 242 177 147 166 203 246 251 227 213 287 418 366 393 520 543 544 493 426 349 255 258 223 233 213 154 134 131 163 147 140 139
167 179 193 184 143 123 88 72 60 57 70 50 55 56 25 23 28 40 50 79 88 140 224 239 234 167 177 157 184 214 203 206 292 425 433 398 407 462 467 422 372 320 211 203 175 181 156 125 156 164 147 125 130 144
192 172 157 133 125 116 95 75 82 80 66 57 44 52 61 50 38 27 22 22 67 116 190 250 156 144 180 194 222 260 311 357 402 452 467 451 381 330 255 216 211 159 93 128 129 137 132 149 156 154 161 151 116 92
139 146 154 121 117 103 93 75 66 63 50 35 33 50 99 73 49 20 -2 26 85 113 132 179 213 232 252 264 263 286 349 376 378 423 540 600 476 320 240 217 178 96 120 176 175 149 140 139 135 127 122 110 93 85
133 111 128 119 103 85 72 72 54 49 41 30 17 27 28 24 7 13 14 41 109 107 143 199 251 266 284 307 347 353 335 292 288 339 312 308 340 341 258 227 211 203 191 177 151 143 160 148 123 108 104 97 90 92
127 112 138 100 86 45 69 82 66 40 27 21 14 18 -3 -20 -2 20 38 62 88 115 127 137 148 157 167 185 234 268 283 216 159 188 199 182 168 153 166 184 189 182 175 188 183 166 158 149 136 126 114 99 87 87
128 136 153 115 70 69 81 79 61 53 37 15 4 -5 -15 -15 11 39 60 98 124 104 97 115 134 149 163 182 184 189 226 256 197 175 183 154 128 135 139 141 144 150 157 150 125 105 98 109 100 98 96 94 87 86
110 119 135 93 49 58 81 79 67 55 30 14 -2 -8 -2 6 37 67 94 139 131 141 127 138 159 179 180 179 151 113 90 108 134 165 158 140 131 117 116 115 115 117 119 116 104 91 89 88 80 76 72 73 71 72
154 136 118 99 65 43 56 76 65 46 40 18 -2 8 22 25 47 57 77 101 129 148 147 148 152 156 159 152 140 128 117 112 94 93 98 96 89 98 116 112 106 103 104 93 86 79 81 82 82 79 77 68 65 61

GFSWCAN_con_3kmhel_003.txt.gz
Helicity
47 58 77 54 26 24 21 19 -11 -1 -5 19 80 128 177 125 207 236 198 164 122 100 76 46 52 53 70 40 -6 -13 -30 9 72 116 61 50 47 9 42 20 27 25 18 -3 13 17 9 11 -10 -9 11 19 34 78
45 56 56 46 31 25 28 16 -15 10 10 23 69 114 154 104 205 287 185 77 53 99 68 56 28 25 45 35 16 6 -6 38 146 145 66 50 28 27 44 60 34 26 26 1 -0 -0 18 40 18 25 10 27 2 77
43 49 48 38 37 34 14 17 -5 4 5 26 49 106 162 122 161 106 220 168 90 60 41 35 4 37 44 39 81 -2 34 34 71 144 86 72 34 38 17 29 26 11 6 43 9 1 13 28 41 41 5 13 21 71
38 48 45 41 40 46 29 11 -1 -1 -0 13 38 93 155 171 163 96 88 134 146 62 43 47 29 27 25 46 63 38 35 30 66 98 118 78 48 39 20 23 24 24 41 54 51 -8 53 48 31 23 61 65 112 105
43 48 47 45 50 48 39 22 15 9 1 4 31 81 144 172 182 93 76 77 60 80 66 51 19 23 25 42 15 -25 7 14 94 134 137 93 88 69 53 45 36 53 37 68 40 52 32 41 36 67 80 54 73 138
48 54 56 47 54 55 29 21 20 3 5 5 34 74 150 191 196 62 95 48 32 59 36 63 15 10 31 23 -5 -25 -10 25 66 190 166 135 113 112 21 26 30 46 57 48 49 45 67 73 128 122 144 97 102 137
53 78 68 54 43 53 46 29 11 11 -0 23 47 87 173 218 133 171 194 154 274 106 54 45 40 14 19 23 10 -8 -17 31 79 148 116 122 79 84 50 65 44 67 61 73 58 84 118 110 98 134 183 186 205 243
55 96 90 74 55 57 53 41 25 -1 25 52 80 126 194 201 122 153 128 200 156 119 96 50 41 27 -0 13 12 -0 -34 41 72 86 84 83 78 36 24 24 61 66 114 152 145 83 55 143 201 233 219 239 258 224
61 95 101 83 79 62 53 46 41 15 37 81 116 136 97 78 106 97 135 100 112 129 106 53 13 4 21 38 39 19 -17 18 44 80 79 71 48 24 6 22 21 21 33 77 141 121 122 165 205 210 219 209 244 180
60 82 93 80 78 72 53 51 47 8 49 54 44 150 203 145 218 65 86 107 127 177 117 62 74 37 35 33 37 39 12 31 35 45 66 24 20 -18 18 40 22 64 92 126 132 113 152 198 194 166 142 144 166 149
50 73 87 68 62 67 52 67 39 17 -7 9 82 171 215 212 181 99 146 184 122 105 69 50 105 77 69 46 47 42 24 25 35 40 44 24 19 19 46 -18 40 110 93 55 75 113 100 179 151 196 184 178 177 169
43 57 77 70 63 56 69 61 34 41 -4 42 142 120 138 199 212 171 185 177 101 111 91 145 162 122 91 85 76 55 52 35 25 32 35 37 36 65 83 67 144 147 123 105 93 157 175 212 208 202 188 199 204 212
35 41 61 67 67 54 87 36 29 54 -2 20 57 49 147 155 137 223 175 229 113 95 199 222 252 177 129 103 94 65 43 35 39 33 24 21 48 67 84 80 143 183 205 214 211 210 236 265 229 221 228 214 225 223
35 36 50 61 95 76 60 26 8 34 -32 78 84 176 160 245 110 184 251 150 230 141 97 202 221 183 175 140 86 81 79 61 41 37 50 24 30 74 71 98 156 195 221 232 233 246 275 281 298 261 243 220 228 197
27 29 31 94 61 44 54 4 -5 43 7 66 114 212 148 115 146 82 118 204 178 124 156 211 183 156 169 132 112 104 93 74 29 28 22 6 21 50 77 108 155 201 225 250 251 280 299 301 296 288 249 243 226 184
24 28 86 60 22 43 58 68 9 20 -8 91 105 86 155 106 181 101 111 86 77 130 164 209 163 136 118 102 98 85 108 57 46 22 5 -7 9 35 68 107 150 188 216 243 253 287 297 292 311 311 283 239 193 155
30 75 68 23 28 51 111 120 40 -32 -63 90 62 -10 42 123 92 79 150 202 134 98 194 223 166 136 176 178 167 126 94 49 29 25 17 2 -11 19 88 151 176 196 230 263 307 329 348 335 323 301 271 209 191 158
90 83 37 31 55 99 119 105 83 30 -53 -82 19 -41 -45 42 126 38 82 117 174 160 188 210 184 203 185 165 136 106 90 75 62 44 16 11 24 63 111 174 197 213 244 279 296 302 316 305 298 254 242 204 212 183
67 57 50 41 70 110 133 114 94 99 15 -84 55 27 -61 -53 25 80 90 126 112 107 185 220 184 117 161 120 73 71 60 57 67 78 84 76 69 103 175 218 227 241 267 278 290 297 283 238 226 204 187 162 176 149
36 76 68 51 69 104 108 131 106 75 84 -15 -39 53 41 -46 -76 14 86 112 115 111 149 208 179 183 135 134 91 60 45 45 73 89 87 99 99 170 183 196 224 268 378 393 378 333 326 306 235 184 146 145 174 147
84 78 79 82 89 98 100 132 86 74 79 64 -10 -2 53 15 -55 -97 -4 43 96 152 117 183 168 120 93 107 79 77 70 47 34 25 21 104 127 188 220 245 282 309 342 345 346 269 244 211 179 174 169 175 162 149
84 78 91 89 108 117 118 107 112 90 123 79 44 22 16 47 46 -34 4 1 85 134 84 136 193 127 112 100 122 102 37 24 44 42 99 136 209 210 224 281 325 350 326 317 274 259 252 233 202 190 198 187 174 156
104 97 113 128 150 158 131 116 150 94 110 71 61 52 35 34 6 26 18 -27 55 80 90 90 70 111 74 59 64 72 74 81 98 115 146 201 287 260 270 316 309 374 362 336 285 296 278 201 187 221 197 180 164 135
124 124 123 135 152 155 169 156 136 126 121 96 64 43 46 42 44 14 40 54 80 88 90 160 158 86 88 70 52 87 140 155 184 208 209 273 296 291 289 347 360 347 339 341 346 336 270 223 185 193 182 174 136 116
120 95 144 191 185 190 212 190 153 158 127 90 71 58 74 43 41 32 36 55 68 90 93 118 142 136 130 101 97 127 161 163 188 236 242 254 395 422 466 476 455 404 345 380 328 299 258 218 206 201 163 151 126 144
107 142 162 137 168 217 212 212 153 128 115 78 66 65 54 26 53 46 32 8 11 39 72 117 134 153 113 113 112 130 162 184 221 284 262 260 285 399 500 570 571 538 379 315 298 259 228 214 205 197 170 129 127 157
130 121 152 161 211 235 217 164 137 128 108 66 80 70 58 48 49 44 25 -5 -22 -19 42 68 110 120 86 101 146 170 173 186 207 264 320 342 362 355 366 488 469 351 260 266 224 198 220 210 171 176 173 166 127 101
145 170 143 164 220 198 204 170 123 69 59 79 87 68 80 66 20 -24 -59 -43 -20 12 39 51 72 92 103 130 157 166 198 230 285 342 411 456 433 409 381 419 403 285 273 209 211 195 180 179 159 140 137 128 113 99
163 169 204 193 210 183 142 128 86 86 102 104 101 83 63 48 28 -17 -37 -27 4 2 21 48 82 124 172 227 248 208 183 176 228 304 385 429 480 522 411 337 279 214 215 191 150 187 196 172 145 132 128 126 114 109
161 170 206 192 199 160 134 111 87 101 95 89 80 81 66 44 14 1 -23 -15 -1 26 38 71 105 133 166 210 242 245 250 230 176 203 278 322 335 268 258 237 240 236 192 212 216 208 193 187 165 152 146 125 99 85
178 192 191 151 122 127 111 97 91 98 85 75 64 60 20 13 15 -0 -3 13 38 51 77 109 141 181 179 169 145 154 203 178 124 181 284 278 241 229 230 232 221 207 209 215 177 142 124 137 132 128 114 96 75 73
190 169 159 132 100 97 93 74 72 72 56 62 48 41 21 24 6 9 25 66 61 87 75 72 96 124 116 132 145 149 138 176 195 196 202 213 225 213 215 207 192 180 171 156 129 113 125 121 107 92 77 69 60 62
198 160 149 131 115 100 72 73 53 38 48 51 41 40 31 21 4 7 30 69 84 90 91 82 93 115 140 168 159 157 179 189 165 166 162 149 129 137 156 147 135 129 136 135 130 116 114 103 86 72 64 62 66 71

GFSWCAN_con_3kmhel_006.txt.gz
Helicity
51 45 34 37 39 54 41 12 8 10 12 30 68 102 126 166 187 58 119 164 164 161 99 136 97 63 94 68 15 2 2 -20 8 26 82 105 28 37 57 37 11 8 5 -16 -9 -27 1 -6 4 -13 59 72 25 24
50 36 29 29 39 52 54 20 2 9 2 22 35 81 105 119 192 122 102 223 143 72 70 59 49 56 48 27 32 20 2 -35 -9 29 69 76 29 31 43 72 26 22 19 6 13 0 3 -4 3 28 36 47 6 39
43 24 30 25 30 61 65 34 6 0 5 13 32 54 107 106 184 166 119 186 120 118 96 78 43 49 49 49 64 3 15 42 20 45 54 75 35 25 30 34 13 17 13 28 33 25 8 -13 -18 26 35 22 9 47
43 30 39 36 34 52 64 43 14 0 11 20 32 53 98 105 145 150 133 161 123 84 71 64 47 29 47 44 54 70 36 50 26 32 85 60 53 45 21 26 28 9 20 30 67 17 -11 4 18 16 18 37 89 104
40 40 46 54 41 45 57 58 39 6 -2 23 30 68 89 126 112 100 161 121 115 98 65 63 39 33 35 37 42 47 25 -8 31 54 61 28 49 53 39 30 32 41 43 47 23 20 27 59 27 30 26 25 37 94
42 45 62 70 57 49 60 62 47 24 3 21 31 70 122 147 137 86 109 49 70 81 73 90 44 26 34 37 23 25 -17 -16 43 56 91 52 49 83 10 18 16 46 67 53 23 23 81 76 65 56 71 39 52 85
48 45 77 79 73 60 56 56 35 24 24 2 39 82 151 175 94 90 189 145 241 109 59 63 81 18 6 7 8 3 8 -3 31 14 74 88 100 70 24 60 69 11 47 75 54 71 77 35 45 89 152 146 154 183
46 44 72 76 84 76 55 55 34 30 33 23 56 94 139 156 122 114 160 202 125 112 77 53 44 37 7 4 4 9 -16 -42 24 42 73 102 105 100 30 12 29 97 95 128 106 73 65 125 193 182 156 177 217 189
40 39 61 63 84 86 61 52 36 38 55 65 67 91 49 101 133 114 213 266 68 115 99 50 42 29 20 5 5 4 3 -10 6 35 51 58 50 8 3 -13 20 83 59 94 161 137 127 156 156 148 167 180 225 163
35 37 49 52 69 86 69 58 47 20 56 30 10 76 163 160 163 110 152 113 117 110 118 58 75 44 27 -10 -13 9 17 1 13 22 51 31 13 26 -5 -3 3 23 56 130 164 139 121 104 117 129 124 139 166 153
29 35 38 42 53 72 69 71 49 11 67 27 40 110 201 184 63 229 191 144 118 118 73 76 91 64 47 22 0 15 10 -4 12 10 26 27 32 41 50 -27 31 59 91 48 19 78 73 118 169 163 177 194 202 186
24 29 34 35 40 56 86 83 33 101 141 72 101 119 172 137 91 141 203 236 140 102 62 92 153 124 77 73 47 33 24 15 3 10 11 26 20 11 71 53 49 69 77 59 40 78 120 179 181 184 194 197 198 202
16 17 30 42 31 73 77 71 34 30 37 5 68 170 168 122 82 159 229 175 109 81 60 93 117 118 134 94 74 57 43 17 23 16 12 1 24 35 46 63 103 159 168 134 123 144 181 224 207 211 228 207 221 208
16 17 23 35 49 55 66 80 27 40 32 -57 107 228 167 160 113 151 165 159 127 83 30 72 155 117 138 121 70 52 53 46 29 18 6 9 -2 30 36 68 97 125 154 167 181 197 221 258 280 249 245 198 213 186
12 7 14 60 47 27 51 81 49 40 4 -97 86 191 130 113 90 119 135 119 114 133 101 80 118 85 119 119 97 77 61 54 26 22 19 17 6 24 51 78 111 164 194 207 201 226 255 288 303 301 245 221 222 201
18 16 64 48 19 22 53 108 76 41 -12 -95 -44 128 116 66 149 87 65 99 103 105 110 151 128 91 89 108 113 61 110 75 54 40 25 7 -1 -3 19 59 103 154 186 202 208 236 267 274 296 309 277 246 214 183
29 51 40 26 18 32 68 97 84 84 42 -14 -146 -6 80 86 98 101 73 70 91 143 200 252 217 123 142 118 169 167 123 63 56 36 22 9 4 1 33 80 125 160 202 226 251 266 293 297 314 297 297 237 223 192
64 54 29 30 39 67 58 71 51 68 76 52 -65 -207 -57 -11 70 160 107 61 130 104 80 243 217 216 170 122 137 78 83 78 49 34 17 21 14 24 41 99 145 175 207 229 250 280 298 300 302 286 274 245 243 198
53 47 40 55 52 72 63 70 65 56 50 51 28 -79 -199 -52 27 23 61 82 100 125 170 116 200 143 142 133 96 58 57 54 78 92 72 72 58 63 97 154 191 205 219 227 250 268 257 227 253 241 233 201 218 167
67 67 72 60 68 67 56 78 92 60 58 50 63 44 -12 -131 -70 50 23 45 53 118 127 170 274 258 109 147 120 88 79 69 68 74 78 55 27 67 90 138 180 192 239 269 286 314 345 343 297 235 200 174 180 143
79 80 86 86 91 91 100 107 112 93 74 80 51 52 47 35 -18 -61 73 69 -20 93 133 98 115 204 274 229 121 113 121 90 54 45 55 52 4 60 129 178 216 205 237 241 283 284 286 259 215 220 208 193 179 159
72 86 90 111 112 109 122 151 124 107 118 107 87 83 78 41 -9 16 56 73 14 26 72 99 132 133 235 309 258 170 155 117 88 82 76 89 90 109 143 189 229 245 240 260 264 276 293 280 246 214 212 194 179 170
94 97 115 122 120 129 131 118 153 138 125 110 122 123 93 65 17 55 41 59 95 77 79 45 69 93 117 194 312 258 204 102 88 79 47 70 139 168 176 191 240 311 334 302 279 307 283 234 219 242 213 208 208 189
114 111 102 105 129 117 153 171 161 174 165 160 169 135 111 81 60 56 53 106 89 7 7 42 56 71 57 71 96 137 155 99 79 105 84 130 185 224 262 248 256 286 301 348 352 349 293 269 218 219 211 220 194 180
114 84 125 134 162 172 172 178 187 201 173 176 184 139 123 93 68 57 73 64 23 -13 -51 -34 15 39 55 88 99 142 131 122 99 85 125 161 247 299 345 321 287 284 325 422 390 352 311 272 242 222 209 197 190 174
100 127 156 126 158 164 159 190 175 163 190 175 137 113 122 103 93 53 74 45 29 -5 -14 -19 11 63 96 83 98 103 128 153 132 126 144 141 176 241 302 350 342 357 311 287 312 322 307 262 229 220 208 170 148 152
129 133 160 162 182 206 217 228 218 211 206 180 141 124 108 95 43 69 62 17 -29 -26 -15 -18 -18 20 78 132 119 79 78 112 134 133 167 196 197 219 264 355 361 429 377 343 287 267 270 242 247 249 228 163 110 94
111 142 152 159 199 202 227 218 197 173 162 125 130 113 96 85 99 72 28 -18 -34 -22 -13 -8 -14 3 56 95 95 98 124 132 162 214 293 325 303 292 290 305 336 314 343 308 271 260 248 230 240 185 150 133 117 95
153 161 204 191 209 191 157 174 173 166 165 174 132 88 102 131 141 111 50 9 1 -7 -9 -5 -5 -5 23 65 112 131 119 128 134 156 215 242 288 349 349 376 405 413 370 374 281 181 200 225 201 177 161 147 122 108
158 194 234 225 191 139 152 168 164 164 144 124 105 97 105 118 95 96 70 25 10 14 -2 -3 5 27 49 80 119 154 158 122 108 182 245 243 269 292 325 329 384 398 366 342 268 247 217 246 226 206 170 124 92 72
196 237 256 203 140 132 133 141 149 160 122 84 94 97 99 90 75 73 70 23 7 5 3 14 50 83 101 134 151 165 174 210 185 199 232 262 279 292 296 327 350 314 262 264 243 200 192 202 175 140 112 91 63 61
203 196 182 157 130 110 125 130 128 137 73 69 72 88 85 100 68 66 36 7 16 22 28 43 76 109 142 163 138 89 76 84 86 140 174 243 282 274 257 240 219 216 258 246 193 171 173 144 109 87 71 66 67 71
204 193 185 171 154 137 111 131 117 88 59 54 62 76 94 90 61 58 22 -1 10 14 26 50 60 59 71 90 104 97 111 125 108 110 123 158 174 200 237 251 259 242 219 211 189 150 130 107 83 69 73 77 79 80

GFSWCAN_con_3kmhel_009.txt.gz
Helicity
26 28 31 44 59 64 55 50 72 50 7 13 25 47 89 93 98 106 137 53 86 99 107 83 77 87 123 68 18 6 -0 -1 21 13 7 20 27 19 28 26 32 -10 -4 -4 -1 16 20 37 37 40 140 163 63 10
28 26 31 45 66 81 59 41 58 65 18 -6 29 41 73 128 97 98 81 179 209 90 61 75 75 48 49 54 70 28 12 9 -23 -17 -4 17 29 32 44 69 39 53 -3 1 12 -1 14 32 82 105 121 126 27 1
24 23 37 50 74 92 74 53 47 70 48 -14 28 49 64 115 118 96 90 144 141 80 75 42 37 49 65 59 55 24 5 -3 2 9 9 32 51 46 61 54 54 16 29 32 16 7 -0 13 22 19 26 40 1 12
25 21 44 51 76 97 86 79 50 67 54 17 15 36 62 103 109 112 86 132 82 89 71 59 74 58 66 74 64 71 48 51 18 2 -2 31 46 29 33 28 35 23 30 25 22 26 5 5 20 11 5 13 36 57
20 22 50 48 69 91 90 93 64 57 40 16 -1 10 54 84 111 76 78 67 120 107 76 65 62 59 59 48 54 77 85 41 -23 -8 28 39 47 33 16 26 -10 39 50 43 20 -4 30 20 40 34 34 22 41 76
18 25 46 50 56 68 76 90 66 55 26 10 12 -8 34 97 114 48 42 76 146 97 74 70 53 53 47 37 49 68 64 42 -1 21 34 52 63 73 4 -1 -30 22 44 56 32 31 30 38 53 41 45 33 58 77
15 25 47 45 52 50 58 71 57 39 12 5 34 22 25 100 67 22 135 142 281 183 112 77 67 41 39 36 37 52 46 21 2 16 34 28 31 84 80 13 71 34 15 50 58 61 50 23 40 58 93 97 135 165
9 14 48 42 49 54 53 53 49 21 -3 17 41 49 52 67 70 15 -30 163 129 123 93 90 77 75 23 21 26 34 -2 -4 -53 2 27 19 34 72 28 67 30 60 80 76 76 89 66 87 123 124 120 161 201 184
7 12 43 39 51 53 50 49 45 14 7 35 33 40 10 51 61 -3 91 153 88 78 94 44 48 82 22 17 10 1 4 -26 -20 -3 32 22 36 42 20 25 -0 39 47 47 109 115 103 121 137 144 134 148 192 143
1 7 36 36 40 51 45 45 52 24 25 9 44 2 86 92 187 -9 136 89 112 47 61 15 59 43 21 8 3 5 -3 -13 -6 -8 4 17 36 66 -35 -10 -2 -1 68 109 139 130 130 119 108 96 69 84 132 151
-5 4 22 27 34 50 43 72 70 27 87 59 7 51 111 151 39 43 123 114 111 84 15 15 59 65 40 38 11 8 3 -0 -4 -15 -1 35 70 36 44 -25 -59 4 78 73 21 68 32 58 109 141 172 188 205 196
-2 4 13 18 26 47 54 69 69 120 121 70 66 92 155 156 83 77 147 190 103 78 58 34 54 90 64 49 24 18 7 14 -2 3 1 16 2 -2 20 35 1 26 56 37 1 17 55 123 156 185 197 209 200 194
2 8 12 19 16 43 52 65 75 23 19 21 60 142 173 110 44 174 199 146 93 65 71 54 59 59 78 71 68 50 30 17 18 13 -1 -13 -6 5 25 43 71 65 76 68 63 87 128 187 183 190 225 209 215 221
12 11 9 19 30 38 36 57 60 39 26 -27 -38 -96 171 55 63 145 230 211 180 97 72 7 39 35 76 85 61 39 48 50 35 23 -3 -4 -6 20 34 33 51 105 125 118 115 131 166 213 237 212 211 180 207 203
25 19 7 40 47 15 24 48 62 49 22 -25 -47 -136 49 30 17 58 118 176 173 116 108 61 37 23 49 89 79 78 59 48 23 14 22 26 27 26 29 35 47 109 165 170 168 186 210 233 253 280 242 231 234 222
41 33 53 48 27 16 19 58 92 61 41 -10 -39 -82 110 73 46 61 50 100 81 148 122 94 109 97 84 88 75 42 70 33 18 15 52 45 33 14 -2 5 34 86 137 179 184 202 226 232 261 298 283 263 231 204
42 32 28 20 25 30 41 68 73 62 50 58 39 -51 -60 102 133 71 88 58 87 87 141 181 162 136 162 109 112 69 95 67 51 60 54 37 13 10 20 28 60 101 143 178 214 238 281 297 317 318 323 270 251 226
55 41 24 29 44 47 50 60 55 50 41 42 36 14 -89 -78 35 102 59 56 97 106 107 111 191 213 198 124 126 66 37 56 45 49 45 28 18 17 33 45 56 108 148 173 200 235 263 284 297 297 304 258 281 263
31 43 49 63 53 58 54 57 56 42 36 27 27 27 13 -90 -128 17 69 68 59 74 105 113 117 144 205 207 180 135 75 48 54 72 83 90 83 71 86 110 107 139 184 197 196 217 236 231 264 293 277 274 282 216
83 70 69 71 69 54 62 71 72 55 48 43 29 32 39 48 24 -17 41 109 97 90 121 135 153 180 170 191 140 120 92 92 72 97 94 83 67 63 65 92 122 166 242 281 282 272 309 332 291 265 252 237 248 186
75 76 89 75 73 89 87 85 82 74 73 78 66 43 35 40 51 60 64 90 74 98 130 149 122 87 40 47 65 101 139 140 157 144 144 109 77 88 101 100 135 174 213 196 221 214 209 232 260 272 261 257 225 197
72 86 81 95 88 92 104 145 131 112 105 108 93 80 71 71 55 59 79 119 145 148 169 158 101 21 92 97 86 55 179 237 188 156 168 156 157 125 114 144 171 170 189 197 222 234 243 257 249 260 277 263 239 219
88 88 91 99 104 102 102 147 127 98 122 116 115 89 85 87 73 85 113 113 112 95 83 77 69 51 80 66 36 43 18 157 286 195 156 149 129 126 128 138 171 217 222 254 277 310 327 276 255 301 283 269 257 232
110 93 71 76 101 93 119 129 130 145 151 151 132 100 115 123 129 164 151 128 99 87 59 40 34 41 35 115 84 1 23 65 142 249 225 213 165 125 142 182 185 215 230 288 334 375 353 327 285 300 292 271 224 209
91 63 90 79 110 141 149 148 153 159 139 162 162 133 164 156 171 174 167 113 118 108 94 54 40 14 48 30 65 116 88 38 60 189 317 240 244 237 225 228 242 237 264 357 399 425 411 365 338 299 259 227 203 183
76 80 89 78 105 109 113 144 112 116 174 177 149 152 187 196 194 142 117 85 103 73 37 21 43 81 46 6 46 83 138 104 112 92 103 154 165 190 222 234 267 260 271 324 409 443 383 376 348 295 256 184 164 197
97 95 124 166 179 178 186 188 185 180 198 170 178 199 209 205 148 92 88 115 114 58 27 -4 -4 37 56 40 25 66 99 134 79 91 131 174 175 153 191 233 237 291 345 374 353 322 344 352 338 315 284 228 180 149
106 149 118 127 179 194 208 198 170 154 165 182 242 211 218 200 154 103 98 108 102 86 35 17 25 25 28 26 19 40 72 85 146 148 155 225 268 258 243 268 284 313 320 381 402 342 319 325 302 260 229 206 161 115
144 146 168 171 178 160 149 168 161 169 204 236 233 226 215 172 140 124 117 120 103 76 36 5 12 17 20 16 13 26 45 64 117 128 114 157 198 199 198 258 323 349 354 407 294 265 283 282 253 222 218 181 153 146
148 193 209 166 171 160 167 162 147 144 157 194 216 199 141 120 111 130 141 128 90 57 48 26 12 12 18 16 33 31 53 67 90 125 154 160 160 191 242 310 398 430 450 461 493 459 348 340 266 303 240 196 168 134
194 196 186 187 167 159 156 149 132 134 155 161 177 166 126 98 104 113 117 94 85 56 42 24 22 25 14 30 37 39 51 94 74 132 155 203 214 210 253 307 360 376 400 412 379 358 311 252 227 194 175 156 110 94
146 132 161 161 153 136 152 151 147 147 126 135 127 146 108 109 104 115 86 80 55 45 27 16 13 14 10 21 43 54 66 118 127 164 211 275 231 227 283 311 318 330 343 354 279 187 193 200 183 164 147 125 93 69
143 166 194 185 153 143 138 162 151 117 110 121 127 120 101 91 79 88 67 68 38 21 -1 -10 -18 -19 5 42 78 123 167 175 121 142 167 112 131 166 208 246 276 282 258 198 188 203 207 210 173 138 110 78 56 46

GFSWCAN_con_3kmhel_012.txt.gz
Helicity
20 25 26 23 48 55 57 57 64 78 72 78 10 47 93 121 105 49 91 37 65 75 53 52 9 53 64 53 41 6 -2 4 12 6 27 13 17 1 17 23 -8 -18 -9 -3 14 15 3 58 45 26 69 110 91 53
17 28 19 22 48 62 64 66 64 83 80 82 41 -27 69 103 116 57 30 47 49 52 105 72 65 62 58 8 13 22 34 18 12 -22 -25 -11 12 1 29 45 8 13 -21 11 3 6 25 7 72 81 59 66 2 -18
23 23 13 26 44 56 72 70 65 84 88 76 53 1 31 91 132 103 13 34 59 96 52 58 69 45 54 69 59 29 34 20 13 41 -1 -4 15 29 53 62 54 9 1 26 21 11 -5 5 1 27 32 15 -12 -20
23 17 16 31 37 53 67 71 65 77 89 64 32 -4 -9 73 103 141 23 50 74 93 57 41 47 44 52 61 60 63 40 63 43 38 -21 6 21 24 39 46 39 40 26 24 30 5 8 3 7 4 3 -3 15 16
19 14 16 31 36 47 57 60 62 72 74 43 3 -12 5 30 110 124 123 34 111 87 88 71 56 62 68 50 40 50 40 46 19 10 -20 14 12 26 32 19 -16 31 19 51 37 13 -3 24 23 25 27 22 10 50
16 10 10 19 34 34 50 54 55 62 47 5 -20 9 27 25 86 134 129 48 139 107 76 85 60 56 51 49 36 35 48 45 24 -10 -9 5 43 44 13 -12 -23 33 42 30 30 28 24 37 37 27 42 23 14 56
12 16 0 8 29 27 44 51 52 56 17 -5 3 30 20 29 51 120 177 95 151 107 88 101 74 53 49 47 33 28 42 34 25 -2 9 48 37 39 62 8 36 23 38 29 37 57 24 21 30 41 60 62 59 91
0 8 -1 11 27 29 41 50 52 50 18 3 9 -4 32 23 51 113 75 80 83 138 121 66 48 54 29 30 22 22 20 16 -7 7 15 9 17 40 -44 33 30 44 70 43 72 77 64 72 76 83 80 93 118 150
13 -8 2 13 28 28 27 46 57 68 29 12 -18 -14 -1 48 148 125 116 117 152 158 140 74 46 63 40 32 22 25 27 1 7 -2 10 13 14 23 23 13 8 24 36 36 101 95 78 62 83 89 96 92 127 122
14 1 6 4 25 25 33 50 67 50 34 -39 -2 -8 10 104 179 159 59 142 127 99 73 56 54 95 50 46 33 22 9 9 -2 -2 -6 11 91 71 -19 -3 -7 -1 19 94 94 71 106 97 88 81 72 73 91 113
30 5 2 -4 18 19 26 56 66 36 45 23 8 -12 139 156 156 94 159 151 123 78 34 49 51 55 16 23 6 15 3 -4 3 -6 -10 2 24 4 37 9 -66 -39 3 32 7 21 27 40 86 77 99 108 170 139
41 -1 3 1 6 10 18 49 58 93 51 24 5 108 160 232 36 133 125 138 114 80 40 38 61 70 69 65 56 37 11 15 -6 2 0 -15 -21 1 16 37 19 -2 19 54 18 8 57 79 110 119 141 148 150 168
46 -2 8 1 -5 12 16 26 47 20 12 20 19 43 177 114 65 85 166 147 107 112 74 51 45 46 41 70 87 61 25 17 28 12 6 -21 -4 8 20 20 40 61 62 56 34 34 51 83 130 173 206 169 180 181
39 1 21 2 -1 33 -9 7 39 43 12 -12 -67 -116 -73 -46 42 56 100 145 133 82 68 62 80 51 59 68 57 44 47 47 32 15 17 -12 -10 19 14 16 26 50 51 66 63 77 111 154 188 182 191 189 207 198
37 18 9 15 44 20 1 11 32 62 13 -32 -63 -135 -104 27 -9 45 66 90 98 99 104 54 52 40 52 77 70 68 28 13 -12 -5 2 21 34 24 16 17 19 44 72 92 94 104 125 165 200 225 208 199 190 219
40 36 35 35 21 16 1 29 41 53 15 -8 -43 -104 -94 -64 16 24 18 42 58 135 120 127 125 78 71 64 60 17 13 26 24 4 5 49 40 19 5 -2 5 45 82 117 133 135 150 173 224 271 257 246 255 249
69 47 14 6 31 19 24 34 41 43 1 9 20 0 -18 -66 -123 98 100 59 69 86 128 177 132 133 133 76 95 76 48 27 33 50 60 63 55 37 12 2 18 41 72 109 137 152 187 224 286 330 346 278 292 283
87 39 16 24 34 28 36 27 46 61 20 9 14 18 25 14 -31 -47 69 70 73 110 124 131 161 151 151 119 133 144 89 89 54 16 45 73 56 25 -1 12 33 61 76 116 159 194 214 234 274 298 321 315 349 303
91 27 24 37 30 41 28 30 41 55 31 27 11 1 11 16 23 32 22 64 66 78 120 139 161 157 166 174 158 120 86 57 89 94 66 42 52 70 63 65 82 109 126 132 176 204 217 232 247 295 319 306 304 240
90 72 51 42 50 48 43 54 51 73 50 39 33 18 21 29 21 30 41 56 84 113 140 186 219 214 228 193 185 169 84 30 -9 8 93 72 58 62 70 75 77 100 162 191 221 260 311 302 276 269 260 235 271 245
133 75 67 67 69 72 60 54 66 64 68 64 67 36 37 33 22 33 49 75 73 113 132 182 173 138 112 88 63 -13 29 43 43 7 48 99 129 100 75 58 70 98 132 150 187 227 247 274 277 286 282 283 268 258
113 78 81 81 70 72 76 108 98 101 96 99 81 61 61 59 37 45 48 83 86 87 119 124 126 116 112 100 102 118 94 21 -48 23 43 55 143 188 152 107 100 120 147 162 174 218 239 276 298 304 288 301 291 290
125 112 93 80 80 78 63 104 102 98 100 85 91 91 85 57 58 66 77 86 85 89 100 104 106 82 80 86 80 97 108 125 100 64 75 70 124 200 164 127 123 130 153 174 210 238 275 269 262 318 332 335 319 278
149 115 79 73 89 93 99 102 94 88 117 117 98 85 76 80 97 113 108 124 131 134 117 108 102 97 83 68 58 65 77 97 95 93 69 72 92 166 175 148 120 118 142 214 246 283 313 318 307 354 333 341 296 258
97 72 90 97 115 114 94 96 112 119 95 112 100 88 117 128 120 113 117 110 128 116 100 74 44 20 45 62 74 75 65 59 55 82 56 42 39 14 139 159 127 139 194 259 258 325 358 352 322 357 345 332 309 248
85 79 94 78 103 85 78 80 69 90 129 117 84 100 136 142 129 93 128 101 89 52 105 79 41 15 27 24 38 40 51 52 50 15 53 52 53 50 65 209 186 156 143 189 307 346 420 410 375 364 343 319 281 262
101 82 96 95 105 108 109 129 140 134 120 97 118 148 145 134 86 82 97 89 89 88 100 107 105 99 102 79 53 49 39 42 32 18 59 69 90 91 79 138 228 195 192 200 280 379 456 421 398 351 372 349 265 232
113 123 100 100 134 154 141 128 116 101 118 148 176 135 135 142 146 133 133 123 99 111 111 106 98 111 116 95 66 49 45 37 36 21 30 44 67 99 95 115 122 130 234 260 321 376 376 398 340 331 334 327 312 250
109 129 157 134 141 102 87 119 110 134 175 195 181 171 162 168 154 132 98 105 128 140 121 93 107 124 92 78 68 47 47 47 40 12 18 38 67 78 117 117 119 175 249 259 236 330 371 361 360 354 333 321 259 206
103 142 135 119 121 100 113 132 111 143 153 167 168 155 140 144 114 117 127 134 155 147 137 138 112 98 83 59 33 30 40 57 30 13 16 44 77 99 118 157 205 233 272 305 384 412 410 485 433 443 410 293 224 179
143 175 146 138 110 115 133 149 151 146 143 141 149 148 145 110 86 94 118 128 136 124 121 99 80 75 71 50 36 24 40 42 34 29 28 59 88 124 190 209 236 297 328 377 479 488 481 465 429 349 234 191 125 116
150 136 139 116 95 99 141 154 147 138 123 130 126 133 126 145 117 80 100 103 100 102 76 73 73 63 61 31 18 18 31 41 66 58 56 103 123 152 221 234 272 327 334 315 342 362 369 366 285 188 170 137 117 111
173 164 137 101 95 101 122 142 132 105 106 108 98 111 144 151 104 79 73 76 81 58 51 49 57 55 -7 -3 -3 21 39 46 44 43 46 81 142 220 296 292 306 277 249 324 327 314 294 232 194 175 159 144 122 94

GFSWCAN_con_3kmhel_015.txt.gz
Helicity
4 2 8 12 -6 30 44 43 53 66 69 86 74 35 -4 -75 112 118 58 -4 27 81 93 86 58 42 36 24 31 30 10 12 3 21 33 28 28 23 33 19 -2 -17 2 4 -2 7 8 45 16 12 18 10 16 60
7 9 8 5 -2 28 38 46 48 65 80 106 86 48 24 -10 -66 107 81 62 25 56 88 77 94 74 96 63 50 6 38 19 17 3 4 7 28 32 23 21 27 12 3 39 -2 18 15 6 31 28 29 27 5 -28
12 12 13 -1 -1 33 39 47 41 59 76 98 105 46 10 -3 -32 34 124 79 23 94 93 54 29 29 29 64 71 22 23 37 14 34 21 4 -5 15 23 12 44 27 17 27 35 10 12 31 8 15 5 3 -5 6
14 8 6 0 2 40 33 50 43 52 69 87 89 20 -24 -19 -6 69 116 68 41 83 124 114 78 81 81 73 75 74 37 38 59 38 25 13 18 13 24 38 53 66 38 34 21 48 9 30 19 8 5 0 7 49
14 4 5 -2 0 28 33 37 51 47 64 83 75 -13 -29 -1 5 44 92 71 54 79 112 120 92 86 102 59 39 44 25 36 42 18 34 35 33 2 -5 11 -6 16 28 41 45 21 9 28 23 14 12 23 30 52
28 18 7 2 -4 13 38 28 50 42 67 83 54 3 -2 18 4 63 95 -28 83 76 79 106 63 67 63 66 50 37 45 60 61 34 55 28 44 17 27 20 9 13 20 -8 9 48 34 21 29 32 32 33 41 62
17 24 17 3 -6 10 39 34 30 42 69 79 44 8 -8 -21 -6 47 129 85 75 89 93 104 69 73 79 83 60 43 33 31 42 39 25 54 21 51 72 78 51 80 86 60 47 53 21 25 21 31 40 53 77 89
3 11 14 -1 -6 8 31 29 30 38 66 42 -8 -41 -32 -14 7 84 44 108 41 80 94 90 71 55 49 61 41 23 15 19 23 25 41 29 33 43 25 140 53 51 37 38 29 45 89 74 62 65 55 66 103 128
8 6 12 5 -4 11 16 15 24 43 48 9 -66 -46 9 -9 80 76 39 128 110 82 178 81 81 73 50 50 41 14 29 10 25 30 30 10 63 39 19 54 38 50 49 77 110 89 96 72 67 63 72 79 115 140
4 -5 9 14 -4 13 9 7 27 37 29 3 30 28 2 58 107 69 64 132 119 111 87 83 42 54 39 48 38 32 17 16 11 9 4 6 74 147 117 13 -10 21 31 61 71 76 107 114 77 66 61 86 105 139
1 1 22 24 3 10 -2 5 18 27 34 36 2 -21 60 107 134 91 109 117 110 78 55 57 66 79 47 59 38 27 18 5 2 -3 -19 0 0 11 28 33 19 -9 -26 27 30 43 43 51 58 68 82 113 133 150
11 33 17 21 11 8 -1 13 10 51 32 10 6 92 119 107 106 83 120 102 102 86 60 72 78 77 68 48 39 25 5 4 -11 1 -10 -8 -39 -23 -5 17 58 44 43 18 49 43 38 25 49 103 136 133 132 154
21 40 16 12 14 8 6 -2 3 22 -15 -17 -32 -27 26 70 72 84 91 104 99 130 87 76 88 87 70 77 80 52 11 4 14 -2 -10 -36 -15 -24 -14 0 19 15 25 46 51 53 62 62 88 131 147 149 186 183
22 25 13 14 15 23 6 3 7 20 1 -42 -76 -104 -53 -43 33 70 67 107 97 104 141 81 81 73 81 59 61 31 31 21 5 9 3 10 17 30 26 20 24 61 60 68 47 41 82 126 105 114 169 209 219 212
24 31 16 19 15 27 9 -2 7 27 15 -30 -92 -133 -95 -37 32 60 65 91 114 99 96 96 92 94 71 70 63 61 17 -7 -6 31 29 29 73 59 52 64 51 40 48 46 58 65 86 124 160 181 188 211 213 227
30 48 34 17 39 27 9 -3 7 22 25 -1 -53 -136 -82 -65 -27 44 73 70 84 117 79 98 133 118 90 83 56 14 17 14 42 44 28 39 74 73 65 44 32 24 35 48 72 94 93 121 151 193 217 217 238 264
48 74 28 9 42 19 9 8 13 14 18 10 -1 -3 14 -5 -26 -18 64 46 35 74 120 130 125 128 127 93 113 105 44 43 35 39 33 37 53 61 57 49 31 10 5 22 63 98 140 186 217 257 294 265 279 287
102 74 46 28 36 18 18 35 30 26 23 15 8 23 54 56 33 58 108 101 113 116 115 142 140 156 161 114 125 132 120 94 64 40 70 39 12 14 14 18 19 29 24 25 62 122 168 196 237 280 316 315 352 349
85 74 77 41 34 38 38 36 53 50 34 48 35 26 30 45 54 55 65 61 67 89 133 161 156 125 173 219 190 160 125 80 64 73 97 61 21 4 15 33 37 63 77 66 61 86 131 166 212 272 297 318 356 333
28 92 94 46 45 70 63 51 49 56 50 52 58 49 44 52 59 59 51 48 50 69 121 186 216 201 164 143 137 119 101 57 30 -4 -6 36 48 29 10 31 50 71 82 93 103 126 191 211 216 253 284 310 350 319
167 128 138 128 105 102 88 54 57 49 51 47 58 72 74 65 58 61 62 82 67 75 73 95 115 95 66 53 49 60 81 48 24 32 44 -51 14 33 46 11 15 72 85 89 89 86 109 158 214 254 284 310 332 293
130 127 127 148 117 102 80 84 75 72 70 80 74 87 83 83 72 71 67 86 78 76 99 99 111 110 95 79 77 62 60 67 59 47 56 40 12 57 92 66 39 59 96 94 96 110 153 205 245 294 331 357 328 326
153 140 131 126 112 88 74 92 84 79 80 64 80 85 88 85 83 70 56 58 74 96 106 116 119 110 95 94 87 75 46 60 79 82 83 73 47 11 52 43 50 76 99 116 136 173 195 211 244 308 318 335 331 353
168 132 108 92 102 98 70 87 93 90 92 91 87 104 98 97 79 78 89 118 115 119 111 120 123 107 76 46 51 58 48 46 62 67 61 80 90 83 26 9 37 62 107 157 187 195 215 242 262 318 315 298 335 342
104 73 86 94 118 103 80 87 108 107 92 94 104 101 100 94 97 100 121 117 102 94 100 107 99 95 84 66 54 38 33 34 43 50 62 51 56 67 86 79 45 43 69 143 182 192 206 255 302 350 346 313 331 327
114 87 87 80 100 89 84 84 75 85 96 94 88 116 109 113 104 78 99 84 85 71 62 100 125 115 100 79 79 72 61 75 83 67 55 37 51 65 72 76 80 74 34 53 130 182 204 251 309 347 328 276 288 364
125 104 103 123 117 113 108 117 104 81 69 71 98 117 109 99 59 56 85 75 84 109 134 137 130 116 109 99 104 91 82 76 79 89 60 55 54 55 60 57 21 47 76 72 68 145 223 260 329 379 361 310 324 321
129 108 95 98 124 131 113 97 76 55 83 112 152 114 87 83 86 106 110 124 160 163 141 131 123 131 135 130 113 92 96 97 82 74 54 37 50 59 38 39 12 -10 61 119 95 133 207 295 366 406 407 347 357 334
102 102 134 131 144 111 84 86 89 98 137 138 123 128 133 136 128 122 119 143 163 154 130 111 121 146 133 116 114 111 103 88 66 42 54 50 35 30 28 20 25 40 82 104 52 108 203 261 328 374 398 384 398 354
83 116 133 121 123 87 85 91 88 114 130 166 172 134 103 106 102 123 140 170 186 149 113 122 135 132 107 100 94 94 99 81 80 78 56 47 28 35 29 14 32 93 115 140 151 132 151 297 347 441 469 503 475 414
157 202 148 114 83 98 124 128 118 108 126 132 130 116 117 94 73 98 135 140 120 107 98 101 110 108 103 96 101 76 61 62 31 29 28 36 37 27 34 37 90 129 152 166 204 321 362 352 383 478 481 415 307 252
155 137 117 87 75 96 104 97 104 114 112 103 96 125 110 111 112 113 113 91 78 63 75 81 72 71 85 101 106 94 37 40 30 27 31 34 41 33 56 102 143 185 247 300 312 308 302 306 349 337 357 285 204 144
154 160 149 99 86 85 91 102 93 81 81 85 96 108 120 135 100 104 84 59 53 60 62 48 52 60 58 58 65 61 28 40 28 43 30 10 13 41 110 150 198 237 275 264 236 285 302 285 310 269 222 180 150 140

GFSWCAN_con_3kmhel_018.txt.gz
Helicity
21 25 33 20 8 4 7 22 21 27 34 33 40 50 51 67 63 86 80 71 95 87 85 110 129 110 59 59 66 62 46 35 27 32 50 55 44 41 30 14 10 14 1 -1 14 14 1 17 14 31 49 46 12 -12
56 54 29 27 17 6 -1 31 26 20 40 50 54 41 49 71 91 92 72 72 38 53 113 121 130 138 134 87 53 50 51 25 24 35 32 48 46 47 59 29 51 25 22 20 28 -2 -7 -9 44 40 58 60 9 0
85 108 55 18 17 -7 -2 30 15 25 37 51 65 54 46 58 85 85 71 82 58 56 69 67 63 61 76 100 137 63 47 48 42 47 29 19 20 23 23 22 30 20 17 17 28 0 -9 1 44 50 35 26 9 21
98 118 94 40 5 -11 -4 25 24 13 31 49 67 60 55 31 46 52 69 40 89 94 101 85 84 104 76 60 86 75 46 72 42 54 26 8 17 3 22 29 -4 15 38 27 19 42 44 52 16 11 19 20 48 49
65 82 74 44 11 -2 -7 14 31 23 29 46 69 70 53 39 43 54 66 45 64 95 142 115 126 78 94 61 59 76 56 46 39 41 36 10 18 15 50 20 -15 -3 -19 36 53 0 26 38 18 20 35 36 50 64
48 48 52 33 22 0 -2 0 34 34 29 49 60 63 62 43 41 70 72 51 58 96 52 144 81 95 112 91 58 53 65 77 53 34 35 51 94 34 22 73 54 76 90 33 22 -23 23 37 43 37 45 54 59 66
33 6 2 17 13 8 -6 -2 24 21 33 50 38 8 -4 11 55 92 34 43 98 63 59 89 78 84 84 121 115 83 71 55 48 28 36 66 52 64 70 154 198 73 124 114 48 31 13 39 32 54 66 77 80 93
59 37 2 -17 20 19 1 2 9 14 34 41 -15 -34 -18 -3 22 -5 -9 -40 37 47 81 106 112 68 70 79 81 58 52 47 28 31 41 29 41 45 67 37 44 121 108 36 34 84 82 72 105 96 85 62 95 100
76 46 6 -2 21 12 -1 4 -5 7 30 11 -12 -15 45 5 -17 61 25 22 46 62 171 87 78 68 56 71 73 55 39 22 14 6 15 19 26 14 21 42 44 52 39 48 84 115 79 78 112 101 99 74 95 95
84 47 15 23 27 20 -5 6 -13 1 4 6 54 12 -25 -24 64 78 69 77 42 91 109 83 68 90 60 59 44 42 37 41 21 12 13 -10 -63 -39 35 38 0 -6 1 32 51 58 82 97 109 85 80 98 108 120
81 27 19 35 35 26 8 8 0 -6 16 18 -27 -36 -41 41 60 92 95 91 61 88 65 70 54 37 46 57 57 40 42 36 13 3 -14 -18 -45 -18 -35 6 -7 25 20 1 -13 -7 60 87 123 106 89 116 134 138
65 18 17 35 27 32 13 18 2 15 15 -31 -34 1 43 68 70 61 72 74 68 65 71 86 69 62 50 56 54 38 28 23 -2 -2 -10 -24 0 -38 -38 -35 -4 9 38 66 37 15 11 51 61 83 108 129 141 180
35 15 19 41 27 46 17 18 6 -13 -16 -68 -96 -73 -31 24 65 66 50 57 49 86 82 98 94 91 75 63 55 38 17 -2 19 17 12 15 -4 10 22 32 41 26 33 121 29 46 68 141 91 101 160 154 195 158
32 6 29 34 30 50 14 20 13 -2 0 -42 -67 -52 -53 -54 -17 68 59 69 67 70 98 71 77 88 83 70 54 33 29 25 11 27 19 29 40 74 46 41 56 54 55 44 53 50 68 145 108 119 149 181 167 184
19 20 31 28 21 33 15 21 10 5 8 8 -1 -29 -58 -61 19 35 39 67 85 95 94 103 82 67 74 61 47 45 26 -4 -9 3 23 8 59 64 71 62 58 43 11 65 41 22 54 97 150 147 140 175 201 235
46 33 35 4 8 52 26 9 11 23 26 26 22 29 -20 -28 -22 30 45 62 63 115 85 90 116 87 72 73 70 44 28 1 21 29 27 48 65 46 38 39 44 25 9 0 11 34 51 81 117 158 193 206 229 251
55 100 65 27 52 59 12 5 9 18 33 41 31 43 76 89 63 54 40 50 41 88 126 134 121 121 128 113 114 101 63 74 53 39 41 51 59 64 26 -1 0 14 12 4 2 43 74 105 133 176 203 210 265 272
145 107 57 27 66 65 52 36 32 31 27 37 49 36 43 87 101 117 112 92 67 64 88 133 113 144 149 131 144 134 114 93 56 58 53 51 30 22 15 20 -2 -23 -12 14 32 53 92 117 151 190 251 283 317 315
173 145 79 65 78 108 112 76 74 80 17 46 51 48 61 48 64 76 92 102 108 106 132 147 139 133 161 163 128 112 81 34 36 65 72 39 -2 0 -2 2 3 -1 8 23 27 41 64 90 128 185 228 257 294 302
135 90 55 84 93 133 125 118 90 93 60 41 50 58 59 63 66 61 53 60 64 75 102 133 155 186 159 116 91 73 52 22 -1 -13 -3 -3 -2 -12 -25 -33 -7 13 18 32 48 77 110 145 149 171 191 223 279 281
242 177 201 174 142 168 147 129 113 99 76 49 60 66 73 74 73 80 73 77 77 83 81 76 111 122 121 96 74 39 11 -15 -32 -56 -64 -48 -28 -27 -2 -17 -42 -37 -25 11 55 64 76 99 122 165 194 211 242 284
230 217 165 195 158 130 120 129 115 98 75 61 53 70 78 77 81 91 95 94 87 84 114 128 134 124 100 89 79 70 53 49 30 26 29 21 5 22 31 39 43 53 24 -3 39 78 90 119 149 208 264 270 297 322
238 224 211 168 106 77 75 107 91 80 75 57 61 83 73 89 95 99 75 50 60 59 105 112 113 109 95 88 78 55 19 9 37 43 56 62 61 56 57 60 65 86 123 96 52 75 146 102 153 272 300 313 342 379
246 212 134 68 86 107 95 107 110 102 94 84 74 83 69 82 95 100 80 83 88 119 130 122 132 119 108 103 93 78 65 71 59 69 50 37 54 69 67 81 80 91 110 120 92 102 100 150 157 216 290 322 350 369
189 118 102 91 119 117 109 101 99 81 78 86 97 93 77 90 99 89 89 101 80 80 85 94 85 94 107 115 117 110 88 93 72 70 73 64 53 50 49 49 70 80 74 101 100 89 104 125 193 226 271 307 331 346
143 107 80 81 115 105 89 76 62 81 108 98 72 93 99 101 100 66 82 53 50 51 59 68 85 121 123 157 151 143 96 111 129 110 104 87 70 56 52 56 68 89 74 87 124 102 87 108 178 208 259 250 229 309
137 111 122 129 112 105 102 107 106 88 82 83 82 99 113 95 47 58 48 36 69 54 89 130 168 175 176 178 160 143 136 145 159 162 122 108 101 98 107 99 83 113 72 85 86 117 130 136 142 196 258 296 282 253
152 137 107 106 127 124 90 74 74 58 70 87 133 100 78 59 51 55 22 84 113 136 162 181 192 185 161 147 142 139 139 131 123 125 120 111 119 121 103 98 94 48 48 88 91 94 133 158 168 204 255 338 356 327
152 125 156 135 131 97 71 61 73 94 115 112 105 87 98 96 87 71 73 101 146 177 178 151 141 141 137 122 142 150 144 153 148 112 92 106 109 119 111 101 84 80 56 83 34 73 121 147 177 237 267 302 355 342
115 135 128 101 96 70 85 103 87 108 124 139 139 117 97 89 74 98 121 151 188 178 153 152 142 137 109 112 101 112 147 166 202 189 138 116 115 83 67 62 70 59 85 97 85 76 -3 83 156 316 335 363 376 406
172 174 126 109 84 103 122 119 106 89 103 101 110 97 87 63 41 59 115 142 166 172 164 127 93 91 104 94 105 88 82 109 136 131 113 89 70 59 59 51 59 79 108 115 138 68 108 270 290 293 333 351 333 374
162 128 113 113 102 96 96 95 89 98 91 94 92 113 88 83 63 72 91 115 127 121 81 79 80 69 73 96 101 115 70 127 151 142 86 63 48 54 55 55 64 89 125 144 163 219 279 260 241 263 359 328 286 294
158 172 173 116 81 67 77 95 82 53 58 73 77 74 86 92 68 95 84 88 105 94 73 57 54 47 55 63 75 71 56 103 88 45 20 15 22 35 62 82 118 161 176 182 211 250 231 194 211 243 289 255 212 190

GFSWCAN_con_3kmhel_021.txt.gz
Helicity
33 113 120 77 29 22 32 27 30 35 15 7 27 27 16 25 34 75 79 57 81 29 -18 88 124 140 169 121 109 80 78 50 55 50 51 66 58 62 55 36 28 28 25 22 21 9 6 -14 34 22 41 43 53 61
101 138 67 86 64 50 23 9 25 20 21 10 23 41 36 49 58 72 67 75 63 87 60 110 95 110 88 99 99 64 57 53 27 53 49 52 58 59 57 42 48 28 29 10 13 11 -2 15 3 59 57 41 60 63
126 87 72 91 89 99 53 12 24 31 19 15 33 44 52 75 75 81 100 81 75 73 18 40 77 85 56 55 78 56 71 35 46 34 35 38 43 38 35 22 37 41 45 22 25 36 35 -11 31 27 22 17 32 44
92 58 47 51 68 74 43 9 8 21 26 23 38 49 45 64 69 53 135 88 84 71 104 103 115 153 120 91 76 93 50 80 60 44 44 28 30 24 27 17 2 22 59 42 10 26 13 28 8 11 18 33 46 58
61 38 32 27 36 47 45 19 -2 20 28 28 45 45 40 62 68 72 84 68 89 72 73 25 214 103 108 87 75 84 80 67 50 42 40 23 26 30 18 13 45 67 23 34 19 55 31 -2 3 24 38 35 52 89
40 41 38 27 8 22 26 16 -3 19 29 39 35 37 28 18 7 101 44 38 45 110 -32 85 125 120 120 86 81 77 81 84 57 23 25 32 44 26 13 51 112 121 116 128 67 28 -34 -46 -10 30 40 38 53 77
54 24 24 -6 5 20 39 31 3 20 25 33 30 11 -16 -12 46 77 27 28 69 71 19 100 110 103 105 124 122 101 89 55 38 25 27 37 23 23 53 82 96 68 91 95 44 46 4 -4 -2 32 57 74 91 86
37 19 12 -20 13 31 8 6 -6 19 17 22 7 -21 -8 14 30 6 2 -39 -57 -3 3 129 143 140 112 113 108 78 60 63 41 32 28 20 14 2 -10 -18 46 78 146 81 76 -1 26 71 87 55 99 127 141 95
44 48 28 27 5 15 20 9 0 11 10 -7 -10 0 9 -12 4 97 24 3 -11 25 94 132 140 154 97 136 118 108 69 40 32 20 15 21 4 -23 -17 39 60 9 9 37 23 34 53 68 53 60 100 116 134 106
41 26 33 23 3 15 26 16 8 10 1 -11 -17 -46 -45 -19 49 42 72 33 57 111 89 86 94 68 78 79 63 65 63 49 30 30 17 3 -6 -20 -44 -33 67 50 28 30 43 63 86 76 87 66 88 104 114 129
33 28 47 28 12 19 17 3 11 17 22 -26 -80 -57 -39 27 85 64 47 60 81 90 60 85 71 61 89 52 51 50 54 66 54 16 13 3 4 2 -21 -46 -41 12 28 50 16 12 -6 31 86 95 82 111 133 136
39 29 41 6 22 23 13 15 14 18 7 -40 -55 -29 27 24 65 51 45 39 48 44 57 38 53 43 48 51 47 39 35 26 22 37 35 29 36 15 12 13 37 16 44 71 65 2 -11 4 32 82 116 131 131 161
43 31 37 4 22 32 27 26 20 15 -1 -16 -65 -77 -56 -42 -41 -31 35 25 20 48 50 63 57 53 50 50 51 42 30 25 39 42 35 48 47 41 34 39 53 51 54 65 179 73 26 28 84 130 118 147 163 174
73 41 37 12 35 37 33 24 23 15 11 27 3 -24 -56 -58 -57 37 24 31 30 40 90 60 83 69 64 62 44 28 31 38 21 25 31 40 52 70 56 46 60 85 25 40 54 43 35 53 103 94 120 151 163 151
89 32 24 35 46 37 19 44 27 15 20 27 45 16 -16 -23 9 30 40 45 59 68 79 74 71 45 69 58 46 38 27 6 -1 8 23 15 56 60 51 43 43 54 19 9 44 29 32 33 87 79 65 82 62 94
76 33 64 60 32 34 51 76 53 27 21 35 42 62 39 32 15 36 27 35 51 76 74 85 103 99 62 72 56 28 24 7 28 31 24 40 41 55 68 53 28 21 16 0 -2 14 28 20 30 69 93 99 106 146
102 120 93 89 90 75 62 111 106 91 79 40 33 36 50 56 51 31 27 36 43 58 76 108 91 102 118 102 96 81 60 70 59 47 47 50 39 31 32 32 37 27 19 8 2 1 13 41 82 108 113 118 161 180
222 155 124 104 100 76 61 88 104 101 75 53 52 40 44 55 78 88 82 57 46 38 60 106 110 99 86 89 82 74 71 73 93 92 71 66 45 31 32 26 21 6 12 17 9 0 20 54 81 101 144 175 209 214
248 179 111 103 100 76 49 53 105 91 58 76 56 56 52 54 49 74 91 95 87 77 90 113 107 93 126 132 105 74 76 62 56 65 63 32 17 12 15 24 24 -4 1 -4 -14 -5 13 44 61 99 140 170 210 219
207 157 139 131 130 100 64 62 84 78 58 65 77 83 60 60 49 54 68 80 95 117 131 154 144 128 106 109 142 137 104 64 47 39 29 5 21 19 9 -9 -12 4 15 18 27 33 42 65 79 96 131 175 214 207
331 279 304 194 167 137 68 53 77 58 84 76 88 89 61 69 64 66 74 84 85 81 66 58 78 95 128 130 103 88 57 38 16 -10 -18 21 23 9 39 54 49 52 35 38 30 12 20 43 60 82 102 139 161 208
397 326 255 202 183 120 80 102 80 90 88 76 88 89 88 76 61 64 106 100 85 66 83 78 85 129 130 109 99 96 78 63 47 41 21 18 34 37 35 20 46 80 106 107 98 78 53 48 57 74 136 156 180 210
478 333 241 198 158 117 77 116 109 111 83 49 75 72 55 66 54 94 72 65 76 77 96 104 102 108 99 110 108 92 75 67 71 70 65 62 58 52 52 56 57 71 91 119 115 148 144 102 66 115 144 187 209 230
377 239 191 119 152 143 137 91 97 109 110 89 73 65 52 53 54 51 48 76 87 93 106 102 121 128 128 114 78 69 50 61 63 79 74 72 74 72 50 50 56 66 72 76 90 122 140 151 116 140 177 181 202 252
264 169 168 173 208 187 115 88 109 104 73 70 68 62 58 76 75 60 57 55 63 76 89 101 92 78 84 79 86 98 98 107 86 89 89 74 81 87 88 69 56 57 56 72 84 88 123 144 167 169 176 185 199 236
199 157 127 112 150 125 90 81 76 87 91 75 42 66 84 93 84 34 33 27 44 56 51 56 58 76 62 90 101 139 122 119 130 132 130 117 102 98 90 78 78 87 107 100 90 93 120 130 152 162 158 138 121 225
194 167 194 214 167 132 122 140 138 93 58 49 60 88 86 56 22 39 48 57 51 29 39 72 123 123 105 112 129 150 148 147 157 159 127 130 135 140 139 115 105 116 97 102 107 100 115 130 140 161 163 152 149 173
229 221 187 129 173 161 108 86 67 42 55 64 97 69 46 30 36 58 62 61 54 90 103 118 129 141 149 141 139 136 122 122 121 127 122 121 137 134 133 144 129 50 81 91 91 95 101 112 134 145 166 174 196 208
237 235 254 216 174 113 81 60 57 64 69 79 65 61 59 69 78 91 94 94 122 126 116 122 131 157 166 155 128 119 121 132 137 120 116 125 105 121 171 160 135 132 126 121 73 63 80 102 135 147 140 207 247 263
225 217 198 158 108 64 68 82 75 95 109 116 112 99 90 80 80 101 131 142 141 124 117 133 141 164 132 122 98 95 107 134 169 170 153 136 134 128 138 128 85 79 106 102 79 73 56 66 75 140 217 249 253 253
229 222 177 135 81 99 108 107 101 88 97 95 103 76 72 55 42 73 119 130 143 165 165 129 117 119 119 98 99 91 73 79 89 105 145 161 135 113 106 94 80 72 49 48 58 68 82 158 229 218 206 213 181 249
209 174 159 134 108 99 96 90 81 78 76 81 84 118 95 81 52 37 88 144 148 114 76 109 115 94 84 87 89 88 43 81 106 144 152 159 119 101 72 41 31 40 48 58 83 125 219 245 225 201 198 189 247 293
231 239 203 130 92 81 89 96 75 42 59 75 72 68 78 76 49 70 76 80 89 89 85 83 71 64 65 60 64 67 57 86 69 52 45 49 81 80 53 37 35 51 84 144 162 172 209 226 197 164 160 188 246 243

GFSWCAN_con_3kmhel_024.txt.gz
Helicity
26 50 36 70 91 104 111 88 41 28 21 27 30 30 31 35 44 44 8 74 90 107 7 98 93 112 137 87 113 90 136 91 97 78 73 67 55 62 50 41 40 53 28 33 49 39 31 36 26 3 13 36 70 73
55 58 74 97 78 85 86 76 43 36 21 20 33 46 48 40 48 91 67 82 110 91 68 81 44 60 38 90 139 113 126 82 73 96 64 67 59 63 58 46 66 35 40 18 28 27 31 14 16 24 28 33 42 66
125 109 118 75 66 54 46 62 47 31 26 28 28 29 46 46 50 81 148 141 170 129 76 79 78 13 10 77 79 62 99 76 73 58 52 46 48 42 49 36 55 50 52 48 39 34 35 51 35 19 9 16 8 29
99 104 76 44 31 12 13 33 32 26 18 24 16 33 48 60 58 65 195 131 161 141 172 106 99 79 109 91 66 51 77 82 66 64 53 40 29 29 32 28 23 22 64 30 15 7 20 25 36 10 7 26 11 37
65 75 39 18 10 11 16 17 17 19 18 15 27 32 49 80 59 92 130 105 119 148 144 70 110 181 108 120 62 98 56 75 84 64 45 34 32 22 22 12 40 48 27 23 -3 10 32 27 -4 -25 13 37 18 42
67 40 44 24 14 7 7 8 20 19 10 21 26 50 72 49 50 120 91 73 69 96 27 -57 -24 61 97 86 90 91 93 86 57 34 29 28 38 27 21 32 33 34 44 42 4 43 39 -1 -23 -4 26 33 41 40
43 51 46 25 11 1 -1 21 25 18 -2 17 34 50 25 27 85 83 50 31 24 -14 17 -69 99 49 109 178 172 157 118 57 60 43 30 34 34 25 32 63 34 7 36 82 54 35 46 67 25 9 32 45 72 72
82 28 16 26 2 -17 12 25 17 14 -2 9 9 1 18 39 53 22 60 28 -22 54 11 190 273 148 153 184 150 88 75 81 61 44 41 36 37 27 12 -10 19 16 21 31 109 135 74 54 83 64 81 73 104 96
41 8 6 18 14 -7 12 24 16 2 4 -6 -18 10 15 -12 -47 42 37 44 1 1 231 225 210 160 143 165 110 104 86 89 62 54 52 44 45 23 16 -29 -10 33 37 56 47 62 52 33 31 43 78 83 105 125
10 12 31 29 12 -6 4 12 -0 5 8 -9 -15 -40 -22 -11 69 44 46 71 131 175 131 223 200 107 118 148 104 109 81 61 54 40 56 41 40 33 -18 -28 -41 -41 2 34 11 22 47 64 72 72 94 100 104 152
3 11 35 13 18 -7 -3 4 1 14 22 -16 -35 -50 -24 -15 -9 38 46 49 70 113 92 162 108 118 142 108 95 61 85 85 76 58 60 41 24 19 3 -22 -25 -17 -13 23 32 52 37 22 36 71 106 91 111 135
3 23 18 24 -4 -2 3 8 13 19 8 -1 -2 -5 10 -33 -46 -30 30 40 39 38 44 73 85 103 91 81 46 66 70 72 55 75 53 38 38 31 30 31 26 17 35 39 68 74 79 23 29 57 90 101 119 138
26 14 14 17 2 9 5 16 22 21 21 10 15 -5 -3 -20 -44 -48 -43 25 26 48 40 37 45 65 58 61 53 48 34 28 41 42 43 49 59 60 53 39 49 61 31 20 78 145 161 76 37 75 88 137 139 163
77 25 8 14 5 21 6 19 23 40 28 16 25 40 11 8 -11 -20 34 41 35 45 66 62 62 59 54 49 44 37 46 51 47 49 41 60 55 64 48 46 34 73 42 29 45 103 98 44 67 85 111 131 144 143
93 100 43 18 33 29 2 36 28 45 67 59 39 56 53 60 36 27 14 21 41 34 66 55 52 66 68 58 47 45 37 25 14 16 43 31 46 50 63 64 43 26 21 4 -9 66 46 25 19 43 46 84 135 173
94 104 70 87 72 26 48 62 53 60 78 99 102 78 45 73 50 31 27 14 54 75 75 71 74 56 51 67 56 40 34 18 16 28 19 38 43 52 63 71 66 48 34 13 -6 -29 -20 22 16 -2 46 76 30 41
174 149 105 112 114 103 73 59 61 77 64 75 63 41 38 43 44 40 32 28 50 61 73 92 96 84 92 81 67 49 32 34 49 53 49 47 40 45 53 51 57 52 36 40 29 15 1 -9 -15 17 30 30 63 75
226 183 159 152 170 120 60 50 51 49 36 55 41 58 57 44 40 61 57 53 43 32 61 93 100 85 87 78 54 54 52 61 70 56 54 57 52 54 50 38 22 24 36 30 9 12 21 28 26 17 32 76 118 131
139 219 182 184 144 100 54 35 61 10 19 49 46 42 89 66 59 39 59 90 83 66 52 50 84 69 81 66 43 18 33 58 63 65 74 68 51 47 40 31 29 22 16 31 32 27 16 13 17 31 58 85 108 132
150 206 165 168 169 120 81 46 76 12 7 34 58 52 58 77 58 58 43 59 96 131 150 142 100 92 83 77 87 97 90 82 93 102 91 74 63 66 49 38 43 53 39 39 51 65 53 54 58 53 62 89 122 122
245 170 240 288 206 164 95 66 39 -2 14 31 44 48 48 49 75 59 61 85 108 85 76 82 80 55 61 72 98 106 93 73 45 37 31 46 47 51 55 53 49 45 55 70 80 92 105 101 89 64 57 68 85 113
221 382 313 303 240 178 150 146 72 75 64 65 54 41 49 45 39 80 98 119 91 89 112 100 92 115 115 106 97 87 80 70 70 61 48 49 67 76 78 68 69 65 57 56 63 78 97 121 129 113 87 85 90 132
288 372 313 314 253 183 121 174 109 88 50 47 65 56 61 70 53 103 74 62 66 91 117 122 120 125 128 136 146 134 117 111 90 77 67 63 64 76 89 89 80 90 94 87 69 62 75 100 121 121 121 130 154 138
224 236 286 205 216 169 218 145 132 89 87 90 73 78 60 56 72 59 37 41 91 94 103 108 152 169 164 151 102 75 79 107 97 93 81 75 69 74 72 82 84 85 79 70 73 73 78 81 97 105 119 156 164 167
164 166 221 237 291 249 190 160 150 131 90 75 69 66 59 63 49 41 38 45 56 73 91 114 106 103 107 88 72 54 97 137 115 89 90 101 98 96 105 99 85 80 83 83 85 79 86 96 100 105 142 146 149 165
185 162 119 167 205 194 137 105 106 119 131 75 34 53 62 69 60 22 25 31 16 30 61 47 44 54 28 34 62 85 93 121 158 134 131 120 122 122 105 93 88 91 77 105 103 83 75 86 105 108 122 113 91 146
171 183 232 314 272 200 139 149 155 123 68 40 60 74 71 40 13 26 30 20 31 29 -3 20 64 71 68 88 101 112 123 152 168 148 139 138 142 153 163 141 137 126 87 95 114 106 81 80 84 111 122 140 135 146
144 121 188 229 258 208 129 99 77 50 67 80 91 58 40 35 40 33 5 35 43 67 77 77 66 79 88 89 107 144 148 160 150 120 98 108 123 127 132 145 147 75 109 112 110 113 114 103 89 95 129 122 126 145
104 138 300 310 231 144 71 67 60 70 73 81 46 56 48 41 30 22 44 67 97 100 89 89 89 117 130 135 135 133 140 145 141 100 83 93 99 82 83 131 165 179 181 163 114 92 104 127 124 110 117 119 129 158
124 162 182 214 173 126 95 102 50 92 137 122 88 62 44 36 25 39 68 100 112 100 99 109 120 136 118 124 109 116 113 121 153 174 151 120 102 92 115 151 174 168 176 147 116 118 111 111 106 112 133 159 169 159
202 249 232 200 131 142 155 155 116 95 94 78 85 47 45 33 5 19 95 127 153 170 155 131 118 121 128 120 122 112 94 106 111 96 122 148 150 149 161 187 208 185 143 109 79 77 99 113 112 188 174 141 118 121
242 201 200 200 141 157 173 129 86 71 77 78 66 82 70 63 36 26 76 114 129 106 79 103 113 103 101 102 101 94 61 79 85 102 106 136 162 178 158 164 154 112 68 42 43 41 39 79 131 141 135 115 132 153
183 207 204 149 131 114 125 94 71 40 43 55 56 60 66 61 29 76 77 70 78 84 84 85 86 96 91 83 77 75 59 81 65 42 25 27 24 62 134 136 85 43 26 24 41 63 95 129 145 142 143 152 149 152

GFSWCAN_con_3kmhel_027.txt.gz
Helicity
76 58 22 33 40 54 59 54 60 69 114 50 0 -2 9 15 14 48 23 53 59 55 58 82 127 176 210 150 136 89 113 119 111 85 76 73 73 67 74 60 37 60 51 51 38 32 33 40 67 16 2 15 10 25
44 24 66 63 87 79 51 37 28 34 44 62 28 13 5 12 31 71 59 51 75 68 71 69 70 65 111 122 188 199 164 86 104 126 101 91 90 72 74 61 85 51 43 26 29 19 21 46 50 28 19 21 21 31
18 22 62 148 92 45 22 -3 -7 4 9 9 45 2 10 19 42 76 114 131 138 71 10 17 77 124 108 86 92 136 138 116 86 99 83 78 74 68 59 58 66 39 58 45 43 25 -5 14 33 2 6 8 5 18
25 60 115 93 63 38 7 -11 0 12 15 19 45 20 14 25 43 78 172 162 211 181 103 86 66 135 136 101 18 61 67 195 110 112 102 74 58 43 41 44 39 42 76 60 35 11 -4 -19 18 39 13 -16 4 44
67 69 84 78 41 21 -1 12 15 12 6 3 14 10 19 47 78 113 127 151 170 177 186 118 61 203 148 104 29 32 32 86 111 89 83 61 51 49 41 30 28 31 41 46 37 35 -6 13 38 4 -21 -31 8 45
68 79 73 72 32 15 9 2 -6 -5 4 6 2 12 31 62 51 92 41 45 58 158 184 124 43 96 108 -1 37 44 46 91 139 104 78 55 46 52 39 27 18 36 22 22 -17 -32 -25 4 10 -1 -8 -10 30 34
11 78 37 59 41 22 6 -6 10 11 6 5 -1 -7 8 19 78 44 8 22 30 97 125 134 29 30 45 -58 52 102 102 130 88 76 58 46 45 36 32 42 47 77 40 28 2 24 14 28 43 44 42 41 52 60
42 31 45 47 31 34 -7 7 18 14 14 2 -3 6 21 47 40 1 23 39 46 109 183 151 178 136 -27 65 121 110 155 122 70 70 63 54 64 48 26 61 38 22 13 8 52 18 -8 19 47 72 94 77 58 58
27 47 40 12 34 28 17 15 22 28 24 10 2 32 40 4 11 11 40 108 82 149 225 225 137 143 37 161 139 117 89 69 60 75 75 66 61 47 47 19 -1 -24 -22 23 35 8 1 17 47 50 47 54 64 70
27 19 14 18 24 21 0 -10 -1 3 20 8 32 -9 -21 -7 -19 71 30 73 96 151 164 329 268 129 76 132 84 98 74 51 44 68 77 81 68 86 48 -13 -23 -10 -15 -5 -12 20 33 44 47 65 60 57 67 90
15 -4 2 10 24 15 -12 -2 -1 21 28 22 11 -17 7 -12 14 15 -12 40 58 72 84 134 134 88 125 72 87 97 57 60 57 56 72 60 36 71 61 14 -2 -17 -10 -13 -4 -7 21 19 20 23 48 58 83 111
43 23 13 28 27 7 -8 6 12 27 11 22 28 15 22 14 -11 -9 -14 20 25 33 64 69 79 99 92 93 77 90 76 89 100 103 118 42 49 66 36 17 10 2 19 -5 -2 17 47 45 41 36 45 80 111 119
83 61 13 15 19 -4 8 7 8 21 37 25 16 14 16 13 32 12 -3 -4 32 44 39 70 68 90 91 77 63 37 35 37 48 59 53 52 64 64 49 35 37 21 23 -33 -45 24 78 128 127 91 59 86 112 153
76 61 38 18 16 2 12 7 14 22 32 39 43 38 27 51 59 33 15 22 29 42 48 48 61 70 78 67 58 39 49 45 33 32 31 57 77 69 59 24 11 32 10 -34 27 32 75 151 108 61 58 86 170 183
74 60 59 49 49 47 30 11 37 29 40 41 55 62 60 67 50 31 3 0 24 44 57 63 47 47 61 57 62 56 46 24 16 20 33 53 52 63 67 64 65 60 31 -1 -35 3 11 39 39 34 22 55 97 116
97 93 97 75 66 72 58 70 45 34 39 45 62 75 49 78 88 79 37 18 8 51 52 67 82 60 52 82 61 48 46 12 16 20 41 36 40 64 79 78 73 65 63 61 29 5 -12 -35 -18 9 30 55 39 43
152 131 78 93 114 125 109 66 50 35 25 38 32 41 45 66 56 33 43 35 29 54 90 107 84 66 81 64 57 46 30 36 23 51 56 62 62 69 75 61 48 45 46 37 34 42 32 21 3 -7 -38 -27 18 1
84 90 116 158 181 130 95 87 66 51 40 55 55 53 45 25 75 41 47 43 54 58 79 110 120 99 88 75 56 41 26 34 59 71 72 64 57 45 47 49 51 52 42 30 30 20 6 19 30 23 20 11 12 20
44 123 153 213 151 116 81 66 81 38 27 20 21 50 52 50 64 83 59 41 52 51 74 76 105 75 91 68 32 16 9 12 44 67 58 44 31 32 40 48 36 25 24 30 37 41 52 56 41 36 25 22 38 54
30 83 166 205 137 123 104 90 111 55 16 0 8 37 55 52 40 74 78 55 62 92 116 100 56 69 54 47 44 30 43 55 85 81 62 52 51 57 56 49 43 46 47 32 35 76 76 84 80 89 78 68 67 67
113 65 249 201 145 143 106 109 94 44 24 37 24 21 28 57 50 75 105 75 87 104 93 74 72 70 84 88 81 94 131 122 93 81 75 78 69 74 61 40 42 41 41 48 54 61 69 81 102 102 106 111 97 82
69 206 170 200 180 122 133 160 141 116 94 75 52 42 44 56 61 76 55 88 96 105 131 123 103 95 117 104 82 81 94 112 108 101 94 84 75 72 63 51 62 62 56 53 49 51 64 56 59 69 79 90 95 108
167 135 128 165 190 134 104 204 169 134 90 65 65 -7 -20 14 28 64 43 50 48 76 106 116 109 108 117 135 136 135 111 118 94 73 61 57 56 55 58 62 74 79 89 95 61 62 64 47 53 66 75 86 99 109
90 64 60 81 123 122 186 179 193 153 143 112 51 9 10 19 50 39 47 93 111 88 112 110 144 161 174 173 132 105 96 117 113 100 88 89 72 64 58 59 67 76 77 78 77 67 48 54 67 75 82 86 97 116
41 48 80 116 195 194 189 199 239 195 147 110 77 54 45 48 43 41 67 94 112 112 106 115 111 104 107 105 98 79 109 135 120 90 86 107 100 86 84 78 76 79 80 74 73 70 74 79 80 80 89 91 105 119
87 101 118 100 184 178 135 137 130 119 148 110 57 91 98 42 43 2 27 26 37 40 74 76 79 78 53 57 71 85 71 113 135 104 82 120 133 129 98 81 78 92 57 81 89 85 88 89 85 80 79 88 67 86
201 190 191 224 258 268 218 202 226 153 66 31 78 95 57 31 1 23 40 41 23 20 19 28 56 45 38 56 69 81 99 123 153 128 147 129 125 138 146 125 116 118 90 93 106 112 107 98 84 80 79 98 110 104
337 282 241 229 224 235 182 148 97 63 67 87 129 92 23 15 26 54 60 30 15 39 54 34 18 29 41 41 67 113 141 163 164 134 106 100 126 128 111 98 92 34 79 103 111 118 117 109 101 92 93 91 97 126
286 254 242 221 243 187 150 130 64 88 113 115 79 82 95 100 60 42 28 23 39 70 93 88 77 109 132 140 138 128 144 160 156 120 100 94 119 99 84 72 77 95 113 126 121 119 104 121 129 127 130 133 127 148
300 278 266 171 144 122 106 108 116 150 138 131 157 141 95 40 12 28 38 42 48 55 84 120 144 149 109 118 112 116 104 116 136 156 133 121 111 90 84 88 106 124 147 146 132 143 144 146 139 133 111 147 179 161
292 336 229 154 84 93 138 187 188 137 123 134 128 81 75 33 -24 -44 39 84 117 151 161 170 158 129 131 123 120 116 110 117 107 87 91 114 112 104 105 124 146 157 170 150 134 129 126 116 96 90 87 113 144 138
190 160 152 94 74 111 144 156 137 112 114 104 70 82 85 70 23 8 79 92 104 88 78 99 107 79 96 102 120 115 99 101 99 96 90 106 106 104 120 140 180 163 133 107 86 65 46 36 38 64 108 138 151 154
132 189 200 145 115 116 127 139 135 89 63 45 49 62 79 68 33 63 75 70 78 68 52 57 73 93 101 100 92 83 71 79 63 48 46 43 36 41 96 152 162 118 80 67 55 38 20 7 33 74 94 114 114 105

GFSWCAN_con_3kmhel_030.txt.gz
Helicity
57 36 33 38 39 59 55 52 39 27 23 0 43 49 53 2 -18 7 14 31 41 49 59 73 87 81 116 146 160 171 170 172 171 110 84 60 54 50 77 81 53 56 37 57 55 44 36 37 76 31 23 13 6 -4
33 14 15 21 40 115 77 32 15 -6 10 8 22 44 44 -1 -32 18 25 41 69 70 91 84 88 68 68 58 150 224 227 150 144 155 116 86 72 67 72 80 99 60 55 42 29 44 36 37 48 40 55 18 9 5
12 17 21 15 106 94 50 17 3 -10 23 0 26 7 23 14 -3 3 47 81 96 64 39 40 -16 189 129 73 106 153 194 225 194 148 122 103 78 73 69 54 74 57 49 66 65 41 29 30 9 13 6 10 9 3
47 34 32 65 90 68 45 8 -2 26 21 2 2 1 46 5 -14 28 84 112 119 103 121 135 87 147 16 31 98 76 98 292 214 174 165 146 88 59 50 52 52 44 67 61 62 22 -8 9 27 60 48 15 2 6
56 47 67 65 79 80 37 21 10 11 12 19 -9 -27 -4 -19 -3 87 100 101 138 114 130 104 92 145 209 200 156 76 71 -9 121 149 165 139 103 76 58 50 34 57 46 73 53 58 12 -3 16 29 -1 -7 -4 -1
80 95 69 74 54 73 50 25 28 17 16 -8 -15 -9 -26 -21 31 52 -12 25 33 80 106 136 116 124 137 89 82 113 22 -53 119 99 157 122 91 92 52 34 38 43 64 37 13 7 -8 -11 -1 16 3 3 3 18
55 60 22 100 55 79 38 29 -20 1 -14 -18 5 -7 -23 4 99 40 36 64 80 101 125 31 57 49 22 50 59 61 -12 -17 80 102 144 108 90 88 71 38 61 88 83 49 21 2 8 43 41 71 44 48 58 60
55 51 52 64 87 56 42 -7 -11 10 -2 12 8 -14 3 52 54 12 30 104 134 132 130 123 126 62 17 31 -3 -58 24 59 63 115 137 107 116 87 39 37 72 63 47 31 58 17 8 8 -5 11 41 73 71 59
67 57 38 68 48 32 33 10 5 10 -5 18 -6 46 47 23 16 24 50 106 120 123 110 115 90 40 -59 -35 65 52 109 160 84 88 78 86 94 67 32 51 51 39 12 -20 -34 -21 -16 -2 6 15 37 61 57 55
76 49 43 16 20 18 11 1 8 12 11 15 39 27 11 10 -14 53 50 20 57 132 156 167 96 104 50 74 171 74 98 92 72 68 78 58 51 92 100 75 45 4 -1 1 -4 -8 -8 21 33 44 39 55 62 58
67 48 25 19 7 18 15 4 21 21 31 38 25 21 15 -7 34 17 5 7 25 48 98 102 93 49 46 12 42 72 73 76 44 42 63 34 18 76 117 75 41 16 12 14 6 19 36 23 46 47 39 42 59 53
82 50 35 33 27 19 13 14 22 21 13 36 39 36 16 18 9 -12 -14 6 17 12 69 56 34 45 57 67 36 44 16 47 26 62 81 47 61 81 67 55 41 41 19 30 17 17 22 43 45 46 51 30 44 67
87 81 59 42 26 10 29 29 17 10 24 29 31 26 18 42 45 19 -6 8 7 20 40 61 49 34 50 46 47 55 12 23 73 71 69 72 89 85 75 38 43 42 40 15 -12 32 24 49 60 79 96 87 60 78
75 103 83 66 48 56 60 41 23 19 19 21 37 44 46 66 78 67 34 23 14 5 36 63 49 68 59 72 54 45 49 44 34 25 34 41 43 50 72 73 56 57 42 32 -11 4 7 39 27 28 75 56 38 84
79 106 70 45 57 70 75 64 48 36 9 7 30 21 39 56 34 25 25 23 -12 -3 15 40 30 55 68 63 70 55 36 20 12 19 22 30 56 72 91 80 78 72 55 42 19 -14 -21 -15 49 23 24 38 50 64
21 65 74 77 77 75 89 68 60 56 44 20 7 18 12 38 48 51 45 19 1 3 26 43 61 56 44 74 67 58 50 19 17 19 33 48 39 45 69 89 81 56 45 42 25 9 -2 -11 -24 -23 -30 -43 -25 1
75 82 76 110 112 130 106 79 64 49 13 -2 -3 7 14 26 17 9 18 22 21 39 62 90 71 88 81 66 73 62 33 25 24 37 46 47 33 39 61 78 64 48 37 26 16 11 6 7 -3 14 15 12 -14 -26
52 39 96 153 215 135 96 102 93 76 34 68 45 15 29 38 40 28 36 52 37 61 75 105 110 92 91 74 57 43 40 45 10 17 43 49 58 57 55 51 45 35 29 23 22 21 22 31 24 20 19 21 10 22
54 49 128 192 170 148 77 76 98 63 38 68 43 22 21 32 76 70 54 72 61 53 82 88 96 74 95 76 44 40 27 17 5 14 56 69 61 51 44 39 29 35 40 38 39 35 29 31 34 53 59 50 39 41
52 87 153 174 146 95 95 88 108 93 61 55 62 63 33 28 50 60 61 61 72 57 89 99 77 77 53 54 56 50 37 52 90 108 91 75 65 61 49 46 46 55 59 61 61 70 67 76 71 85 79 80 86 84
106 126 198 126 68 103 109 84 100 89 81 70 57 78 65 68 54 76 69 64 48 62 70 78 91 71 69 59 51 30 26 76 60 65 51 64 65 72 71 68 70 72 66 46 50 55 55 34 43 47 50 66 72 77
113 119 107 104 88 73 86 130 134 128 118 114 93 95 73 60 38 40 73 88 75 80 127 112 149 120 122 119 100 79 92 122 134 117 116 102 77 66 60 47 55 37 24 14 21 35 43 40 40 39 53 62 69 66
124 106 97 82 79 83 87 140 115 144 116 89 97 76 28 53 32 55 -32 57 96 122 147 143 113 111 93 97 119 135 120 122 102 82 76 69 64 63 61 41 36 33 40 51 46 52 48 37 35 41 48 60 69 76
107 109 98 77 74 88 113 100 127 134 153 141 115 76 68 44 75 56 92 140 191 147 133 139 157 143 122 127 127 119 121 129 132 122 90 93 81 64 53 48 53 38 44 73 84 81 68 50 42 69 63 64 71 82
127 98 103 94 125 119 100 126 185 181 139 121 119 84 75 113 37 22 102 82 49 52 38 61 92 105 97 87 100 88 107 128 112 78 78 94 99 105 85 67 62 58 62 79 76 73 67 64 76 74 69 66 75 82
120 76 85 112 181 152 103 79 47 53 90 68 27 45 92 51 28 -62 43 24 -17 -19 16 57 87 91 63 65 75 73 67 99 126 92 78 117 128 114 80 61 49 54 59 94 100 89 76 71 74 79 82 75 72 89
138 140 138 222 238 245 196 160 156 124 67 27 45 83 52 -12 -85 -68 -24 2 18 19 24 21 47 58 66 55 51 58 80 96 113 92 110 106 114 128 137 108 84 83 103 103 109 108 94 88 90 97 96 100 96 103
154 189 223 249 280 268 185 150 101 38 59 116 158 84 -14 -26 -38 -39 -31 30 36 36 25 4 -10 -6 8 25 42 65 88 105 112 97 88 94 115 113 115 119 105 67 93 105 109 109 100 88 90 103 109 109 114 134
302 318 314 279 275 203 170 146 87 104 133 138 71 73 58 98 63 21 41 21 37 44 48 63 70 88 97 93 89 87 100 118 128 102 83 80 98 98 117 117 105 108 113 114 75 71 79 100 109 131 140 161 169 184
269 314 316 295 291 253 209 148 69 70 126 167 192 174 124 88 77 83 81 64 36 29 37 58 115 165 150 153 117 87 72 91 126 146 118 106 99 109 116 111 111 115 126 120 100 92 67 108 134 142 133 137 153 168
241 291 273 259 239 211 190 201 159 92 117 133 141 65 42 42 28 13 70 102 110 135 126 132 158 172 184 155 113 75 54 90 114 105 103 103 102 104 110 121 130 137 135 124 116 122 143 141 116 103 102 106 110 112
222 268 316 232 208 197 183 133 96 92 103 122 99 116 98 69 36 10 51 95 114 90 61 88 120 104 104 115 105 107 141 136 116 104 92 106 108 110 129 136 142 153 171 173 160 139 95 76 90 87 81 63 62 75
202 196 206 193 161 122 112 103 87 85 68 64 65 59 98 84 64 69 97 104 91 69 59 65 66 72 86 91 94 102 94 89 80 74 64 50 32 54 96 151 172 182 179 144 104 66 39 26 37 30 25 37 58 88

GFSWCAN_con_3kmhel_033.txt.gz
Helicity
79 47 23 -0 20 22 45 78 45 13 -8 -2 -0 -0 -12 -4 -7 -3 49 -1 33 45 57 62 77 77 98 98 144 168 158 159 168 113 123 91 75 56 77 59 44 44 44 59 64 56 32 45 84 49 50 56 36 20
31 10 14 11 11 27 82 67 34 5 6 16 -10 -10 -8 24 3 28 4 22 44 84 101 68 81 59 64 82 121 182 253 207 144 148 138 135 112 89 83 65 99 71 70 45 33 22 30 40 102 65 49 59 29 23
55 26 39 45 11 47 59 38 29 15 28 27 14 -2 -13 35 21 -19 15 39 61 38 65 70 68 80 80 59 120 185 206 231 258 225 162 148 142 127 98 59 73 62 77 77 68 29 17 13 40 2 22 40 31 12
62 41 40 45 48 43 47 44 31 18 18 30 53 15 -33 10 30 -9 14 76 71 56 53 82 63 61 67 135 158 139 98 161 181 326 220 184 139 97 77 66 65 69 100 75 60 24 20 14 41 31 38 46 24 18
75 46 47 64 79 34 62 64 60 47 30 22 36 -38 -26 -27 -25 -1 39 73 102 72 57 86 47 78 139 189 160 128 179 64 101 210 211 191 150 124 116 92 59 80 80 100 42 23 37 25 34 17 -7 11 16 -4
64 39 46 39 36 84 77 95 60 47 22 32 -19 -18 -9 -21 -15 36 3 -1 14 42 52 31 75 92 95 66 70 104 128 96 -81 64 74 135 126 139 93 62 38 64 79 82 58 49 17 12 13 33 5 19 40 10
55 45 32 -3 7 68 69 57 42 34 9 -10 -7 3 -4 -12 44 16 3 37 80 96 71 34 10 60 61 84 68 80 87 73 -206 7 108 78 115 130 101 49 28 35 73 92 82 50 14 16 23 37 21 41 55 60
75 75 60 38 43 73 26 23 17 -12 -28 -27 -2 6 -10 36 5 1 22 94 134 75 69 24 32 72 128 19 19 31 58 -4 35 73 62 120 159 139 58 27 65 84 88 66 89 78 21 30 25 16 -1 28 59 70
70 87 71 50 70 28 10 1 -22 -18 -38 -4 2 28 46 14 10 4 -41 53 129 77 40 82 104 67 114 20 -0 34 -98 49 107 40 103 137 156 70 26 40 53 49 49 52 41 15 6 18 3 26 36 42 48 73
72 108 71 49 22 26 6 -9 -6 -4 -24 -4 18 30 1 2 -30 -28 42 24 22 55 91 110 87 89 53 -18 -66 -1 14 19 38 85 64 69 40 53 73 87 91 66 42 42 23 10 4 -0 23 30 48 48 41 66
98 63 60 33 22 10 -4 12 9 -10 6 -21 -29 4 24 -12 -12 -5 13 13 23 26 28 85 121 58 37 27 8 15 77 58 9 23 43 32 24 60 106 117 106 69 44 20 7 21 14 -16 12 46 68 52 47 52
83 73 69 44 29 21 20 31 6 -0 -26 -15 -20 6 -3 2 22 27 24 14 22 15 10 26 67 39 27 21 13 39 16 31 39 54 56 -12 22 47 76 64 65 62 53 54 45 1 11 34 40 48 88 95 68 48
35 59 69 62 58 47 70 52 20 1 9 1 -31 -46 -17 9 61 64 49 20 18 9 1 37 54 24 5 19 -0 -4 -19 -5 34 8 13 25 61 76 77 59 54 54 61 43 25 -28 -6 17 28 42 81 80 88 80
-23 -1 84 85 69 74 78 62 38 26 13 -25 -30 -15 -4 21 35 57 79 50 19 6 -1 23 17 40 24 35 39 31 36 59 13 27 39 31 34 57 74 77 61 74 60 39 21 -26 13 65 53 30 47 61 56 54
5 30 28 53 87 88 86 77 65 58 34 -3 -11 -31 -27 -0 31 36 36 31 6 9 5 22 21 22 42 47 42 51 31 15 -6 11 9 19 40 46 55 80 80 80 78 62 39 5 -20 -30 -22 -10 -21 -27 -22 -19
22 34 18 45 104 111 99 83 73 75 56 2 -19 -7 -12 -2 -9 -9 -2 -1 1 8 4 7 42 48 44 60 54 47 61 46 24 21 36 71 48 27 31 56 71 74 62 43 33 15 2 3 -10 -23 -22 -13 -16 -24
38 34 37 80 98 127 108 61 59 60 17 -3 -14 27 17 -0 -10 -17 -7 -19 3 12 24 43 63 69 82 66 66 74 53 47 18 12 36 42 40 23 22 40 62 64 44 31 16 13 9 10 6 15 20 15 12 9
51 43 76 143 157 126 105 93 57 64 37 38 2 27 45 43 26 3 13 27 15 35 50 90 88 83 79 66 57 53 29 36 37 2 12 43 62 55 52 57 57 53 44 35 24 21 25 41 43 34 31 28 27 32
50 53 121 132 90 97 79 92 69 48 37 59 45 53 58 42 46 33 30 30 32 52 54 76 86 62 78 72 45 47 40 29 19 6 28 43 54 57 61 61 53 36 23 23 37 44 50 62 60 63 69 83 80 75
67 90 116 129 114 85 85 99 126 82 78 58 72 67 48 71 76 73 42 39 36 40 63 89 91 108 44 43 31 69 74 67 98 105 85 68 65 73 54 45 41 43 41 40 45 62 64 66 43 43 45 55 62 70
157 154 126 106 112 106 112 121 137 99 57 62 51 64 48 95 99 90 49 57 114 135 113 124 127 87 60 60 54 43 42 62 76 74 55 76 74 86 82 77 81 83 89 97 93 75 62 48 48 35 22 29 35 40
147 110 88 114 109 119 137 171 153 138 89 76 51 75 43 32 47 49 60 107 136 198 219 163 182 150 74 58 72 89 77 73 99 124 136 134 144 123 79 62 74 49 47 41 39 35 33 34 35 30 31 39 48 61
155 94 93 121 113 130 131 158 143 148 80 36 52 41 26 30 43 83 17 101 169 236 208 125 92 96 99 66 76 86 93 117 123 109 101 97 103 93 102 78 63 56 32 20 30 35 35 39 44 43 42 49 49 53
168 137 118 92 113 143 200 178 156 124 100 88 61 22 28 36 69 56 73 80 58 49 34 33 52 44 65 93 85 86 94 131 136 130 113 118 89 60 66 67 64 51 47 58 58 51 47 46 47 65 58 59 62 64
212 126 123 124 169 203 201 173 170 140 58 44 30 15 21 49 40 30 33 -19 -15 -2 -41 13 29 44 43 50 72 65 78 124 123 100 93 99 115 127 103 84 71 62 75 68 44 53 58 63 62 68 77 74 65 67
208 139 141 150 187 195 163 159 93 63 58 5 -26 2 18 23 35 -59 -34 -42 -37 -39 -21 -25 1 30 51 63 64 72 57 77 103 78 66 107 111 107 87 85 82 64 68 71 77 69 65 66 65 65 72 70 61 70
218 195 168 194 215 201 171 149 135 113 76 -11 22 46 32 -37 -45 -18 -38 -71 -93 -68 -28 -0 10 16 10 28 18 22 44 69 80 69 88 86 94 108 120 99 65 53 80 91 96 89 80 82 82 87 89 95 88 88
139 173 187 203 216 191 148 123 92 57 60 80 105 52 -23 -52 -9 14 -43 -36 -55 -35 -25 9 22 9 -8 -12 12 41 69 85 96 87 78 77 90 90 86 91 109 87 94 99 94 95 93 92 98 100 104 105 113 138
235 244 222 174 183 140 115 123 126 139 162 154 100 93 51 71 87 74 54 28 26 23 -9 7 27 70 79 89 91 93 93 108 96 61 57 75 92 78 111 109 120 121 116 114 101 92 93 107 113 119 113 131 135 144
249 266 246 246 250 202 198 196 186 160 184 218 211 181 96 53 65 118 86 66 54 29 36 53 62 107 92 123 127 149 145 133 113 105 82 66 54 90 112 109 98 98 113 117 115 108 98 125 123 134 127 125 126 134
285 305 246 218 174 188 192 224 250 225 240 223 197 68 -34 -42 -12 6 3 55 28 55 107 95 123 125 124 149 174 161 129 114 109 93 109 113 101 95 95 99 110 122 128 132 136 136 142 147 142 136 118 98 82 71
320 293 287 222 186 192 202 186 196 183 178 150 80 66 56 49 -35 -104 48 129 117 74 27 39 36 38 99 130 150 155 135 100 98 104 99 99 100 98 111 133 161 176 164 161 170 177 156 127 120 88 62 48 51 54
340 326 275 195 180 132 130 142 112 81 107 66 44 30 84 56 -1 1 81 143 139 125 93 56 51 76 92 89 92 93 99 103 90 76 68 62 56 70 101 131 176 213 169 147 136 122 90 53 20 2 -8 -2 3 10

GFSWCAN_con_3kmhel_036.txt.gz
Helicity
53 59 49 33 31 17 2 12 31 19 20 19 24 2 11 30 7 -17 -13 -28 -42 -62 39 50 62 66 83 96 134 172 152 145 155 93 85 84 47 70 74 58 46 37 42 63 52 54 42 52 104 64 80 79 64 90
55 48 51 45 33 11 6 12 19 11 28 30 26 26 -5 -3 48 9 -18 -3 -4 13 51 31 47 66 54 59 117 148 215 191 191 169 160 132 100 82 80 79 86 64 69 56 34 44 45 37 82 101 75 61 54 48
58 49 42 44 41 28 23 18 12 15 22 28 49 49 11 3 -7 32 50 40 3 -4 52 36 93 92 53 38 93 183 171 214 261 282 230 187 156 131 106 72 64 42 54 72 65 31 1 37 39 50 45 40 60 42
58 46 50 48 42 40 41 48 56 54 37 40 70 43 -7 -22 -13 -6 50 58 34 8 37 55 50 32 40 29 72 95 126 218 155 166 252 214 192 129 111 119 67 93 89 49 53 36 58 59 62 59 42 33 33 33
50 42 43 38 46 30 21 59 109 57 39 39 64 27 -8 1 2 3 46 59 16 22 27 73 29 -19 -20 5 57 97 106 154 182 146 242 282 233 185 153 124 89 85 83 100 64 42 48 61 73 64 35 30 22 25
37 44 49 32 37 16 93 80 75 34 40 48 35 11 -1 -1 -9 0 -5 -10 17 48 30 22 6 20 46 68 78 140 161 143 93 65 19 183 303 154 89 87 53 48 89 84 62 69 62 70 54 36 47 51 33 10
12 61 70 57 43 78 61 72 30 10 3 11 7 0 16 3 47 -4 -6 2 81 76 3 -27 -10 52 88 108 107 103 70 106 122 -15 -64 14 151 145 130 77 47 35 44 72 93 73 41 41 52 57 39 54 59 43
8 87 103 67 92 93 83 62 21 -11 -23 -6 -13 -10 5 56 31 4 -28 14 82 25 6 14 25 55 156 95 96 75 54 74 79 52 -116 -58 56 147 59 31 55 67 81 73 74 88 76 49 19 15 17 21 28 42
17 66 77 74 93 90 61 39 16 -13 -21 -31 11 39 27 14 3 -4 -22 12 110 1 19 33 50 35 110 126 140 58 14 6 27 -3 -22 50 22 45 23 39 31 47 60 61 65 59 45 35 30 20 21 28 45 62
-20 60 94 87 90 68 57 45 35 -28 -26 10 21 -2 -14 8 -28 -28 -28 -12 8 3 -4 52 101 101 43 23 85 83 -19 -21 21 -13 30 35 69 110 96 78 69 74 69 53 51 51 46 32 28 17 20 36 29 42
24 77 71 84 91 60 54 69 41 -10 11 -4 -23 -36 -2 15 13 -6 4 1 5 15 9 40 126 150 64 50 13 -1 52 20 23 27 27 25 20 36 82 89 114 105 77 48 47 39 21 6 25 48 70 69 63 52
26 41 78 87 65 67 60 70 70 70 39 11 0 -3 -18 -10 14 29 16 18 7 18 -2 7 51 78 39 9 9 -5 -6 -6 16 14 20 36 26 20 51 49 68 82 76 62 55 21 -23 -13 16 32 56 78 92 96
13 11 24 45 57 63 76 52 52 58 97 51 -20 -52 -40 -16 26 87 132 69 57 22 -3 -26 15 15 10 -10 -7 -18 -11 12 17 10 5 26 29 38 62 75 74 54 40 31 37 11 -27 5 30 6 16 30 55 58
33 30 24 26 46 51 64 70 41 53 62 8 -35 -47 -34 -24 -14 5 43 73 66 51 51 30 7 12 15 5 17 -1 -3 -3 -6 15 23 11 17 29 54 64 54 53 46 38 38 18 1 -14 31 31 21 21 36 52
29 41 65 45 43 63 52 54 52 23 29 -24 -23 -57 -58 -25 -24 -31 -24 -17 -21 -14 17 51 14 9 22 27 27 23 10 -13 -11 16 16 8 30 35 44 59 66 64 64 81 70 34 14 -9 -13 -11 -7 -16 -17 -21
42 61 35 43 72 85 82 69 75 68 22 -10 -22 -22 -29 -47 -47 -26 -34 -35 -28 -14 2 -32 22 45 38 59 49 36 22 20 23 29 30 80 62 38 48 59 77 89 91 86 65 20 5 -2 -3 -9 -8 0 -4 -3
57 48 43 78 113 135 81 49 64 91 94 34 -20 -19 -8 -20 -42 -33 -31 -29 -11 -13 7 30 36 73 65 65 63 51 49 59 57 33 8 37 40 34 35 43 70 89 72 44 15 16 7 5 0 6 17 24 18 18
75 54 82 124 106 89 68 75 77 116 88 87 26 24 19 12 17 6 7 2 -24 -35 -4 37 55 67 74 64 43 40 26 27 34 55 32 36 56 52 45 46 53 59 57 50 40 30 18 12 1 -7 -7 -9 -6 19
54 67 102 101 86 82 61 59 74 77 92 101 89 50 37 19 41 53 38 44 35 34 -7 7 18 38 53 69 43 21 31 49 36 17 5 22 41 44 46 49 46 37 32 34 40 43 44 51 51 49 38 38 33 35
78 102 107 133 116 105 105 97 105 104 95 118 96 63 37 44 55 53 62 66 72 53 44 48 61 97 67 47 33 27 53 71 89 78 70 70 75 71 56 54 44 42 35 36 44 54 64 69 73 68 54 43 43 41
160 89 126 116 121 123 106 112 131 111 93 115 109 74 50 77 64 70 62 93 92 97 69 95 114 120 139 71 62 45 3 27 49 59 54 68 92 79 78 67 65 56 50 56 61 63 70 62 48 45 37 32 30 36
156 97 150 114 131 172 155 147 152 136 110 124 105 106 44 54 60 61 62 80 21 20 39 35 65 66 64 58 46 61 41 45 90 96 97 91 114 111 88 80 95 75 68 61 54 49 48 48 49 46 38 32 33 31
188 192 158 145 144 144 137 162 156 142 119 108 76 64 41 30 39 32 7 25 33 15 32 13 32 48 37 36 31 49 50 63 78 88 98 99 107 104 109 101 83 80 62 54 51 53 53 48 49 51 47 44 40 35
200 179 150 116 141 195 172 184 179 131 120 118 86 64 54 12 31 33 17 1 2 19 16 -27 -24 -2 31 27 31 61 67 64 62 67 85 95 94 86 90 89 83 62 56 72 59 50 47 43 43 52 55 53 46 45
234 177 180 168 186 201 173 163 161 119 95 101 104 70 57 39 14 26 -4 -14 -6 -27 -47 -44 -44 -37 -4 34 24 41 69 56 68 63 74 87 112 121 94 73 64 59 86 78 57 47 41 51 58 63 66 65 56 50
221 164 174 151 169 226 170 104 49 77 108 94 53 71 60 51 28 -27 -25 1 -23 -79 -100 -82 -50 -40 -33 -8 16 43 69 50 61 50 50 76 86 92 82 91 81 65 103 102 93 78 64 65 64 58 54 48 45 57
239 218 242 364 279 224 174 141 134 115 99 67 58 51 65 29 -24 -25 21 12 -47 -79 -67 -79 -72 -48 -16 -26 -12 -14 -4 10 36 46 53 49 62 83 100 94 71 75 105 108 113 100 77 70 66 62 57 58 56 57
210 264 300 250 200 170 132 109 73 62 66 77 110 94 55 43 37 71 31 -13 -53 -47 -33 -45 -46 -53 -22 20 -3 9 41 43 44 31 22 27 49 72 89 112 134 131 133 117 101 97 84 75 69 61 60 63 77 88
304 299 297 213 196 132 94 110 117 121 132 158 140 147 143 123 92 34 -38 -8 24 17 -36 -42 -11 32 31 54 68 70 83 111 128 91 74 63 69 69 95 106 113 115 111 96 67 70 73 79 79 78 80 94 100 107
256 199 173 175 186 173 196 183 158 132 128 153 157 157 125 110 73 123 101 59 -14 -54 -46 -63 4 72 41 55 75 83 132 153 151 155 137 99 75 78 80 98 101 100 103 97 91 95 100 122 128 127 122 119 114 118
250 256 210 199 174 198 195 186 175 157 174 178 221 228 30 49 45 95 101 88 28 -15 -24 -13 13 57 47 44 73 77 65 103 151 167 181 153 127 106 95 96 104 111 106 98 99 103 111 121 117 115 109 111 114 116
260 277 293 238 202 157 152 138 155 159 178 228 231 261 275 216 30 -27 57 73 48 51 49 24 13 8 46 49 95 107 126 122 133 121 106 113 111 103 102 102 111 119 120 113 110 107 108 104 101 102 98 100 89 61
284 331 347 279 235 209 176 146 110 120 149 139 116 142 105 81 13 37 86 128 107 66 34 49 83 94 77 64 63 106 124 112 99 96 87 78 70 80 106 122 125 140 143 147 140 136 104 83 78 73 53 33 30 30

GFSWCAN_con_3kmhel_039.txt.gz
Helicity
51 52 64 51 43 11 15 29 37 29 15 24 21 15 30 40 30 32 15 -12 -24 19 76 8 30 68 68 80 104 123 105 103 139 115 110 102 64 50 68 53 49 51 62 58 46 54 40 70 92 87 102 88 70 84
53 57 49 58 50 31 36 40 50 27 14 27 24 20 25 7 33 46 35 50 -12 -5 51 43 45 41 43 55 90 97 138 127 190 151 141 138 95 117 61 74 68 74 68 63 50 53 45 18 95 122 102 78 62 56
48 48 57 58 42 21 53 61 59 40 56 49 65 58 29 23 -4 18 59 54 -17 -23 52 11 33 74 69 51 73 113 123 160 177 147 182 185 165 104 91 59 64 54 62 86 65 29 22 38 35 69 84 71 69 76
34 43 46 60 30 13 39 51 44 63 59 42 61 44 26 9 6 30 57 58 -2 36 45 54 54 35 18 25 46 43 58 112 95 48 196 232 191 135 98 118 65 78 80 60 52 33 59 48 42 44 50 53 45 47
18 28 32 40 11 25 54 60 75 69 30 31 57 28 16 9 4 41 61 57 29 4 -6 1 38 42 16 2 23 49 70 101 146 145 64 209 290 171 176 149 92 99 75 84 64 38 33 67 59 100 65 45 52 53
16 11 13 10 -10 38 81 77 65 49 15 11 6 18 11 -14 26 37 8 20 1 -12 31 15 -11 -28 -0 36 45 72 105 152 196 257 216 16 75 333 173 113 74 32 35 42 50 71 101 105 93 80 63 53 50 42
14 14 12 -4 9 90 77 74 45 39 15 -2 -22 -6 -6 -3 46 21 26 29 25 -12 14 -3 -14 3 32 34 60 106 144 159 132 151 151 129 -45 61 183 146 103 51 42 70 96 90 71 64 74 61 60 49 40 36
8 2 -11 3 46 82 77 53 30 1 -14 -16 -18 4 21 54 37 34 13 7 48 1 -9 -5 -14 3 73 72 86 148 143 139 97 71 43 74 -53 -190 121 92 81 60 59 64 70 108 125 85 54 50 33 19 15 17
-15 -32 -23 -8 43 93 70 45 33 2 -28 -31 -1 48 38 35 7 28 -12 -23 84 -2 -5 -13 19 12 65 82 117 110 123 108 53 32 26 33 -173 -103 70 106 46 69 51 59 77 77 70 54 53 34 28 28 14 21
10 -12 -16 13 42 71 71 48 36 25 23 38 41 -8 -25 44 26 -10 -0 -5 5 11 1 3 27 70 77 74 117 138 161 132 153 103 20 -38 -152 -71 46 47 46 69 68 60 55 56 60 42 38 51 51 39 25 24
7 18 29 25 31 48 51 61 52 30 50 64 15 -29 11 12 13 10 9 6 13 12 14 12 30 70 90 66 93 131 161 117 79 6 -2 -20 6 20 67 67 76 71 76 66 58 44 41 47 46 53 51 45 52 69
11 35 22 36 22 31 46 54 45 69 79 82 50 34 -0 -30 -18 -5 29 29 25 39 6 12 31 30 25 31 48 65 58 24 -3 16 1 15 4 17 34 74 84 69 72 68 65 58 43 16 18 40 56 54 52 72
43 26 19 32 29 27 60 47 46 65 101 77 36 -3 -52 -66 -41 -10 23 10 19 24 20 49 67 18 1 16 9 18 16 17 -5 -1 10 22 -4 7 21 43 56 72 82 87 83 56 25 8 -2 20 32 13 -3 11
33 32 37 51 44 48 53 32 36 61 84 96 51 -31 -55 -84 -65 -58 -41 -15 8 2 -4 8 46 6 16 14 19 13 7 4 16 19 29 15 17 31 43 62 80 91 77 65 58 39 23 9 22 40 48 52 59 58
45 18 30 58 69 76 68 76 70 67 89 93 107 57 -6 -7 -30 -30 -7 -18 -21 -19 -15 6 -4 -6 13 24 25 29 13 9 -3 1 41 10 18 35 50 68 87 90 84 85 72 52 37 26 21 2 -8 -25 -28 -17
66 74 47 83 83 82 76 58 47 59 73 75 78 97 113 19 -12 -3 -36 -29 -14 -41 -37 -30 3 19 26 48 50 45 41 43 30 27 26 36 44 38 45 62 82 103 109 116 102 70 32 8 5 -8 -9 13 11 12
54 57 73 103 139 132 79 61 66 87 98 81 85 75 105 101 2 18 21 4 32 -25 -33 -27 -6 40 65 56 68 58 60 50 35 33 23 16 44 59 56 74 93 95 89 73 49 38 10 5 -2 2 23 31 24 21
78 73 109 139 118 82 63 78 82 101 84 85 86 98 91 116 111 28 32 41 23 12 -5 -17 17 36 38 62 36 -4 -20 -12 12 45 48 37 60 56 42 46 57 60 52 47 35 17 8 10 11 10 -3 -6 -13 -3
80 82 84 81 71 83 71 60 62 124 144 93 72 85 91 91 94 77 44 51 58 67 35 15 -8 20 13 27 33 5 -17 -52 -26 19 25 11 24 32 50 61 57 48 45 38 29 29 31 32 32 36 40 42 34 34
135 117 93 98 59 95 93 117 122 132 149 77 75 94 89 86 123 99 82 63 69 69 57 58 62 51 47 24 23 17 63 57 38 76 92 72 69 77 69 71 58 58 44 35 30 28 32 36 46 55 57 59 41 34
216 147 126 107 93 57 78 120 123 115 96 79 112 82 84 108 119 112 103 81 72 87 73 52 45 34 34 28 39 30 -4 31 26 47 55 43 54 81 92 85 76 59 45 39 39 42 44 52 67 69 59 52 42 33
187 169 173 146 114 115 153 171 147 125 131 122 73 94 87 85 106 102 80 76 51 50 45 59 51 42 9 3 5 38 35 23 13 47 65 79 61 60 76 85 91 70 61 60 59 55 59 60 61 56 43 39 44 37
173 180 165 155 163 159 149 137 111 141 147 108 101 76 70 86 86 61 67 47 26 21 32 46 33 54 16 11 3 21 42 39 22 47 78 77 75 84 87 87 96 97 90 79 73 66 59 51 45 39 41 44 46 41
192 180 215 230 212 212 158 145 153 171 124 143 145 104 84 89 82 95 83 73 40 34 15 -4 -4 13 -11 -19 -14 6 48 44 42 66 68 81 83 73 75 80 79 81 94 109 88 74 61 50 38 34 37 39 38 42
201 178 218 246 223 217 228 184 185 186 162 137 114 84 69 73 89 96 87 77 83 45 7 -23 -39 -32 -32 -34 -47 -20 6 31 49 82 69 73 83 94 83 79 77 83 108 101 83 72 60 58 48 40 41 40 45 49
203 146 143 149 201 246 213 181 144 93 94 88 78 105 103 87 82 71 68 75 119 47 -11 -46 -65 -50 -33 -36 -40 -44 1 37 57 63 74 59 65 74 74 74 63 54 95 100 103 90 80 80 67 58 54 48 45 55
201 168 163 212 249 252 219 197 190 152 116 96 98 94 88 75 45 69 87 102 148 37 -14 -33 -66 -57 -31 -23 -26 -15 -3 21 12 41 49 56 55 56 64 71 62 75 90 92 100 96 89 86 79 72 66 67 63 57
162 205 251 232 260 246 210 206 155 118 96 76 86 93 91 77 73 88 86 89 16 -18 -24 -54 -50 18 30 -10 -14 3 -4 34 49 46 36 23 42 50 54 71 88 80 103 113 114 115 105 98 93 87 82 76 74 68
226 259 288 296 267 209 184 197 188 168 166 170 142 151 143 119 96 66 39 47 26 -10 -39 -53 4 44 58 55 29 54 80 103 67 34 18 30 50 68 108 125 124 126 128 121 92 93 97 99 92 88 77 80 82 85
230 269 278 289 276 223 243 217 187 190 185 196 179 148 130 132 123 127 148 136 95 38 40 51 38 42 27 16 -6 16 119 170 193 153 61 47 79 126 136 141 126 122 129 128 123 117 98 97 93 116 125 123 117 116
228 249 248 227 232 221 197 207 187 170 167 165 181 207 131 110 49 104 164 175 149 119 84 50 49 64 53 24 56 15 5 64 95 116 140 207 191 156 151 147 143 144 138 128 118 107 102 105 108 111 108 106 104 101
195 217 242 209 196 180 168 169 173 175 194 206 209 193 193 151 44 -42 153 170 123 110 39 80 29 20 70 105 111 100 78 99 71 65 77 123 135 129 128 134 140 138 133 123 124 123 120 115 119 115 110 100 103 97
178 189 200 172 143 143 192 160 175 189 183 194 202 200 208 191 141 133 113 145 192 189 161 110 82 58 58 53 57 82 108 109 85 95 108 99 95 96 109 117 121 127 133 132 124 122 107 97 97 103 103 88 70 66

GFSWCAN_con_3kmhel_042.txt.gz
Helicity
30 35 44 38 32 35 36 54 48 52 42 33 31 27 43 37 35 37 28 61 26 13 24 26 64 68 81 80 116 125 112 90 99 110 100 88 75 62 68 59 63 64 63 70 70 54 30 62 70 77 79 71 62 79
28 34 46 33 40 38 39 50 55 48 40 49 51 70 57 56 48 48 42 66 49 33 47 26 28 61 83 75 86 90 108 113 151 141 158 128 118 107 86 68 117 79 71 57 47 34 29 10 56 127 103 70 64 70
28 38 29 35 35 22 23 41 47 55 62 47 59 63 49 40 22 41 62 59 35 28 59 14 32 53 60 72 75 96 108 115 113 96 121 140 138 128 124 83 102 75 47 71 101 39 44 39 76 85 74 76 69 72
41 29 26 23 26 17 12 27 28 42 75 47 55 71 41 26 23 29 50 83 37 39 32 20 21 2 17 40 64 82 114 94 80 26 85 140 164 195 141 90 96 127 78 97 78 42 55 45 57 85 80 79 81 78
31 19 13 10 9 4 8 10 41 76 60 60 58 47 39 34 16 44 68 48 27 15 18 63 10 -10 -1 -1 1 15 26 45 73 109 135 149 150 131 97 98 123 169 126 144 68 27 70 57 99 125 95 85 84 63
16 14 -2 -1 3 -2 8 41 49 65 55 49 46 43 40 30 36 47 28 45 37 -9 15 -10 0 -9 -11 1 -3 12 26 40 103 142 172 163 191 187 234 183 144 122 114 65 73 107 139 186 195 183 133 104 81 57
15 14 -3 -8 -5 -3 11 13 56 64 60 54 60 44 30 20 48 21 22 53 42 -7 -5 10 3 1 16 20 32 51 68 92 106 139 177 179 183 144 102 166 221 56 93 140 140 151 129 124 112 112 101 84 60 35
18 9 3 -5 -40 -38 -30 -1 20 46 45 53 60 72 65 55 50 17 23 -14 2 -3 0 12 6 13 29 21 44 89 104 128 105 95 131 88 92 137 127 8 78 159 193 178 155 150 139 121 104 94 72 53 47 35
14 4 5 -4 -2 -3 -6 -6 24 49 62 85 101 93 44 10 20 35 17 7 32 4 6 -1 5 15 39 56 109 108 146 140 112 152 197 95 56 98 -24 -89 161 221 117 59 102 93 95 105 95 63 56 57 43 38
21 13 11 17 38 20 7 4 20 46 84 111 83 72 51 3 2 13 7 -10 -1 17 13 6 -10 -1 45 55 73 80 138 126 96 84 155 206 190 229 -62 -28 135 133 115 91 78 70 71 64 58 62 49 46 32 20
28 21 30 37 37 16 -1 -1 -3 22 83 93 57 52 45 33 -49 -53 -32 -13 4 4 10 13 29 60 53 52 56 78 83 97 105 110 86 73 23 -42 -31 97 263 125 72 72 64 49 46 46 51 43 43 42 51 56
25 28 42 47 41 28 13 10 3 35 89 88 89 56 66 -6 -52 -118 -83 -54 -31 -11 -12 16 33 37 2 13 32 52 59 67 60 92 65 42 -28 2 62 112 100 59 45 53 66 44 34 33 29 32 44 63 79 72
34 49 51 49 54 37 46 27 27 56 66 80 53 58 82 65 1 -28 -84 -82 -50 -23 -9 11 23 24 -16 -5 9 28 52 58 22 43 30 2 7 15 15 17 50 72 75 74 77 68 61 39 23 23 37 51 61 45
55 52 53 57 65 61 45 41 31 40 38 67 56 80 86 87 88 56 -23 -35 -14 13 -6 -7 12 10 16 6 17 25 41 20 37 31 50 15 9 22 30 32 27 54 70 84 79 60 51 38 46 66 55 47 38 33
47 36 42 35 58 70 75 62 32 28 54 58 59 88 67 85 90 120 125 28 0 -8 -20 11 -27 4 23 9 11 23 23 30 25 26 5 14 26 23 31 41 54 65 77 79 80 61 48 48 65 34 2 -15 -18 -18
54 44 22 44 70 84 73 42 30 43 53 58 53 55 73 75 76 102 121 123 28 -6 -34 -41 -55 -39 13 43 41 21 26 45 35 8 -5 -7 23 19 28 42 63 84 93 116 114 108 70 58 29 8 -13 -6 -5 -6
61 61 63 102 114 97 61 47 63 83 97 93 73 77 87 81 72 93 108 127 131 18 -17 -36 -43 -23 0 18 12 44 69 22 6 37 5 11 6 30 38 48 57 89 104 111 128 75 44 44 22 14 -2 -1 17 18
112 76 120 117 95 74 63 74 79 89 91 99 130 133 115 91 84 88 119 149 127 113 27 3 40 36 -8 15 35 -64 -117 -95 -111 -59 -19 2 16 40 47 54 51 56 56 63 63 47 41 42 27 13 9 10 16 24
112 92 92 91 96 89 107 113 103 107 78 97 116 118 113 88 89 90 119 136 153 157 118 53 18 37 12 -2 -6 -26 -61 -48 -14 7 5 24 17 22 25 47 56 64 51 29 35 38 30 19 14 19 20 23 21 24
130 118 124 129 115 145 162 158 122 126 98 78 90 96 96 73 101 104 121 140 136 138 141 140 83 93 90 42 -11 -32 -29 -20 -9 13 1 8 42 80 103 95 87 62 60 53 39 23 25 22 22 27 29 34 45 56
236 176 179 150 152 177 192 176 164 142 90 110 50 32 42 92 104 118 119 126 121 149 157 119 80 58 51 28 17 -8 -13 1 20 32 47 34 24 36 64 95 118 93 75 55 42 31 25 23 28 37 39 41 44 49
198 189 195 180 198 202 217 189 182 140 126 98 72 77 88 128 145 133 104 108 100 89 96 91 82 49 23 17 0 5 0 10 11 24 36 42 54 73 60 66 100 88 74 61 51 41 39 39 42 44 48 45 55 56
227 222 213 221 275 328 302 189 174 143 115 82 84 92 68 103 117 95 81 70 72 65 91 98 74 37 10 15 -6 -24 -20 -16 3 26 45 44 69 70 71 71 92 90 78 65 79 73 62 48 44 43 45 51 56 56
207 280 356 323 332 351 295 239 227 189 149 130 127 139 112 128 149 131 113 122 115 91 141 104 96 54 15 -21 -16 -18 -40 -35 0 15 29 50 59 91 67 65 73 83 90 80 103 90 75 57 45 55 56 61 52 43
272 191 211 261 265 269 250 244 244 211 166 142 161 136 112 162 143 139 108 83 107 87 163 133 86 9 -30 -40 -27 -26 -9 9 -33 5 24 50 81 119 101 81 63 61 98 110 94 93 85 79 76 70 65 59 42 36
223 165 231 236 233 218 190 206 148 108 158 166 114 120 169 145 144 85 50 41 86 143 186 121 55 -17 -57 -60 -36 -30 -20 34 5 -22 -7 57 104 130 110 83 81 68 95 109 109 86 76 92 89 75 74 47 24 44
292 257 190 189 214 214 183 163 160 146 143 136 137 171 153 139 76 62 52 43 78 179 123 45 14 18 -16 -48 2 17 56 83 57 34 37 29 26 56 90 103 95 90 76 80 86 102 97 93 98 89 75 75 68 57
163 187 240 221 215 193 167 181 172 143 141 168 225 181 168 130 91 67 13 19 39 31 16 -5 -22 50 110 95 24 15 48 87 84 48 19 4 35 82 93 90 117 88 86 89 88 98 106 107 107 102 96 83 70 71
258 273 267 192 198 172 173 227 250 287 269 250 196 178 180 182 126 57 44 60 45 18 -37 -53 -17 115 130 153 142 129 155 175 45 -22 -41 -12 23 40 99 127 134 136 148 135 93 101 97 106 102 94 73 81 82 79
208 205 194 188 215 232 248 275 273 249 233 222 213 199 167 152 154 194 171 160 107 65 96 123 115 107 68 62 24 38 114 170 163 68 0 1 43 103 140 148 146 152 169 163 148 151 125 121 125 127 120 114 120 117
165 195 224 232 233 247 253 277 239 216 228 223 254 276 200 148 117 137 136 135 142 136 133 114 78 111 87 58 37 -6 -11 64 128 100 100 91 106 134 139 129 139 169 181 173 159 144 135 131 116 105 103 100 97 105
191 203 206 182 154 170 154 149 165 201 220 257 275 336 332 327 247 104 174 194 194 181 130 114 130 91 98 89 99 90 12 73 105 92 64 82 129 135 135 165 181 170 158 148 136 128 121 110 116 116 121 111 110 107
230 204 187 157 158 145 119 124 118 144 198 261 267 301 328 308 139 190 227 212 145 123 146 164 196 180 152 118 79 53 64 83 60 66 77 82 91 103 122 128 131 131 127 126 128 133 123 119 118 114 102 100 99 93

GFSWCAN_con_3kmhel_045.txt.gz
Helicity
30 21 13 28 46 47 36 43 40 42 56 58 55 71 66 66 67 52 37 45 27 38 53 29 61 42 93 98 122 145 126 119 131 123 114 95 71 57 64 54 41 75 61 62 60 41 31 24 58 29 19 34 37 62
23 6 13 37 48 40 33 40 41 43 53 53 60 50 52 62 41 62 65 84 69 56 51 24 23 32 42 59 77 101 121 114 140 136 166 129 121 109 84 77 108 67 89 40 54 26 14 6 15 46 35 39 30 45
11 9 17 34 46 36 25 25 25 39 56 53 54 39 51 42 41 63 94 93 91 55 41 23 31 53 64 40 42 85 89 88 90 84 97 109 102 117 94 82 104 91 88 70 73 52 45 35 49 48 59 55 57 49
24 23 19 27 37 34 23 14 14 47 72 55 52 29 9 37 35 50 66 76 61 56 14 14 -19 17 16 45 44 95 90 101 64 23 35 76 97 127 137 152 117 103 132 105 90 55 49 37 52 73 89 86 89 92
39 30 14 19 27 23 12 27 75 90 75 48 37 16 29 49 26 57 55 56 73 40 19 -25 -9 -48 -34 -17 -23 -1 0 4 5 14 67 77 117 107 80 17 85 141 116 151 98 35 64 52 60 124 126 93 83 76
42 22 13 16 24 28 36 28 53 63 62 58 44 46 37 35 47 47 29 66 75 49 -18 -44 -31 -21 -13 -5 -8 -7 5 21 45 46 54 90 168 185 183 159 148 30 79 94 88 88 52 96 149 149 147 116 98 80
29 13 14 22 35 34 34 54 59 55 54 58 64 34 51 62 33 28 25 60 39 19 -8 -19 -20 -12 -5 -18 -8 12 37 55 71 54 87 114 129 227 216 202 189 233 199 164 81 195 143 128 110 161 137 116 99 79
25 15 17 17 22 42 50 47 51 51 54 68 65 62 71 107 75 33 22 18 -1 -6 6 19 -6 6 -19 -3 2 35 54 93 85 73 146 132 129 244 197 204 137 -62 185 179 202 214 137 139 154 151 134 105 89 67
12 9 13 15 27 37 32 25 33 40 29 48 63 65 55 47 18 -14 4 5 -23 -5 10 4 19 14 10 -3 17 28 52 54 63 91 130 154 166 270 210 91 224 6 25 288 131 145 135 130 112 100 86 79 63 54
10 7 11 24 39 39 21 5 13 30 42 43 54 18 18 25 46 28 -64 -42 -41 -35 -21 -20 -15 14 42 17 3 23 58 47 60 59 127 116 112 227 191 127 105 -113 282 150 58 94 108 101 71 69 65 55 46 34
14 -1 15 42 48 28 17 0 5 16 56 42 14 17 36 33 54 49 29 -44 -57 -41 -22 -15 8 33 27 13 17 23 22 47 41 56 103 75 75 38 -27 39 -9 54 111 88 81 93 93 65 55 54 58 57 43 57
17 8 30 47 42 36 31 13 1 9 45 54 46 19 27 33 63 97 76 35 -30 -38 -8 20 21 5 -6 1 -5 -1 12 35 35 128 60 54 30 52 13 8 39 85 113 67 64 74 57 47 35 28 26 39 47 48
25 34 42 53 46 34 37 42 33 36 40 35 42 35 31 9 41 112 79 43 69 13 0 21 18 -4 -17 -7 9 1 6 30 59 67 31 46 -11 22 31 5 12 63 77 71 57 42 42 41 44 41 40 39 31 30
54 51 45 50 45 35 50 43 32 26 36 43 45 32 58 51 56 81 116 123 114 131 55 -25 -19 -13 -9 4 6 6 20 22 28 26 34 -25 -24 -26 15 19 9 29 38 52 66 58 67 63 49 33 38 39 37 29
74 64 66 59 54 47 50 34 17 14 44 49 55 63 60 59 54 71 77 85 95 115 126 86 -42 -37 -35 -23 8 8 11 22 77 83 79 14 -4 -26 -6 24 31 29 43 53 48 58 73 64 46 41 43 19 0 -3
93 90 66 55 70 65 48 39 31 32 53 60 51 59 60 72 63 86 89 79 81 85 84 89 32 -56 -45 -11 -4 16 42 104 62 46 54 43 -10 -20 -10 2 29 30 41 62 63 63 94 76 45 27 15 -3 -12 -5
116 116 66 109 102 89 77 51 55 76 78 77 75 62 86 91 103 104 115 78 84 91 110 79 89 28 -17 -18 -13 -46 -109 -72 -38 -40 -32 -17 -4 -23 -11 14 20 37 48 64 73 112 103 59 52 44 31 4 -4 6
139 86 127 121 115 79 66 79 90 117 125 79 103 55 64 85 115 118 109 102 96 86 111 115 105 130 79 10 15 -19 -75 -62 -77 -56 -29 -7 -15 -22 22 23 36 31 31 32 24 34 77 69 39 54 35 17 13 17
92 99 105 107 83 94 97 110 117 134 127 118 67 49 57 73 94 109 118 111 109 133 119 132 100 119 105 117 1 -21 -64 -89 -57 -15 9 13 5 14 15 41 44 59 49 32 20 31 46 51 42 32 20 20 18 23
136 149 148 131 121 145 158 175 163 181 154 125 121 70 39 62 107 121 122 121 123 119 165 177 171 151 142 122 58 -29 -30 -43 -44 -28 4 17 10 30 53 62 57 58 57 34 32 56 79 59 40 29 22 16 20 22
283 190 186 163 185 193 218 199 242 184 167 170 124 100 83 107 124 129 104 131 150 230 207 160 135 107 98 66 63 13 -9 -12 -13 -10 6 21 23 19 55 69 67 50 60 58 41 36 32 38 28 24 24 24 24 26
195 159 192 174 213 234 279 277 274 232 210 178 143 117 123 127 83 60 119 130 168 183 189 127 105 94 76 75 67 27 -22 -31 -40 -25 -16 -11 14 47 59 77 93 71 62 74 78 62 44 36 35 31 29 25 32 36
225 201 218 226 305 290 264 215 251 228 215 179 170 173 110 96 83 124 114 124 139 100 104 88 93 100 93 80 56 8 -27 -32 -28 -32 -20 -4 17 31 37 49 84 94 79 69 82 73 69 52 45 43 37 38 44 45
208 227 235 286 307 297 266 249 257 263 219 224 215 193 151 152 183 233 211 196 200 145 126 79 131 112 104 94 57 -11 -49 -35 -29 -19 -46 -30 2 53 19 28 51 80 90 87 71 86 87 83 65 67 59 59 55 49
340 261 231 232 243 263 236 246 260 233 212 199 211 180 159 186 214 234 249 215 230 247 180 120 133 138 111 79 47 5 -28 -7 -32 -22 -22 -25 -18 4 41 31 47 68 76 90 89 93 90 88 82 84 81 77 56 46
185 150 191 210 228 206 194 206 142 110 143 157 108 120 180 186 215 160 217 135 106 68 149 116 145 111 76 48 26 16 -22 16 51 27 10 36 27 13 -1 19 62 82 82 102 106 89 83 92 91 84 85 59 27 47
234 233 204 158 209 209 179 166 157 152 147 111 119 159 158 174 154 138 87 55 46 24 43 118 128 44 -14 -30 7 39 48 97 73 45 61 107 87 86 59 37 24 64 70 89 104 106 87 86 101 106 102 100 80 70
207 191 200 208 232 207 186 168 129 79 73 100 168 193 162 182 205 128 123 42 38 72 82 61 54 35 1 23 49 60 51 64 6 23 34 61 73 42 72 107 119 80 103 107 94 96 95 91 93 90 92 84 69 72
191 229 232 191 201 161 130 142 132 158 213 254 239 241 249 244 221 172 9 56 151 148 60 6 -10 47 31 45 48 87 112 96 -2 -41 -18 7 16 28 56 83 117 141 181 177 93 100 109 126 114 107 91 91 80 81
163 186 184 177 182 160 175 202 202 223 218 248 250 228 181 180 221 240 218 224 222 96 74 89 66 76 62 54 43 35 82 102 110 42 -3 -2 9 41 52 53 92 132 165 180 183 201 138 171 166 160 125 105 95 90
166 169 168 178 170 192 189 185 191 196 223 229 268 277 221 176 111 180 249 265 236 193 156 129 112 121 158 143 131 78 15 26 45 44 27 24 9 9 29 68 105 133 159 164 164 170 183 168 140 118 101 81 72 75
153 166 184 166 126 124 155 150 176 200 214 257 250 287 315 360 302 164 191 189 192 188 190 187 211 197 183 162 137 134 52 61 35 48 11 25 29 28 88 109 132 155 154 145 146 147 141 130 120 107 100 93 99 101
159 136 143 145 137 117 124 154 170 161 186 232 276 294 293 229 144 247 203 202 197 190 165 125 126 117 86 87 94 85 83 69 62 43 20 34 57 64 92 115 116 117 118 120 125 129 121 122 123 119 106 95 96 102

GFSWCAN_con_3kmhel_048.txt.gz
Helicity
70 36 71 74 41 17 40 41 44 24 30 37 38 32 33 33 33 29 34 32 45 50 52 60 56 55 45 98 117 156 141 114 116 105 92 83 61 62 68 52 43 52 49 59 66 49 33 19 56 40 18 30 36 32
49 54 69 34 7 26 33 43 41 33 42 51 45 24 29 19 28 49 52 58 73 53 33 22 12 17 25 62 79 105 131 138 142 141 134 102 106 93 72 63 110 69 88 34 49 34 26 10 13 21 30 29 31 37
51 62 49 1 13 20 29 30 30 35 53 59 47 33 20 23 9 42 46 54 51 33 -1 3 5 28 41 33 66 90 85 91 92 120 115 104 101 99 93 69 93 91 113 98 78 46 43 33 33 35 29 24 38 47
52 61 27 8 9 21 30 26 40 70 85 68 51 25 10 14 21 38 43 31 38 15 23 -12 9 17 4 30 61 85 33 52 33 10 34 66 83 94 75 88 90 108 118 118 108 87 75 52 40 53 57 61 70 71
56 56 15 3 13 21 26 38 62 75 76 78 65 33 23 -4 31 35 26 19 17 5 -33 -64 -49 -71 -58 -28 8 35 56 58 15 21 -3 -29 27 64 72 62 81 143 159 154 96 33 81 93 75 92 112 78 73 88
62 52 14 15 16 21 29 43 56 63 61 64 48 20 -2 2 58 21 32 39 23 7 -14 -27 -1 19 -16 -18 -14 -7 0 15 35 34 25 28 62 53 74 125 102 77 167 116 72 122 86 70 62 78 110 102 102 94
87 45 24 11 14 26 31 43 57 61 58 51 36 23 18 33 26 43 40 26 17 -5 17 -4 -18 3 11 -10 3 6 17 15 34 35 29 40 64 114 144 173 106 114 115 131 158 97 89 118 64 114 152 148 121 102
77 48 18 7 18 23 25 33 55 67 49 35 38 57 64 46 23 4 -11 -20 -24 -10 1 25 -1 7 18 -4 2 -13 5 13 17 17 34 55 60 112 69 114 70 139 127 136 97 286 126 135 184 190 167 133 117 96
67 33 22 16 17 14 8 27 47 69 37 50 58 44 45 24 -5 -4 4 -15 -46 -56 -14 -6 3 -9 25 2 -5 3 13 -2 15 31 39 69 46 33 156 132 132 101 30 24 125 291 204 156 160 161 144 126 95 82
52 41 38 16 16 10 20 20 19 55 78 104 31 27 27 60 63 34 55 46 11 -25 -30 12 12 -9 30 19 -5 18 17 13 24 6 52 40 27 67 94 40 78 79 1 27 232 256 105 77 122 129 111 84 74 63
54 56 46 37 26 27 26 14 25 73 29 31 23 31 45 41 65 76 45 40 71 47 49 43 43 63 3 17 15 0 7 17 31 2 42 17 17 15 25 10 17 47 92 162 119 128 126 66 54 79 71 80 83 60
71 59 62 44 44 37 41 29 29 12 16 40 53 32 31 38 45 61 46 51 72 71 118 119 74 71 1 10 4 -3 8 17 3 74 23 9 6 4 -18 0 -1 8 69 90 50 48 68 73 76 67 65 66 64 56
72 86 60 55 49 60 60 60 52 61 47 38 32 41 35 17 15 66 31 29 59 104 125 160 137 99 -16 -7 2 11 11 11 76 17 28 53 65 7 -28 -8 13 26 44 60 63 57 87 99 104 71 69 75 70 56
81 79 54 50 61 66 61 45 38 46 64 47 36 43 54 32 34 58 76 85 74 97 83 124 140 139 72 -1 -8 8 18 17 62 149 82 100 102 50 -20 -26 -7 22 41 63 38 58 70 78 84 70 57 51 44 39
117 78 65 69 77 66 57 40 42 44 59 47 52 61 69 52 52 60 69 71 83 91 81 91 113 118 78 24 -15 -14 11 100 106 127 93 87 49 24 1 -16 -10 -2 18 42 53 78 94 122 107 67 53 53 44 37
119 128 134 79 78 64 54 60 72 57 80 76 83 131 98 89 57 57 73 78 89 79 79 68 49 99 96 97 71 -24 -60 -87 -82 -99 -69 -26 5 -9 -4 8 3 -16 -5 -1 25 44 62 128 129 73 51 62 45 18
143 158 80 100 86 91 95 85 83 103 88 99 115 106 110 97 81 60 64 75 93 102 83 92 93 63 96 112 138 129 19 -17 -34 -49 -54 -62 -44 -22 -17 -6 2 23 54 40 33 40 44 72 117 84 56 48 36 6
173 112 119 106 114 112 115 115 108 107 111 119 141 101 89 88 96 81 71 96 113 105 125 105 103 138 113 145 133 125 107 41 -34 -40 -39 -28 -17 -20 -28 1 -2 30 58 32 23 22 32 57 82 89 65 75 45 19
119 111 108 110 94 108 112 125 129 115 115 134 132 111 106 77 63 70 79 102 146 157 147 107 105 120 78 103 112 126 107 77 1 -13 -3 -4 -23 -10 -12 2 34 67 37 27 14 18 23 26 43 77 73 42 38 31
128 124 132 103 89 115 137 142 127 121 94 132 149 116 98 70 85 91 104 106 127 131 162 172 175 159 193 150 129 111 89 76 61 3 1 -24 -15 5 15 18 42 59 63 40 23 10 12 42 67 77 59 45 44 28
236 171 155 137 155 160 149 145 163 124 130 147 153 154 125 148 150 142 124 118 176 160 144 143 174 179 151 114 98 83 72 61 48 19 -19 -13 -16 2 30 38 35 43 54 59 47 37 20 34 38 50 49 45 27 15
207 172 167 165 158 163 187 194 157 139 170 210 229 190 165 166 157 148 141 193 199 134 159 194 225 188 121 95 79 68 51 35 24 28 -24 -54 -49 -19 23 32 24 32 43 63 65 61 52 39 42 46 41 36 39 40
215 180 163 158 187 221 185 181 173 178 211 219 214 189 166 162 138 145 177 143 186 244 249 224 165 150 96 87 80 61 52 57 38 12 9 -7 -29 -39 3 12 1 16 29 47 72 61 54 33 43 53 54 52 53 49
168 190 180 180 283 278 211 206 199 204 204 204 220 202 181 170 187 249 230 224 278 257 251 256 241 167 109 106 93 98 78 91 70 36 -5 -21 -8 -15 -35 -12 4 15 19 51 61 60 56 58 50 68 71 73 68 63
232 204 230 303 266 250 220 231 225 208 190 203 240 196 192 196 241 248 249 183 152 181 194 196 187 143 129 115 121 125 103 110 56 19 30 -27 -13 -10 -15 -33 -34 -10 23 39 50 70 72 71 70 76 75 79 70 60
228 198 261 212 232 230 188 170 138 142 183 179 129 162 178 213 245 220 199 122 133 105 89 104 139 140 97 103 100 80 54 53 55 32 37 -4 -8 17 24 18 4 -35 19 40 64 52 56 68 67 63 67 59 43 60
249 225 204 234 216 195 170 154 157 171 181 163 157 185 190 255 209 180 135 125 133 63 -3 14 94 96 120 64 34 17 18 61 44 -2 -23 17 39 72 80 49 54 63 41 18 41 69 67 70 75 77 72 81 81 88
206 226 188 194 216 176 192 186 185 145 117 124 168 201 213 218 231 181 158 139 181 153 99 66 103 141 46 7 -12 -19 32 68 28 -12 -34 -31 45 37 43 59 38 -1 4 56 60 71 90 91 87 80 76 65 62 78
149 154 197 182 207 156 130 153 159 156 200 250 224 224 235 254 247 228 223 254 223 229 160 93 38 133 123 85 41 60 103 85 34 -10 -49 -64 -50 -11 -21 11 28 35 57 58 34 87 120 133 127 123 108 108 95 108
133 141 165 149 164 144 123 158 175 174 192 241 241 222 212 217 231 224 215 187 243 209 170 144 175 197 159 82 11 10 74 103 124 78 17 -19 -48 -55 -27 5 20 -13 0 62 110 147 127 171 182 209 170 151 147 129
128 147 158 160 147 135 138 129 129 150 193 208 266 272 238 217 164 183 214 201 192 206 215 203 203 257 268 235 202 128 77 109 104 79 79 63 31 15 1 -5 18 46 73 112 148 155 182 195 173 160 146 123 103 94
112 115 119 105 85 86 108 116 135 167 162 185 202 299 295 328 309 257 235 227 233 238 223 202 194 179 186 167 129 113 96 76 69 75 64 66 54 37 21 21 63 95 115 139 145 159 171 161 147 133 122 106 99 91
131 123 111 91 93 80 93 116 114 97 138 202 235 192 202 240 201 146 154 132 120 52 -26 -53 -31 58 -6 -46 -73 -11 62 50 36 37 30 28 33 26 31 57 89 107 120 127 132 141 139 140 130 120 107 97 92 91

GFSWCAN_con_3kmhel_051.txt.gz
Helicity
140 130 101 69 66 64 60 38 23 16 22 37 50 52 48 46 28 26 20 35 75 75 46 45 30 13 -1 47 101 178 135 121 124 91 69 58 44 54 47 48 40 52 45 40 59 50 20 20 44 45 19 13 17 26
154 121 99 65 62 55 46 21 2 13 18 42 49 48 46 51 40 36 44 46 30 43 35 15 11 1 -9 11 56 137 142 156 148 134 124 95 73 68 57 49 81 59 72 46 62 41 22 17 12 12 16 24 23 24
149 103 80 56 51 53 25 -10 -0 17 27 46 53 62 57 57 45 34 42 45 19 34 8 13 11 -2 4 24 45 69 119 133 129 117 119 111 92 73 61 61 76 55 71 83 87 40 25 25 51 38 38 27 26 30
138 99 69 51 44 29 6 -14 3 12 54 44 54 69 85 53 31 29 33 21 4 -13 -4 -11 -32 -16 4 14 36 71 73 93 94 87 75 76 66 76 48 73 52 42 45 44 23 34 44 45 35 51 47 57 49 51
112 89 62 41 29 21 -0 -0 29 56 48 55 73 87 57 44 42 29 32 1 -9 10 5 4 -30 3 -9 -12 3 20 68 74 65 67 46 22 26 49 27 15 87 108 105 56 -11 52 39 40 55 101 67 95 73 81
123 86 63 33 24 20 -1 16 29 33 42 58 71 61 61 54 26 -4 10 -0 -27 -15 21 15 -7 -2 32 -6 -10 1 -18 -2 14 4 11 32 66 62 32 34 13 -9 41 83 61 31 -14 57 40 60 55 73 89 93
116 84 53 40 26 11 7 17 13 17 37 52 55 69 59 36 -11 -1 8 8 -23 -5 15 2 19 18 31 39 15 17 29 25 28 31 49 46 46 72 62 78 14 46 4 -34 14 43 17 54 11 94 97 92 132 140
108 77 54 43 24 13 10 1 1 15 25 40 61 63 64 59 23 3 36 15 22 23 18 28 31 26 7 22 16 15 30 30 20 21 24 38 30 39 10 18 39 59 52 25 29 96 102 72 20 75 146 136 151 139
109 79 73 43 30 15 -0 -9 1 7 9 45 59 36 4 -3 -11 15 47 47 46 21 19 44 47 27 24 22 25 30 27 32 29 26 24 33 34 25 20 36 29 36 37 16 6 61 63 63 79 60 125 145 121 111
97 88 76 56 26 7 -7 -6 -1 3 7 32 -29 -27 -20 8 49 21 42 56 58 74 59 74 84 39 51 13 11 30 24 37 39 38 34 32 30 11 -5 -8 19 30 9 82 63 27 1 -35 79 58 87 141 127 87
112 98 84 53 27 6 -3 5 8 35 -28 -31 -16 -13 15 13 23 20 17 23 45 41 103 136 152 121 77 42 33 11 21 27 50 39 22 35 44 61 44 6 7 13 -0 -2 43 62 40 54 83 75 108 95 88 70
140 103 73 56 42 11 18 7 24 17 4 -7 18 30 7 4 10 26 11 21 47 54 82 108 135 218 111 88 34 7 14 17 28 60 35 95 66 52 50 19 6 17 22 -4 32 15 41 99 85 49 67 79 80 67
118 84 84 80 50 47 35 20 20 47 51 34 29 24 18 5 25 40 22 18 41 53 70 80 88 133 153 105 68 37 14 13 52 37 93 58 65 18 30 17 -0 4 13 37 33 28 46 51 98 112 108 95 94 92
113 117 91 84 96 84 77 65 56 48 49 55 43 49 57 44 35 36 43 46 46 71 71 68 60 85 107 96 76 49 39 11 68 61 36 -4 -9 -12 -6 -11 -17 -12 18 37 53 47 68 79 124 167 180 142 86 69
144 114 101 95 79 74 53 44 67 70 73 61 71 66 71 64 78 76 76 64 49 60 66 56 43 69 59 77 72 75 55 28 25 -43 -11 -33 -51 -66 -47 -29 -14 -13 -5 16 21 40 43 86 111 141 115 72 51 50
143 146 163 80 75 75 73 93 109 88 102 92 95 112 103 110 86 85 76 62 42 62 54 41 58 62 50 87 107 101 133 94 95 86 35 -19 -18 -29 -43 -37 -25 -15 -16 12 18 23 45 68 108 168 156 82 61 58
229 215 93 100 112 124 135 129 117 127 94 103 83 104 99 105 94 83 80 62 62 85 94 107 144 108 135 124 134 90 116 82 99 100 75 37 -32 -28 -12 -18 -22 -10 6 7 15 16 31 37 70 80 152 116 59 59
207 148 152 127 134 157 175 149 120 106 106 83 96 64 77 90 85 78 61 53 82 100 136 154 183 264 265 262 178 136 60 20 76 77 97 87 38 -3 -16 -7 -8 -3 26 22 3 1 -1 25 36 81 102 108 77 52
153 124 108 110 131 169 148 137 130 113 95 79 88 86 91 104 99 99 77 68 97 130 167 194 207 245 180 126 112 85 32 26 42 73 101 82 46 5 -5 -8 6 11 11 22 19 19 13 -2 -0 17 55 93 110 77
147 144 166 130 130 171 150 142 126 116 91 68 99 104 125 141 153 121 121 116 149 158 193 223 233 194 208 207 173 132 112 82 70 85 101 95 68 36 11 2 -1 8 12 16 30 23 33 14 4 27 40 49 71 104
257 169 165 145 178 163 134 103 121 89 84 112 118 158 161 187 198 174 158 170 211 179 205 205 210 165 192 220 205 183 114 120 129 132 101 90 83 68 42 12 -9 10 29 31 28 43 32 43 35 30 37 49 49 52
224 176 190 192 161 144 140 165 123 126 159 178 187 197 208 198 187 176 193 245 206 216 239 237 289 233 200 157 134 114 94 81 74 65 43 58 84 75 44 29 1 9 20 34 41 42 51 54 48 45 52 44 39 37
178 180 181 145 154 176 148 150 161 166 191 192 187 156 165 178 155 164 185 173 215 248 260 224 192 225 209 148 135 130 92 89 88 76 64 55 33 10 20 7 -15 -6 20 31 31 42 44 41 46 57 60 63 62 50
173 245 201 190 230 214 184 207 202 233 249 205 146 142 155 155 178 241 244 193 233 188 152 165 182 142 131 160 156 127 109 161 182 155 105 75 41 18 -3 -0 -7 -22 2 17 19 40 46 50 42 55 61 68 63 54
205 193 193 244 241 225 204 208 244 217 173 145 154 150 174 189 229 258 226 153 129 85 100 88 34 23 93 103 109 141 184 170 174 63 116 77 32 -4 -10 -9 -4 -7 -12 7 8 8 21 39 44 61 71 73 55 49
220 196 202 170 199 173 156 176 131 120 137 132 122 157 190 237 276 206 188 129 90 111 128 104 46 21 45 103 94 109 126 161 143 -0 11 37 -6 -21 -6 1 14 62 27 44 31 7 -2 18 34 34 45 40 25 46
245 226 227 195 193 196 186 189 168 151 152 134 162 215 249 248 169 159 121 110 109 115 169 168 147 159 149 117 123 142 135 204 153 21 -12 -34 -7 37 23 14 14 50 26 27 30 23 8 -1 19 36 42 64 65 72
217 162 156 159 213 199 185 165 149 129 138 151 234 207 194 171 170 140 153 159 161 192 231 230 257 256 195 111 99 103 95 125 136 62 -23 -67 -29 -6 -1 16 -2 -47 -27 -2 14 32 50 36 20 21 43 47 54 72
164 155 192 186 190 166 136 152 147 146 188 232 192 187 191 221 228 238 200 191 244 287 217 165 105 142 160 132 114 120 134 185 104 4 -17 -62 -60 -31 15 33 31 21 4 9 -1 8 26 72 69 75 77 91 96 119
135 139 181 162 164 139 118 128 150 130 140 179 182 181 184 209 220 205 246 207 228 265 269 267 254 226 193 151 120 97 116 147 173 128 38 -5 -13 15 32 17 17 16 3 -2 4 26 62 128 155 177 143 143 154 155
115 154 185 166 132 117 108 98 96 111 144 165 231 252 224 189 144 147 199 236 211 211 230 219 204 209 173 137 127 97 81 68 93 82 72 63 42 34 37 29 23 29 24 20 36 57 100 152 167 157 135 125 124 123
135 127 135 110 81 77 83 106 104 123 131 159 158 224 233 286 246 183 185 97 109 120 128 143 115 91 118 117 118 121 77 46 20 23 22 32 41 38 32 37 44 46 52 70 89 107 127 131 146 139 133 126 121 108
116 107 93 68 68 60 74 86 104 75 103 142 161 174 169 187 153 129 152 111 91 94 77 36 41 40 42 54 58 57 49 60 52 62 71 52 23 18 24 34 42 53 66 90 106 119 134 141 132 123 121 118 109 99

GFSWCAN_con_3kmhel_054.txt.gz
Helicity
356 319 296 171 120 82 70 79 67 77 57 32 29 34 35 26 47 37 32 37 63 59 44 23 -4 -0 -14 3 -3 83 90 117 102 90 94 79 69 69 60 38 26 32 28 27 44 39 14 1 12 13 4 20 9 10
300 221 176 102 121 94 69 64 66 46 27 15 13 29 34 30 36 31 31 7 21 16 26 17 7 -8 -13 -4 -2 45 96 112 122 88 102 82 72 66 58 43 52 37 48 37 45 27 30 21 10 5 16 13 -3 -4
335 237 196 121 105 92 61 63 48 21 8 4 20 28 23 32 33 30 -7 -7 -6 2 -12 17 21 2 -4 -9 -8 -3 73 92 117 133 117 97 71 70 49 48 60 62 67 65 60 33 31 66 63 34 22 34 31 21
250 287 255 98 120 74 62 46 25 -10 -3 -1 22 27 43 37 40 23 -13 3 -13 -23 -15 -0 19 31 7 1 10 18 63 85 86 93 111 92 71 82 62 63 42 53 55 45 32 6 -12 25 70 43 94 94 44 26
394 263 101 134 103 61 63 27 -13 -24 -5 -0 14 19 36 53 88 76 1 -0 4 10 -11 -14 15 22 10 8 -3 16 42 65 64 63 73 87 65 57 41 31 78 42 56 27 8 -3 -35 -28 -2 25 44 67 119 46
405 287 123 146 102 55 40 -0 -36 4 -9 -10 -11 -4 39 54 51 6 10 13 9 25 34 27 28 21 29 32 16 16 -10 -17 10 29 33 33 45 55 54 45 23 32 31 12 42 36 17 1 -37 18 -38 16 72 69
322 162 123 145 75 47 33 -7 -1 -15 -25 -42 -56 -20 2 -7 -26 -4 12 11 24 19 28 26 22 23 22 23 3 13 18 9 18 11 17 34 40 49 36 32 23 22 20 24 52 20 7 35 16 -2 19 44 24 84
328 151 155 116 67 48 13 7 -1 -27 -45 -71 -55 -23 -3 20 -1 3 2 25 28 16 14 38 30 31 35 13 20 13 25 32 33 31 31 33 47 63 68 60 63 28 15 42 54 60 64 55 37 44 34 128 6 114
262 207 159 101 79 38 19 25 -1 -40 -45 -56 -20 -3 -59 -78 -46 -14 13 30 39 24 17 62 48 37 68 39 23 25 16 35 30 32 44 38 49 77 38 46 46 11 -4 9 34 56 82 80 50 46 79 132 -32 83
211 209 141 96 74 32 44 27 -8 -33 -36 -31 -90 -23 -38 -43 -26 -5 -2 1 17 26 42 83 99 77 97 32 11 20 22 31 37 34 53 57 69 60 9 2 -11 -16 -10 3 24 45 74 62 56 61 66 55 -43 57
200 188 116 112 73 74 43 10 -2 2 6 -29 -7 -9 -25 -46 -17 -9 1 12 8 17 59 93 124 91 102 93 42 41 20 29 16 35 41 60 57 21 -1 -8 -28 -18 -16 -5 21 43 47 51 62 29 -5 22 23 46
210 140 120 108 100 61 26 5 19 13 6 -2 36 24 4 6 13 19 8 1 26 26 49 66 84 87 53 56 65 72 40 29 10 23 26 58 22 11 -20 -12 -1 1 -1 -6 5 31 43 31 24 44 68 80 66 55
168 129 152 121 93 34 33 17 2 25 49 80 52 41 20 13 46 33 14 -1 17 35 43 58 54 65 38 50 47 59 67 88 87 24 40 7 -12 -15 -29 -22 -18 -13 -1 3 -15 10 22 47 43 63 61 65 70 76
139 170 150 126 59 46 32 22 40 41 102 86 60 84 60 51 42 25 24 30 39 64 63 60 44 45 53 65 68 102 101 90 93 102 39 32 34 21 -18 -25 -27 -13 -19 -3 -0 -6 14 40 69 72 99 128 156 133
197 160 170 115 86 68 61 47 35 89 131 97 78 90 88 63 97 77 73 74 56 72 83 80 66 77 66 74 82 69 93 116 132 115 141 75 52 52 58 -9 -25 -18 -21 -15 -3 -9 -11 13 54 98 112 117 131 194
193 229 238 101 118 98 114 95 87 111 116 88 94 114 105 137 90 66 59 62 47 79 84 101 105 116 107 109 164 139 182 171 143 127 110 120 87 75 67 37 11 -12 -20 -19 6 9 -11 -6 11 57 97 119 136 98
270 335 98 128 132 124 117 126 146 148 102 104 95 106 97 120 67 44 51 50 76 102 96 126 151 129 182 170 202 190 178 162 178 146 111 96 57 67 66 36 11 14 -2 -18 5 14 -1 -1 13 33 66 135 131 159
241 188 130 148 181 159 198 191 163 132 135 94 96 45 71 84 84 67 53 74 95 115 145 144 202 264 223 249 224 170 150 133 108 93 88 72 91 85 67 42 17 10 10 7 9 2 6 20 5 25 38 89 88 85
252 195 96 88 176 256 232 170 157 140 119 99 92 98 94 96 99 99 93 95 111 130 164 170 180 185 175 168 169 172 164 167 158 136 108 94 105 75 62 56 32 19 1 15 10 16 11 16 19 16 6 24 93 125
177 167 118 189 250 229 165 151 163 133 144 102 108 105 110 113 132 143 165 159 163 179 190 183 183 187 220 239 250 230 207 191 194 166 125 139 139 97 92 75 59 41 34 22 23 13 6 26 21 7 7 -2 20 41
219 223 230 220 205 186 160 171 192 151 131 148 122 134 136 165 180 188 212 228 252 226 208 167 222 231 247 246 214 180 158 177 153 169 146 102 95 66 80 71 43 26 -2 -7 9 17 2 20 42 20 20 18 48 40
309 207 213 202 147 124 131 174 139 129 112 90 112 144 148 157 190 228 258 284 232 199 230 240 252 228 174 147 136 143 143 141 152 139 101 88 102 50 75 43 28 34 20 -8 -10 -3 -4 19 26 43 35 33 29 35
278 217 255 225 133 128 115 135 97 107 118 117 130 144 143 183 192 225 217 184 156 183 220 210 143 130 116 94 104 118 142 148 112 108 137 112 132 94 107 84 25 12 25 20 -7 -3 -10 -14 24 24 38 56 63 47
260 272 273 249 179 127 104 129 133 141 154 180 162 143 170 202 215 231 231 163 220 228 217 139 117 84 90 76 49 48 102 150 166 163 177 168 174 184 80 81 48 34 10 17 7 20 -8 -17 -10 34 32 58 67 65
238 255 176 222 203 147 147 149 163 167 161 157 174 178 202 192 204 216 158 161 158 130 93 83 124 143 124 87 50 47 65 115 151 181 166 212 140 75 -19 -20 -36 7 14 -43 -23 -15 -12 -3 -5 -1 26 52 59 58
243 235 207 150 141 131 113 130 114 127 152 175 165 196 183 199 207 116 138 97 86 81 96 164 191 197 189 169 138 109 113 107 134 164 137 187 151 96 -13 -60 -80 -14 20 -18 -10 -13 -13 -16 -12 -14 4 4 -0 30
253 230 189 177 163 155 167 172 161 168 168 155 173 185 198 183 105 75 58 78 100 114 137 188 254 285 244 185 166 163 160 174 203 160 114 111 83 114 73 -0 -23 9 18 4 36 13 -9 -5 -10 -10 1 11 30 34
194 146 146 155 190 180 160 157 160 141 157 175 233 159 157 126 126 132 145 142 156 191 205 222 260 263 224 184 144 123 104 94 120 137 98 81 106 148 129 64 32 -19 9 19 21 23 -3 -18 -12 -3 2 3 16 47
177 152 189 195 190 160 137 153 135 141 167 201 171 146 142 167 192 189 189 205 208 233 247 192 179 153 159 137 141 157 157 153 125 87 54 14 -26 -22 62 77 65 58 60 42 23 7 -15 -14 -7 6 16 37 46 80
147 152 173 153 143 109 115 125 134 119 123 137 137 141 132 166 212 207 219 225 218 203 204 186 149 127 108 108 92 78 108 138 165 111 101 69 43 30 9 13 38 44 46 24 15 12 16 39 55 138 116 91 100 114
158 187 190 162 130 129 118 110 93 89 112 114 157 179 172 164 143 136 177 162 155 169 157 98 89 89 96 117 114 105 76 90 113 67 49 56 34 34 45 32 32 25 15 19 16 12 37 69 88 109 106 91 96 108
171 151 156 166 141 103 96 111 90 94 89 101 103 153 143 168 159 142 127 109 126 112 80 79 87 84 114 111 137 140 93 109 77 51 -44 -71 18 15 25 23 23 36 50 45 43 58 69 62 79 83 91 97 103 104
187 201 179 146 121 98 72 87 107 81 78 72 85 104 114 128 97 85 105 102 82 51 67 27 69 99 122 121 119 98 77 101 52 3 -8 -20 -22 19 26 41 47 49 53 64 67 73 75 88 81 83 99 106 103 95

GFSWCAN_con_3kmhel_057.txt.gz
Helicity
353 413 382 347 177 166 115 109 96 90 88 88 74 66 40 27 19 -2 -15 -14 18 21 32 29 14 10 6 3 12 -1 -2 72 92 94 73 65 63 59 64 45 36 38 45 37 43 50 63 49 21 54 31 15 3 15
382 437 330 293 167 127 129 130 93 89 84 69 57 47 30 14 13 -12 -33 -43 -34 -15 -18 4 12 9 7 14 16 -7 6 39 119 107 108 78 63 61 55 72 58 63 48 52 45 40 33 28 7 37 35 -0 13 20
455 471 297 320 206 196 106 110 90 78 72 53 44 30 17 -1 -19 -25 -52 -74 -36 -53 -51 -19 6 15 7 5 7 1 2 3 56 88 110 95 75 65 53 52 49 51 65 66 69 74 60 -31 7 2 -22 -10 42 6
456 387 313 299 192 176 111 106 78 72 57 46 30 4 8 2 -10 -40 -64 -76 -55 -53 -9 -12 17 27 21 7 7 15 31 26 42 75 102 112 94 63 58 44 49 64 73 77 53 65 25 43 33 -21 -11 3 -4 34
337 299 346 255 135 130 122 88 77 58 44 19 -4 16 8 11 21 3 -16 -35 -34 -9 -12 -28 -6 24 45 32 26 17 22 25 33 45 81 77 71 69 68 66 63 80 84 57 37 25 12 70 84 70 34 20 -30 1
482 372 204 254 187 117 119 85 68 45 23 -17 -5 -4 9 19 -16 -68 -29 -41 -42 -9 18 28 2 17 27 28 26 24 18 14 16 15 21 43 51 45 62 66 49 16 -39 -41 38 22 10 4 -11 -32 7 27 29 11
568 414 294 221 150 123 111 100 74 32 -13 -31 -36 -22 -4 -44 -106 -79 -48 -43 -22 -15 4 22 6 37 49 39 19 17 14 25 30 17 21 25 39 48 27 20 1 23 10 1 -24 -27 -14 4 9 16 7 19 28 57
376 418 243 147 107 139 132 96 74 -8 -35 -58 -38 -34 -60 -48 -72 -90 -89 -64 -68 -40 -37 11 1 49 46 38 26 31 11 12 15 34 20 18 21 23 24 34 47 37 27 -24 2 -16 -32 -12 -0 -6 18 16 24 52
456 414 245 133 164 161 125 87 42 -29 -32 -41 -52 -13 -102 -109 -80 -97 -73 -72 -72 -36 -29 -2 4 8 75 76 53 32 12 5 9 17 30 33 43 31 19 33 49 21 -11 -2 4 6 13 26 21 17 19 38 80 110
505 286 140 143 190 165 112 87 8 -9 -5 -31 -87 -34 -20 -89 -55 -51 -55 -26 -28 -42 -29 8 35 -3 60 48 55 53 20 19 18 11 15 32 47 -26 -8 11 16 -2 -9 -22 -22 -4 18 36 32 35 39 50 62 97
413 275 194 202 190 165 106 55 17 68 29 -46 12 2 -29 -21 -26 -5 5 9 -12 -2 -7 20 36 19 39 41 29 49 47 46 48 21 18 33 35 35 32 -10 -2 2 -10 -16 -23 -30 -33 -22 14 17 18 39 49 -1
351 242 197 225 198 141 96 20 45 50 -18 -1 15 35 9 4 20 39 32 5 22 12 3 20 26 25 26 47 28 45 38 50 64 119 61 54 31 37 63 57 15 5 8 2 -2 -4 5 -24 15 28 22 9 36 -8
371 193 227 233 199 123 56 27 16 23 48 65 85 61 40 37 83 76 48 19 20 3 9 22 18 31 39 43 60 49 66 102 136 87 98 99 99 89 78 79 70 77 61 12 -4 2 -2 -0 -19 15 33 52 61 50
288 249 233 198 136 83 76 70 13 62 86 144 145 142 96 93 86 80 52 32 21 39 42 46 50 46 62 72 87 94 100 126 143 148 104 169 144 162 161 125 89 80 71 76 55 1 -11 -6 -18 -19 26 57 66 64
233 229 193 145 97 110 114 43 54 100 164 163 109 116 117 80 114 89 77 62 46 51 58 66 74 84 82 104 104 109 116 155 149 161 193 209 134 112 127 114 96 89 70 64 77 67 -0 -22 -15 -25 2 6 47 77
252 224 164 124 127 123 106 55 124 187 164 131 95 119 107 167 121 76 57 68 29 60 62 70 90 112 103 116 156 144 227 232 257 245 215 174 140 97 74 78 81 78 76 50 41 56 36 -0 -25 -1 -16 22 34 64
323 426 124 141 160 129 69 141 180 217 127 120 118 112 101 134 70 41 40 38 37 67 60 74 97 103 180 158 175 174 236 288 259 197 149 110 101 90 107 104 99 78 68 39 21 24 31 29 -13 4 -8 -11 21 42
372 223 157 205 203 133 182 217 242 145 144 130 127 84 112 111 96 63 35 50 76 91 78 68 180 234 190 240 204 190 177 154 144 113 107 106 105 120 121 126 89 74 76 55 36 29 31 25 -1 1 17 -3 15 53
253 204 157 115 174 259 275 231 175 155 150 149 140 120 119 107 91 82 89 118 117 112 140 146 178 182 184 174 173 152 152 162 141 138 156 156 136 117 95 111 93 78 68 75 54 36 33 16 12 9 16 41 -10 23
223 203 177 173 287 303 211 186 134 134 126 113 117 148 134 115 117 132 147 159 185 172 178 161 152 165 175 186 194 185 162 158 171 171 142 140 137 125 121 117 67 53 76 60 33 13 14 7 -0 -3 -4 19 41 -12
374 248 233 328 253 214 151 179 186 167 151 163 175 162 110 134 132 148 172 214 249 241 212 160 181 176 222 174 143 149 143 168 168 195 183 160 134 124 95 101 27 31 60 29 17 31 2 -3 -2 -13 -10 5 20 18
283 227 289 335 234 169 133 186 145 173 182 159 174 148 118 107 133 174 194 246 240 190 227 214 203 210 160 122 114 118 106 74 98 144 104 132 143 100 90 130 74 40 67 62 18 16 28 3 -20 -34 -23 6 -3 21
260 260 304 274 152 128 172 178 129 152 111 89 106 111 105 131 135 158 155 147 127 179 191 182 167 152 147 91 105 94 62 30 29 87 134 150 136 125 109 102 171 89 43 67 -0 20 22 -16 -26 -40 -42 -15 24 27
290 263 285 221 149 172 141 114 86 96 100 110 105 117 127 140 164 196 165 128 157 161 165 150 154 119 113 143 156 143 105 65 63 109 144 153 146 120 143 105 96 88 12 -36 -26 -22 -8 -24 -32 -27 -46 -29 -3 29
281 264 185 189 172 167 156 141 134 135 135 132 142 136 139 159 177 154 127 88 108 108 94 76 101 131 150 159 180 189 182 157 113 114 137 187 157 137 123 112 50 19 -14 -34 -55 -61 -5 -10 -26 -26 -30 -34 -29 -3
255 242 224 228 213 184 132 138 122 132 139 137 126 126 142 158 155 75 80 84 95 97 68 91 111 148 187 261 242 192 163 152 169 198 152 170 173 156 126 128 105 54 84 58 -27 -24 5 -9 -23 -23 -18 -19 -21 -25
220 249 246 199 179 170 185 169 156 140 126 123 119 154 159 142 52 42 60 70 98 91 129 134 175 221 242 175 179 198 175 176 183 152 117 135 146 149 155 134 99 20 -14 24 33 23 25 12 -8 -21 -14 -3 -7 2
227 165 142 162 192 181 149 141 121 94 109 106 154 113 115 83 91 103 75 88 107 124 152 175 210 227 215 180 170 144 128 138 132 106 99 100 128 122 93 84 51 4 13 21 31 23 34 17 9 -1 -13 -6 -7 -6
176 159 198 221 184 143 122 115 80 81 120 143 137 119 122 124 128 114 96 93 139 199 179 147 160 159 134 123 132 139 142 148 138 98 85 93 78 58 90 69 60 59 41 22 18 11 14 7 -1 4 3 -10 -11 1
163 146 176 162 153 140 113 103 106 120 106 103 110 113 98 106 97 93 130 138 151 141 122 129 133 119 92 91 88 105 93 92 108 122 132 119 89 41 35 36 50 52 42 41 15 15 28 26 28 45 62 47 27 23
200 198 197 181 149 128 139 133 106 88 95 87 95 122 142 94 71 111 125 126 117 109 114 104 72 53 56 82 88 88 88 99 88 99 109 120 87 64 39 51 42 40 43 46 29 5 -2 -6 -12 -5 12 24 31 46
181 169 168 175 161 133 121 111 102 109 99 100 82 100 78 103 91 51 69 115 121 101 52 48 55 58 90 121 144 146 94 98 85 91 101 139 200 147 75 55 19 15 25 29 39 39 32 8 8 17 20 25 39 55
176 182 212 217 183 133 106 104 111 86 84 76 55 50 54 67 34 47 99 109 100 59 19 23 39 91 88 102 114 107 89 94 79 47 37 30 7 -3 -11 5 27 26 30 30 29 35 42 36 39 49 62 69 74 76

GFSWCAN_con_3kmhel_060.txt.gz
Helicity
526 606 235 522 388 258 208 155 87 105 103 101 103 79 69 61 13 -16 19 -11 -21 16 9 -8 -2 17 22 33 64 1 18 -23 -13 -11 56 73 63 67 58 64 59 46 53 55 47 51 80 140 56 75 65 40 32 52
436 795 113 562 295 159 175 136 94 114 104 109 98 68 59 29 7 -29 12 -14 3 -23 -35 -33 -12 -8 -3 -1 27 10 -13 -21 10 10 42 74 70 62 65 74 45 58 63 70 46 91 80 56 15 55 61 36 32 24
461 571 106 506 220 177 180 165 103 111 99 106 84 69 54 12 -23 -52 -27 -57 -9 -47 -52 -53 -38 -20 -9 -5 -9 16 1 -9 -3 -13 8 46 79 85 90 94 93 93 98 74 67 85 81 31 30 55 18 -16 -7 8
420 408 39 432 235 224 214 127 100 119 95 95 71 93 61 20 -9 -46 -36 -102 -72 -33 -15 -37 -42 -20 5 8 4 -4 7 8 9 11 7 -1 12 88 99 89 103 115 105 86 49 45 50 32 51 17 24 45 16 15
517 269 242 393 237 205 204 137 126 104 99 81 70 85 65 26 -24 -2 -21 -64 -60 -52 -41 -47 -30 -20 -8 7 13 11 14 4 3 18 17 5 55 71 73 71 97 95 93 79 61 57 44 61 50 56 28 34 41 13
464 494 254 354 276 199 233 142 125 108 106 83 90 73 50 55 6 -24 -57 -81 -84 -74 -17 -11 -34 3 -8 8 15 5 1 6 -5 8 18 23 35 39 58 63 51 54 29 14 43 31 18 7 -5 -14 15 32 36 34
389 597 275 333 378 190 202 123 134 113 100 99 70 45 22 19 -33 -51 -78 -107 -69 -57 -69 -39 -28 -9 -6 6 12 9 0 5 4 15 21 34 33 33 31 43 41 12 23 23 0 13 0 -6 17 -2 -2 11 7 27
682 160 275 332 246 114 104 117 132 99 105 85 52 28 21 -32 -81 -86 -23 -59 -107 -94 -103 -61 -63 -36 -11 18 25 10 9 13 4 16 20 21 16 20 24 16 19 15 19 13 22 14 -29 -68 -70 -12 16 19 11 8
529 303 233 275 249 127 109 147 119 114 104 74 34 21 80 -14 -88 -99 -48 -37 -60 -76 -40 -49 -41 -15 -4 -3 10 14 4 22 8 22 32 24 31 19 16 28 23 23 33 23 16 20 -3 -3 -13 -19 10 22 4 16
375 362 231 343 301 105 150 152 139 120 91 55 86 114 54 -29 -57 -60 -53 -41 -18 -38 -46 -14 -51 -11 -13 -4 0 17 17 40 49 33 41 46 37 -2 -4 22 37 40 37 21 23 24 13 0 17 21 10 15 28 17
161 348 298 263 121 120 148 159 144 162 48 166 188 140 -20 3 -17 -36 -16 -4 -9 18 -7 -9 -17 4 -4 8 13 17 34 31 37 57 65 82 58 49 56 45 37 36 39 52 62 49 25 17 10 5 1 4 26 38
377 310 301 211 140 169 148 167 170 187 122 51 24 80 25 6 21 29 52 20 40 40 7 9 6 8 21 16 28 41 48 52 64 93 65 54 83 91 81 69 67 48 35 30 37 52 56 49 44 24 15 11 2 28
352 368 350 199 155 147 143 148 153 78 74 141 170 111 52 45 86 74 75 74 54 1 3 5 22 17 24 26 65 66 87 110 131 105 121 125 186 193 187 167 142 97 62 32 14 20 32 43 46 44 43 12 13 0
389 397 410 155 167 145 144 130 76 38 216 226 195 195 103 81 65 59 62 49 24 10 19 24 36 36 46 63 99 132 155 185 211 225 183 202 247 246 213 141 112 96 77 68 71 58 32 34 45 47 51 43 3 -14
461 479 281 160 146 141 149 146 51 141 202 182 123 203 129 63 94 96 91 67 30 7 25 43 57 63 85 128 127 152 181 206 201 222 214 234 198 156 129 104 69 50 56 73 78 70 54 34 35 48 47 45 19 -8
459 365 217 158 143 153 203 161 98 204 177 163 138 118 84 162 113 96 72 60 7 17 34 51 58 71 76 120 182 178 267 267 277 231 207 177 157 110 71 45 57 74 86 90 79 38 29 19 39 50 47 32 19 9
581 586 168 173 182 233 180 167 232 268 179 185 170 123 98 108 88 51 34 32 -1 27 55 53 67 84 174 178 209 242 271 277 228 194 159 111 75 48 53 76 76 69 76 85 74 55 44 23 23 14 15 29 17 4
605 291 209 201 362 329 249 226 239 199 237 206 147 119 127 143 100 62 56 44 38 47 53 75 154 195 189 250 246 245 193 169 129 89 81 97 93 95 90 78 83 95 89 76 50 49 46 18 2 -5 4 14 31 7
393 283 195 181 354 353 354 269 236 241 235 176 177 155 157 138 114 89 83 78 85 99 117 93 145 167 200 219 194 170 124 119 124 119 120 106 93 82 93 109 107 114 84 71 41 55 53 14 -11 -8 13 14 8 11
225 228 203 311 327 409 294 287 216 236 196 124 122 142 132 108 110 119 136 130 121 104 101 111 138 175 173 157 160 142 146 146 153 147 115 76 81 98 118 115 123 118 68 54 19 22 40 16 -5 -21 -7 26 10 10
298 290 339 353 330 273 212 274 257 154 137 130 134 156 136 148 135 111 138 120 137 140 151 145 162 151 171 167 153 159 133 155 157 145 106 82 57 89 117 117 146 138 95 102 67 128 97 20 -9 -29 -32 -27 16 14
396 331 387 308 320 295 274 236 131 116 140 158 190 178 144 121 126 123 113 133 135 123 169 161 153 158 150 137 130 139 136 157 138 104 38 20 59 60 84 103 124 138 131 111 89 16 69 44 -24 -49 -45 -43 -43 -2
362 344 360 286 277 261 212 190 184 217 165 155 180 146 130 116 92 95 87 83 87 109 109 113 119 117 96 96 110 94 133 157 170 174 145 101 93 100 127 114 113 128 137 69 81 71 -38 -62 -60 -51 -45 -38 -44 -30
360 303 311 243 220 208 207 193 162 155 127 144 129 117 92 93 90 100 90 87 94 108 107 107 115 111 123 129 121 117 128 213 185 189 210 161 132 97 104 123 96 124 134 97 84 35 -24 -48 -67 -37 -26 -27 -28 -42
314 284 166 201 166 138 178 164 131 113 121 119 115 99 85 87 101 95 91 108 109 111 115 110 86 96 118 129 153 168 167 175 168 181 161 174 132 119 115 115 80 72 66 119 101 59 -11 -13 -52 -42 -20 -24 -20 -17
337 244 171 150 166 176 135 146 151 120 118 121 114 105 95 98 103 69 102 124 108 126 129 107 90 111 151 198 183 148 126 147 171 190 151 133 145 139 126 113 80 42 36 26 53 22 -17 -45 -42 -38 -16 -18 -15 -5
181 148 194 238 200 132 143 154 150 121 108 94 92 111 103 96 60 96 114 96 109 114 93 75 114 162 173 136 141 146 145 159 194 200 176 165 156 151 142 114 88 79 65 13 4 9 -14 -4 0 -19 -8 -4 -7 -11
153 130 139 171 196 168 148 146 112 91 106 103 109 88 91 80 103 110 106 90 62 81 68 103 144 145 139 147 139 124 125 147 152 130 128 131 101 97 125 129 92 94 74 27 -11 -8 -9 -1 12 1 0 -1 5 1
215 185 174 223 204 159 118 99 87 86 90 65 104 86 75 81 97 98 71 71 83 95 111 139 152 137 127 106 110 137 128 119 149 164 157 129 94 88 71 64 46 47 52 27 34 -8 2 8 4 3 3 8 17 15
201 226 198 170 130 109 96 99 90 71 94 101 103 96 76 79 52 63 81 91 116 130 120 120 126 105 92 107 115 92 108 152 210 184 153 130 121 116 118 82 42 77 57 49 30 39 58 41 36 23 20 13 12 14
244 206 170 163 138 128 109 114 110 106 113 105 93 86 89 46 47 64 76 97 123 133 131 120 82 75 96 96 105 91 99 99 110 103 114 122 130 155 158 105 58 4 -21 23 21 34 41 43 28 14 5 4 15 17
233 175 153 151 156 153 147 124 112 120 111 99 90 69 61 84 83 64 76 112 143 134 102 85 82 70 87 86 80 93 55 93 104 102 94 126 144 153 73 31 9 -18 -32 12 16 30 39 40 44 35 22 19 24 24
215 210 227 221 197 158 139 136 135 105 100 94 70 61 72 84 67 66 89 117 136 120 95 77 57 63 48 41 52 64 73 97 78 53 41 29 22 53 42 16 -4 -17 -19 1 26 22 24 17 17 23 21 15 16 24

GFSWCAN_con_3kmhel_063.txt.gz
Helicity
-54 -23 65 471 595 571 229 237 146 102 106 56 86 69 61 76 81 91 87 113 58 17 43 -9 -21 -12 -15 11 53 4 31 -6 -30 -8 -12 -23 -31 73 73 104 85 67 76 82 86 94 88 113 85 108 117 63 52 40
-23 5 165 380 554 124 205 195 177 179 96 102 93 69 75 62 50 83 65 85 93 72 23 12 -5 -19 -53 -54 -1 21 34 10 -9 18 -3 -27 -12 28 102 74 73 84 103 103 82 97 81 83 69 58 49 49 37 27
-20 18 134 564 255 190 298 186 213 163 83 98 84 54 58 56 42 37 69 32 99 68 23 -37 -57 -27 -23 -55 -36 11 -11 -11 14 -16 -2 -19 -36 -22 -10 65 80 77 86 85 84 95 65 71 48 27 72 45 22 15
-29 78 182 393 462 224 239 205 200 226 104 94 78 61 60 47 51 67 86 35 23 17 34 -50 -71 -80 -76 -61 -51 -32 5 -3 1 19 34 38 13 1 -7 71 91 112 103 106 77 74 62 69 66 91 44 23 14 36
22 49 94 334 440 103 209 153 204 119 104 107 85 74 67 68 78 95 48 49 11 -28 -14 -31 -31 -47 -65 -54 -47 -19 14 33 45 46 40 35 1 11 26 55 -21 85 109 88 102 86 46 37 51 35 11 16 39 36
-46 18 213 653 96 237 217 169 187 87 118 119 99 107 85 90 77 86 56 2 9 35 1 -29 -51 -34 -20 -18 -11 -13 -9 5 19 25 14 5 -3 22 24 20 70 79 63 45 43 47 36 30 22 6 18 19 30 35
-52 87 569 254 252 218 202 184 110 90 121 117 135 138 145 125 104 69 9 -38 -13 -5 -57 -54 -59 -68 -52 -36 -21 -11 -2 0 5 15 14 25 29 26 33 49 61 46 18 19 27 22 28 35 34 34 16 6 7 33
-101 135 532 552 267 202 181 172 66 128 123 123 148 178 180 124 11 61 121 73 2 -47 -67 -56 -64 -69 -87 -83 -59 -37 -7 4 12 23 34 47 45 38 30 19 30 8 13 19 36 29 13 19 34 39 43 31 23 19
-114 178 308 530 266 196 190 148 111 148 131 137 118 153 220 130 22 30 44 12 -2 -41 -65 -87 -52 -29 -76 -87 -82 -46 -29 8 3 31 38 42 57 50 41 56 40 19 22 20 37 10 9 17 19 23 27 28 31 35
13 297 102 306 240 195 216 115 120 152 123 115 180 194 114 68 100 71 19 -32 -37 -44 -50 -44 -54 -34 -54 -50 -33 -2 -4 14 20 37 52 60 59 46 86 84 67 61 39 23 31 32 14 26 0 16 38 49 43 45
123 514 317 235 268 221 186 119 167 128 153 258 171 160 150 155 122 34 14 22 -4 18 -13 -16 -15 12 -19 3 17 4 46 52 67 89 61 73 57 133 163 128 88 88 86 76 63 47 34 33 59 31 30 33 46 47
259 317 294 257 249 201 134 166 133 245 136 74 101 242 237 78 79 58 82 28 27 40 7 12 14 15 16 3 30 39 67 78 108 133 144 162 148 262 267 193 171 152 131 114 81 52 39 28 42 66 58 57 41 46
451 184 301 245 248 169 151 83 149 106 94 290 348 276 91 42 108 79 90 85 72 20 8 18 40 23 28 30 68 77 108 150 148 172 208 230 262 286 222 179 191 139 103 79 45 22 21 41 67 61 57 46 45 42
344 347 289 266 235 123 87 118 63 140 334 383 306 208 162 123 98 52 77 69 48 35 49 51 54 40 42 66 89 119 156 177 224 171 196 216 224 174 146 118 109 101 49 6 -3 21 68 96 96 83 59 47 57 59
354 324 235 255 155 127 127 79 189 199 276 317 193 196 149 92 79 71 106 101 80 39 53 57 53 47 69 81 74 129 129 122 143 181 199 174 162 149 129 106 71 52 31 25 38 67 74 81 78 69 55 61 72 86
401 320 308 195 139 195 118 218 251 202 240 248 146 156 111 186 103 102 101 87 40 32 41 45 49 57 70 92 132 115 159 146 190 206 157 136 127 101 71 50 25 35 50 54 61 72 73 68 56 47 50 53 48 62
454 470 258 156 229 179 223 275 263 182 182 225 184 139 163 112 66 90 73 52 25 37 49 39 44 69 111 107 115 153 168 188 177 136 114 79 75 63 60 67 74 70 58 55 78 81 71 69 58 47 37 30 24 46
431 376 234 194 230 284 345 223 239 153 222 196 214 145 102 91 93 105 72 53 57 46 37 52 94 108 98 141 162 178 153 129 117 114 106 97 96 91 82 69 70 71 69 82 95 103 94 67 58 63 51 31 -1 8
428 408 184 171 306 419 342 238 184 205 277 225 241 133 163 188 176 106 104 74 66 62 77 73 84 86 119 153 162 156 140 150 142 138 118 96 90 71 53 57 74 87 99 100 104 116 106 45 20 76 55 4 -35 -20
433 249 232 243 389 432 335 270 157 217 285 208 174 222 205 148 130 118 112 98 91 77 65 42 52 96 135 164 142 137 159 156 151 151 143 117 110 76 51 59 71 77 92 97 125 120 120 79 77 85 33 -29 -48 -58
479 384 440 423 429 311 212 233 237 245 201 221 210 206 151 141 131 114 118 126 96 57 52 61 98 136 140 147 139 134 128 134 143 158 150 163 123 120 109 87 83 86 104 127 138 127 104 85 57 -44 -25 -20 -41 -44
526 366 581 456 365 256 259 247 185 246 248 214 195 154 118 125 131 130 114 95 66 82 95 117 134 130 125 118 112 109 118 118 127 142 129 161 201 176 160 150 123 123 129 135 138 119 114 80 64 0 -58 -49 -30 -39
429 474 456 345 320 325 294 270 325 260 245 229 183 172 154 140 116 114 77 65 72 97 131 132 116 98 87 82 90 92 117 135 170 184 191 196 195 179 175 153 118 116 115 105 103 101 90 87 66 21 -19 -24 -18 -31
378 427 368 412 273 264 244 346 285 221 221 248 202 168 128 109 105 102 89 95 109 132 137 115 93 92 90 86 101 119 132 164 160 161 154 155 165 158 147 143 120 101 98 91 86 80 61 77 55 11 -9 -26 -24 -28
525 591 309 336 247 313 413 348 244 218 204 192 168 125 93 93 97 100 101 106 118 124 131 116 108 98 105 110 118 115 131 140 137 120 116 138 151 158 160 140 111 101 73 73 57 39 46 64 48 24 -17 -23 -23 -16
610 439 373 378 386 368 260 195 142 141 152 124 114 99 94 105 106 96 117 134 124 131 142 134 117 94 98 115 121 112 121 128 114 147 149 138 171 189 174 142 109 84 98 122 86 39 21 37 27 0 -17 -15 -14 5
391 442 362 311 186 146 146 157 170 145 110 77 84 112 102 91 69 96 138 150 142 128 118 91 91 113 118 101 107 130 131 121 151 191 164 137 148 170 178 179 158 147 98 84 83 48 14 19 32 25 9 -6 -21 -13
251 333 232 223 207 193 125 127 96 78 82 88 99 83 69 64 98 141 168 157 128 107 88 92 105 100 101 115 141 139 108 100 109 102 103 131 170 169 178 161 149 93 91 77 61 47 2 4 32 28 10 -2 -5 -6
245 230 230 257 163 113 93 86 93 102 103 76 90 75 74 99 138 137 124 121 105 92 115 125 123 120 128 147 117 97 66 87 85 86 108 123 119 123 136 129 138 127 104 53 20 37 10 26 31 34 15 8 18 9
260 216 140 199 164 120 113 124 131 127 130 115 98 94 98 100 90 87 85 87 97 108 107 108 114 120 112 106 85 44 77 88 125 152 149 145 137 116 115 119 112 100 89 38 22 -12 38 35 51 39 28 6 -4 0
245 206 175 155 127 137 152 161 144 128 108 91 91 92 96 80 76 74 66 69 81 95 116 126 107 86 87 71 53 50 74 93 118 121 136 140 119 101 114 112 94 78 63 26 -4 -15 0 40 49 42 28 13 13 15
236 185 152 154 156 143 144 130 110 102 94 98 103 87 82 86 89 64 49 66 92 111 121 114 104 94 73 54 84 101 69 99 109 107 95 127 139 128 117 98 63 35 15 5 -2 -9 -11 32 44 48 39 36 33 33
223 216 199 197 176 145 142 136 135 126 112 106 105 98 103 86 55 56 62 55 76 105 114 100 81 60 54 75 86 84 85 103 79 43 35 29 11 16 76 71 39 21 21 14 5 -3 1 28 39 48 46 39 32 33

GFSWCAN_con_3kmhel_066.txt.gz
Helicity
-2 21 25 10 116 163 390 394 159 146 145 129 125 32 44 37 56 85 118 163 146 76 152 128 81 24 2 -10 5 -48 -15 -39 -22 21 10 2 -12 -21 -19 0 49 70 93 96 107 114 98 97 82 94 100 108 94 76
1 13 30 19 36 200 210 152 73 86 97 47 64 9 45 48 58 102 189 204 210 113 95 81 89 85 58 9 -21 -6 14 -11 -16 51 57 34 17 -15 -11 -20 43 17 114 108 112 86 79 78 84 71 73 41 29 8
2 7 39 24 53 293 456 3 94 107 94 58 22 39 45 38 61 84 170 133 195 176 121 79 86 64 90 50 -6 -24 -18 -42 -18 8 39 31 37 0 25 -13 -12 25 91 102 120 119 78 60 56 112 93 46 24 6
13 21 49 25 89 326 582 44 92 107 89 39 22 44 44 49 47 133 157 128 99 72 42 25 16 11 32 23 -1 -30 -38 -38 -5 22 37 46 53 -2 25 9 -5 9 31 41 69 138 103 160 162 92 46 -1 -2 25
22 34 61 31 111 266 470 104 104 120 74 30 23 56 36 57 109 178 131 125 106 5 15 -10 -36 -30 -28 -28 -42 -22 -6 7 24 19 31 47 24 19 10 3 20 44 45 41 73 114 104 103 100 65 54 29 22 22
18 31 47 40 113 216 547 174 156 110 101 29 25 38 40 47 72 161 124 94 92 116 79 29 -24 -16 -12 -14 -29 -37 -36 -37 -22 -6 8 12 19 36 32 37 42 63 96 110 81 70 49 34 32 63 36 22 22 25
14 28 47 39 99 213 106 164 199 143 50 54 25 52 86 121 98 106 78 47 82 58 -2 -31 -72 -57 -32 -32 -26 -27 -35 -37 -31 -13 -5 17 36 45 50 67 68 66 81 66 52 51 47 56 37 47 27 40 41 31
10 53 50 115 252 56 251 164 165 104 59 58 61 80 105 66 32 117 226 143 96 -12 -19 -37 -71 -114 -97 -97 -68 -50 -28 -22 -31 -9 8 38 60 68 67 59 114 100 83 73 68 54 34 31 41 38 40 25 22 16
39 65 100 245 156 260 231 166 189 83 68 74 97 135 181 132 97 91 162 104 59 -2 -50 -81 -54 -60 -108 -114 -91 -58 -55 -23 -24 -1 25 46 72 70 86 105 170 106 82 78 82 80 63 62 69 60 38 18 9 -3
60 72 151 340 350 186 131 151 166 98 53 56 195 207 98 123 99 154 113 53 4 -22 -45 -55 -57 -36 -73 -55 -54 -22 -20 8 25 30 59 70 61 102 158 207 173 119 86 72 97 125 109 105 82 84 70 55 34 23
53 82 149 146 263 70 142 220 127 88 114 228 214 173 169 125 130 131 61 26 -8 10 -24 -30 -35 9 -29 -2 7 2 30 39 66 86 99 113 150 261 331 242 175 144 112 89 86 109 102 68 49 33 21 23 36 45
62 52 142 39 210 165 193 174 116 213 175 173 83 183 203 135 121 89 91 36 29 29 -3 13 11 2 6 4 27 35 67 81 119 130 165 189 190 222 241 242 224 186 135 88 57 70 64 40 15 -1 -11 5 50 59
48 71 253 232 194 213 231 108 128 94 133 190 231 234 144 114 116 89 66 60 59 20 12 15 32 13 21 27 60 80 100 141 135 173 174 150 144 157 178 171 153 102 60 37 37 42 29 18 8 11 33 50 44 43
57 211 134 265 204 223 125 142 76 144 228 219 180 122 165 126 82 10 62 76 55 54 63 59 55 37 34 56 74 106 122 152 149 127 136 174 155 142 141 103 78 67 59 58 62 64 61 72 71 51 43 40 35 35
294 317 286 244 237 176 94 95 161 186 242 193 206 135 136 58 93 78 120 135 114 62 58 55 48 41 61 73 70 100 102 93 123 145 174 165 140 139 124 106 99 105 100 102 106 97 83 85 80 51 50 49 41 40
333 196 311 224 216 114 136 158 221 205 157 164 126 129 115 144 110 115 107 127 54 36 41 34 54 61 59 75 104 83 128 120 127 153 133 139 140 133 112 89 88 102 109 102 94 92 83 81 81 65 60 55 61 64
339 496 274 213 145 183 160 206 300 209 114 166 173 125 148 188 211 141 58 26 -8 31 49 34 45 38 77 80 71 86 102 119 134 124 127 120 113 95 101 103 105 92 92 103 110 110 108 119 102 91 62 58 68 83
430 338 255 158 220 247 296 244 253 170 150 187 154 181 252 236 139 98 57 9 33 41 36 28 41 61 62 77 78 87 104 110 124 130 127 120 115 117 117 99 83 77 90 118 134 134 130 117 106 100 95 92 95 71
377 377 215 188 277 369 361 312 222 226 159 163 230 284 250 213 175 94 43 33 63 45 37 27 61 50 43 70 92 107 120 142 143 144 136 117 111 115 105 104 94 105 111 131 133 149 146 124 130 115 91 91 39 19
364 264 161 197 339 390 369 358 236 196 206 192 252 266 196 151 148 95 88 118 92 42 63 51 42 45 67 82 110 128 128 132 154 152 135 123 130 163 157 157 149 140 146 147 150 101 161 164 147 127 105 59 15 -23
365 261 293 333 363 280 267 349 301 224 240 270 256 263 176 137 106 83 107 125 80 77 55 48 67 84 108 120 120 117 115 132 146 165 181 186 164 179 180 175 172 174 186 162 152 131 100 144 139 137 109 73 9 3
476 345 473 386 360 309 326 349 226 264 321 323 280 190 159 154 116 94 104 92 69 58 68 76 84 96 111 109 109 114 114 112 112 144 130 164 207 200 183 192 194 199 196 189 181 150 117 93 96 117 101 93 -14 -43
503 458 451 391 320 330 324 347 349 372 350 299 250 226 201 167 113 121 90 63 53 65 95 98 91 102 104 93 99 86 88 124 138 145 155 173 179 173 183 185 191 183 190 175 160 162 139 64 48 65 73 48 13 -37
440 483 497 530 364 352 273 413 325 351 376 329 230 197 182 136 102 101 69 59 69 107 102 96 114 125 115 116 98 77 75 110 120 133 136 144 151 160 172 177 164 164 169 160 149 146 127 99 47 53 48 44 29 -20
746 626 459 459 303 352 417 426 435 403 349 265 202 151 101 92 94 70 55 58 92 101 118 127 130 118 117 108 86 87 89 122 131 134 137 146 162 163 160 146 145 154 147 135 130 124 93 62 48 49 36 21 -16 -17
745 559 467 508 440 436 529 479 422 366 256 190 153 116 91 87 83 45 41 63 89 112 119 121 117 106 99 107 127 120 113 129 151 177 156 141 144 133 126 128 140 140 156 121 108 93 77 65 40 39 32 28 21 2
507 661 559 370 380 370 450 444 322 178 146 97 88 84 85 76 40 52 80 108 145 124 128 128 116 112 117 122 128 133 142 146 137 134 115 122 117 133 150 173 176 150 129 122 115 105 77 45 12 38 35 27 18 -5
408 545 459 463 488 474 337 230 176 115 81 60 82 84 62 50 55 82 116 142 163 131 109 93 115 129 130 124 125 126 118 127 106 92 100 104 126 157 193 158 164 110 116 112 101 95 57 21 1 15 33 42 44 12
404 500 552 582 434 286 199 135 111 109 96 58 95 79 67 77 96 122 126 127 109 105 124 136 127 127 124 126 98 105 96 101 81 50 61 72 112 126 150 149 148 121 108 103 63 28 18 6 -15 -1 39 42 37 16
390 331 355 297 181 127 113 126 110 121 120 112 103 104 116 106 92 83 89 90 102 113 113 118 119 145 137 133 118 89 61 83 92 75 75 100 109 119 124 117 112 95 89 87 79 48 -13 -13 -7 24 30 37 25 3
236 257 264 230 160 162 162 163 157 148 136 136 147 120 104 86 68 65 72 76 100 108 110 111 111 111 119 96 81 67 42 69 90 92 102 106 115 135 157 171 135 97 92 62 54 40 21 5 -7 21 40 47 31 9
284 174 170 224 240 170 174 152 131 119 127 117 123 114 97 91 82 68 48 75 80 73 71 111 120 98 90 71 49 57 37 70 80 81 93 112 132 149 145 91 86 78 58 44 32 19 8 -9 -3 13 36 50 36 22
275 269 242 209 163 127 123 119 123 114 125 109 105 98 90 90 75 55 37 23 62 81 107 106 90 76 62 40 57 57 60 67 32 24 26 22 12 20 46 56 75 50 38 45 34 20 5 0 -1 16 32 43 41 33

GFSWCAN_con_3kmhel_069.txt.gz
Helicity
-17 -10 5 18 15 39 92 99 249 301 34 88 135 95 71 32 51 58 70 87 70 76 197 173 124 87 17 3 39 -3 -10 -43 -37 10 33 15 -1 1 -22 -16 -18 -9 -9 -21 -14 -24 -35 97 101 104 98 114 101 84
-22 -0 15 26 22 35 61 201 298 86 63 81 117 127 83 47 80 70 96 141 118 109 130 95 134 158 133 62 -8 -10 -16 4 -18 10 -1 2 17 6 32 67 6 15 6 21 56 49 29 65 136 137 137 98 59 27
-19 3 13 35 33 28 28 312 450 54 79 92 138 92 52 39 55 64 135 127 180 171 171 139 145 157 159 147 71 -38 -39 -40 -34 -5 5 -2 25 33 89 54 41 26 26 54 67 102 113 222 197 145 84 62 49 48
-8 8 23 47 56 23 157 347 264 81 78 75 142 76 78 47 50 71 119 120 89 100 60 114 112 93 145 113 85 32 -19 -19 -13 2 -3 3 26 10 56 46 44 35 42 64 91 128 169 199 170 105 94 73 44 21
-1 11 29 55 41 56 126 345 132 99 34 84 83 73 70 34 47 111 131 100 80 23 54 89 85 120 98 73 77 74 15 5 9 3 -17 -1 1 19 31 51 49 63 63 91 76 108 132 129 110 93 89 65 38 18
11 17 30 48 61 62 129 189 52 109 47 37 31 45 29 41 99 98 95 47 41 44 74 45 53 61 60 25 29 33 11 -11 -26 -30 -30 -42 -23 8 31 38 29 64 87 83 78 76 61 52 64 62 58 58 49 51
10 13 23 33 47 60 92 49 98 49 61 72 35 32 32 34 20 73 56 57 51 48 38 56 31 52 37 9 -8 -16 -15 -35 -44 -41 -44 -22 -11 25 38 51 47 85 73 74 77 77 85 82 69 69 76 85 76 69
-1 6 24 51 52 50 112 52 77 21 53 42 34 58 64 9 -33 98 132 106 84 61 49 -22 -16 -17 16 -52 -58 -32 -46 -40 -48 -34 -24 -4 13 38 50 51 95 100 94 100 72 67 62 66 80 83 70 65 68 58
-0 1 22 42 58 55 115 156 119 94 66 32 58 61 155 140 102 116 116 128 94 48 -27 -25 -21 -62 -82 -89 -83 -63 -51 -29 -26 -0 11 32 45 75 64 114 190 145 129 95 73 68 78 84 80 78 68 49 31 45
-13 -4 34 63 138 1 181 229 198 72 77 76 122 191 147 116 103 103 116 88 70 49 17 -11 -36 -38 -80 -74 -76 -44 -29 -2 23 32 53 85 95 142 177 179 181 165 133 103 141 149 126 107 57 53 44 38 33 23
-5 28 45 139 96 265 256 214 121 49 161 225 172 159 111 150 92 101 88 63 54 32 27 4 -27 4 -49 -30 -11 -14 16 28 62 72 119 133 153 137 119 145 165 184 166 143 124 91 65 40 31 39 62 92 96 78
22 43 78 266 140 218 183 155 62 229 196 193 129 141 135 113 107 89 87 95 65 11 2 12 22 4 2 -10 13 13 53 62 89 102 149 163 121 92 107 126 136 135 116 91 66 47 48 59 68 79 83 94 90 57
38 34 155 212 224 132 153 73 112 138 181 212 211 179 127 109 126 81 52 43 37 12 20 38 55 25 20 14 42 55 72 104 109 131 132 106 97 91 96 102 107 95 85 82 86 97 108 116 103 101 94 95 82 69
27 99 145 203 143 85 101 70 89 168 265 198 188 107 135 127 109 64 8 42 48 69 116 110 89 45 29 43 51 88 94 128 152 141 135 103 89 86 89 107 116 112 115 121 138 136 120 115 99 97 113 109 99 93
45 97 168 94 217 212 93 118 128 212 235 217 188 135 137 74 83 90 128 125 114 93 121 106 73 43 55 60 59 85 93 110 142 146 112 100 101 93 110 134 139 150 153 143 134 121 101 98 104 94 102 112 108 73
77 73 180 226 260 200 151 178 166 228 213 226 133 147 117 105 62 74 133 145 118 82 91 67 68 80 67 67 104 92 141 129 106 94 89 101 122 136 143 142 139 128 118 109 104 109 106 107 111 100 85 96 107 84
61 154 207 296 256 190 190 237 237 236 227 196 147 141 118 73 76 90 85 78 25 62 81 64 96 68 79 99 101 75 91 70 78 89 101 123 129 127 120 121 122 120 110 95 98 99 116 122 126 123 112 112 121 100
325 274 296 292 292 332 330 266 251 230 244 174 139 133 143 159 105 112 87 41 52 60 64 67 62 84 71 98 72 47 48 75 101 114 106 111 117 111 127 128 139 133 115 107 113 119 127 114 117 116 121 121 95 69
211 363 296 229 387 546 413 315 314 307 246 64 139 200 236 249 216 122 103 53 49 44 54 55 74 53 57 37 40 37 70 104 118 108 102 102 98 113 126 161 180 171 139 135 121 131 126 127 149 118 102 107 118 80
260 303 242 344 384 578 513 350 240 226 224 90 182 265 276 237 222 162 117 111 95 58 76 30 31 38 37 31 46 75 92 109 124 111 105 103 115 130 143 181 180 170 152 150 153 110 134 115 106 119 118 104 127 95
356 247 346 402 482 361 294 364 282 193 165 200 219 257 233 245 194 156 134 108 64 56 21 22 46 39 54 61 74 93 99 107 110 123 134 143 121 146 159 160 164 169 179 174 162 145 126 140 129 101 81 73 84 124
402 356 611 484 463 291 333 376 211 211 224 212 273 279 218 216 173 123 99 96 54 36 42 49 44 58 67 82 105 113 103 97 101 111 106 133 177 163 156 150 160 165 198 190 169 166 157 137 122 90 79 62 41 55
519 559 681 533 398 334 380 298 340 367 323 280 274 268 260 201 125 133 96 55 39 46 59 70 68 74 100 113 117 104 89 98 98 106 112 146 165 167 168 149 158 165 140 145 148 163 140 87 84 83 63 39 35 28
620 672 562 468 302 362 414 431 334 396 336 376 321 295 244 198 154 99 49 38 48 56 60 64 87 115 115 118 112 93 86 95 91 102 122 159 163 138 123 123 127 140 153 151 151 144 115 99 77 69 60 36 31 16
703 514 437 439 308 353 412 449 451 430 402 451 354 282 221 141 84 53 26 30 52 57 67 97 111 112 110 94 83 89 90 117 130 134 143 157 154 137 117 128 138 153 180 157 120 107 93 88 81 84 60 56 33 29
705 580 490 449 422 363 397 405 377 421 487 435 258 161 131 81 50 10 19 26 40 57 67 83 100 103 90 84 99 106 116 130 145 175 149 155 131 146 136 136 149 150 159 140 119 87 75 75 71 71 65 48 25 35
361 574 543 294 301 302 443 471 472 417 359 216 109 109 93 60 22 25 47 47 66 65 88 93 96 91 94 97 107 125 145 157 168 152 111 117 140 174 189 202 152 146 117 98 87 88 83 73 64 61 51 50 65 38
375 595 510 510 492 445 451 489 381 254 135 110 120 88 65 38 25 48 52 67 115 127 127 108 101 101 104 110 125 141 138 132 94 86 109 132 155 161 155 113 144 81 83 98 89 82 84 72 75 69 48 48 70 45
461 574 526 607 547 568 526 430 214 127 112 103 129 85 55 59 67 63 67 83 101 111 104 98 83 106 134 133 127 116 102 113 115 97 82 90 109 93 128 145 132 119 111 109 65 32 28 34 21 17 4 -1 18 26
493 483 519 615 529 440 316 176 128 148 170 124 98 109 110 103 79 80 83 82 82 78 72 88 97 130 127 122 99 77 68 89 90 81 87 98 98 109 117 129 120 110 102 117 97 81 28 40 28 26 15 -0 8 12
513 569 571 518 348 243 221 230 247 206 172 149 135 89 81 67 59 53 53 57 82 105 110 106 103 98 117 97 97 99 74 62 85 86 89 100 109 124 133 122 113 108 110 102 75 60 57 46 28 6 -13 -10 22 25
377 334 264 294 268 221 241 223 184 153 146 116 112 103 100 95 86 57 43 68 80 73 62 101 100 74 76 87 76 58 29 47 60 66 59 88 114 118 130 83 75 77 68 72 69 53 35 26 21 7 -4 -2 28 29
249 272 273 273 237 185 145 137 147 121 127 112 115 101 96 92 88 65 47 21 39 46 77 74 83 92 88 77 62 48 44 55 32 10 3 -2 -8 10 28 44 64 57 47 51 57 54 44 29 20 16 17 20 28 35

GFSWCAN_con_3kmhel_072.txt.gz
Helicity
29 -4 7 26 27 33 49 66 25 118 19 66 92 91 26 61 7 38 76 102 36 53 203 168 136 103 86 36 2 6 -9 -18 -50 -20 -21 -21 -39 -28 -36 -26 -21 3 8 4 20 44 12 86 111 103 86 107 92 80
13 -8 8 27 34 52 39 39 39 129 3 50 88 107 81 46 46 47 52 134 109 67 120 158 148 148 129 105 50 87 -39 22 -27 -25 -23 -40 -29 -31 -1 16 -17 15 15 23 32 36 39 45 65 87 88 91 78 65
9 2 11 34 43 75 51 52 64 57 53 85 101 82 111 42 36 32 68 84 107 96 140 137 186 220 168 139 112 -11 -43 -20 -29 1 -7 -32 -22 -14 23 9 2 4 34 41 49 72 82 89 110 125 115 100 89 76
10 3 11 31 46 71 55 49 125 58 60 88 88 76 60 57 59 74 86 89 70 71 65 120 145 131 185 125 89 83 12 42 40 26 1 -10 -3 -7 14 20 28 39 44 76 93 118 160 122 128 112 105 95 84 79
14 7 18 33 52 65 65 62 219 14 67 56 78 55 43 60 74 85 97 87 62 17 63 117 144 154 132 91 102 106 75 46 32 -1 -14 -7 -0 2 11 17 22 46 60 98 84 102 160 128 128 125 124 107 93 89
9 14 33 41 59 60 63 64 154 17 41 57 85 150 67 70 71 85 95 82 54 -5 78 91 95 111 124 117 121 120 88 61 24 -0 -13 -13 -0 10 16 27 8 36 73 69 77 102 121 125 119 122 118 107 99 96
14 22 42 40 49 54 63 70 54 82 64 38 65 45 66 113 62 97 93 65 59 33 58 68 80 72 82 82 69 61 45 3 -16 -29 -34 -17 -7 20 29 45 26 72 86 96 94 105 125 115 107 103 105 107 109 98
11 36 33 26 39 46 29 100 81 51 34 44 66 74 99 100 24 87 111 84 46 40 60 46 53 76 56 20 -5 5 -22 -27 -22 -33 -25 -4 10 39 53 54 77 103 107 110 114 113 106 100 104 101 104 114 109 83
10 31 20 16 32 43 11 105 61 66 45 85 75 119 166 124 151 113 87 80 41 38 43 31 12 6 17 -1 -11 -5 -28 -39 -42 -11 -4 26 46 68 76 79 112 101 101 104 103 96 88 95 100 104 103 96 56 42
-13 24 4 21 33 42 18 80 68 78 40 63 163 196 178 151 102 89 88 94 87 56 48 43 81 19 4 -22 -40 -33 -33 -7 20 23 40 72 87 111 125 122 127 115 118 117 125 107 98 103 93 91 86 62 46 37
-6 12 2 3 42 48 45 64 168 104 152 152 186 182 161 133 108 109 118 84 70 61 59 62 21 42 20 -7 10 -5 10 23 55 51 111 101 87 68 81 89 87 105 115 116 99 89 82 75 74 69 54 68 90 102
14 -3 -5 21 54 96 68 200 179 219 199 161 142 148 147 139 148 119 119 111 91 49 53 53 39 47 42 15 17 2 40 56 72 74 114 120 71 54 57 59 77 100 109 107 108 99 105 101 95 91 108 115 117 121
21 16 18 36 104 88 260 217 114 113 155 156 195 156 167 151 166 148 124 118 73 40 52 50 76 68 56 39 42 50 61 82 77 109 112 105 50 39 42 62 77 105 112 114 123 136 133 133 123 121 116 119 120 120
69 67 39 134 161 274 186 135 88 185 224 258 231 202 153 138 125 77 58 50 70 72 90 96 115 74 57 69 53 84 76 105 156 140 116 81 33 24 52 83 112 119 134 137 146 150 144 131 116 101 109 116 117 117
65 81 81 190 174 165 141 119 209 239 260 300 204 144 153 82 82 97 126 125 116 97 153 149 135 84 95 77 63 79 102 115 122 113 89 35 31 75 95 121 131 132 151 166 178 168 141 124 109 88 92 102 120 130
69 56 162 292 201 116 168 201 273 290 300 251 174 117 78 105 107 115 130 129 115 131 164 152 107 104 88 81 90 94 159 120 94 75 61 90 92 101 122 131 129 141 156 165 163 160 133 104 77 73 78 94 108 139
87 113 110 135 219 114 174 358 333 313 289 244 176 85 65 86 84 91 106 118 97 138 126 104 119 93 69 99 104 91 93 79 57 61 76 99 113 116 115 120 132 144 164 175 182 148 135 121 106 98 96 87 111 135
149 136 24 130 244 256 400 335 348 329 289 260 169 115 72 119 110 123 124 112 145 129 101 92 57 85 73 89 66 58 59 71 80 88 106 105 104 106 121 125 140 164 187 203 195 160 133 122 122 120 111 100 104 91
111 93 134 400 435 462 340 326 423 311 303 214 115 150 144 188 215 174 144 131 125 98 81 87 92 60 45 49 67 64 69 87 97 95 98 103 110 113 120 139 159 186 197 210 178 156 143 150 151 117 107 110 103 76
86 190 490 373 345 458 371 374 337 311 269 173 116 186 242 231 241 196 155 153 125 114 104 77 47 42 53 52 57 86 95 103 111 93 84 112 130 127 139 157 172 181 175 158 143 126 157 161 129 108 113 112 96 71
122 494 416 462 480 405 281 474 393 270 238 157 184 249 284 307 248 202 193 177 157 103 77 34 32 49 64 77 85 89 100 102 92 103 110 110 116 136 151 150 152 150 144 123 131 130 131 145 116 108 109 96 97 90
536 519 637 550 457 446 306 489 330 312 191 157 281 307 260 240 231 205 188 155 100 52 35 26 26 44 71 83 81 93 98 96 98 102 105 122 156 167 153 150 162 132 129 132 150 160 146 125 117 113 101 84 69 57
564 581 745 569 481 324 407 473 411 304 190 259 293 297 294 263 192 192 167 113 73 48 49 62 70 85 120 107 103 102 91 101 110 116 134 156 161 163 156 136 113 126 126 145 156 149 148 116 104 103 85 72 61 50
683 765 684 622 367 233 430 460 397 340 275 324 284 301 291 263 215 207 113 88 64 63 70 79 96 160 148 126 105 86 82 102 111 121 139 156 160 137 101 88 115 148 176 166 144 132 125 111 84 80 78 75 69 55
409 499 420 425 385 304 434 424 453 419 432 408 377 320 324 281 205 114 66 63 52 46 65 91 125 138 123 100 86 80 90 113 117 123 134 154 142 104 98 117 130 142 156 112 96 83 98 99 88 92 91 87 84 43
450 335 306 363 317 300 386 365 347 390 485 435 358 331 304 250 140 53 66 35 46 47 44 82 136 130 103 85 96 92 97 121 140 154 118 134 119 124 124 126 129 101 124 115 94 93 101 92 89 79 94 79 23 -10
252 266 332 387 314 341 365 405 429 408 361 280 300 332 266 174 111 75 82 52 61 50 75 107 111 103 91 82 78 90 104 124 130 114 91 102 120 126 149 148 103 107 98 93 93 102 95 78 70 67 66 49 42 33
200 295 247 349 366 394 407 468 421 310 245 254 254 167 97 46 67 49 75 73 101 172 178 151 131 114 100 79 84 101 114 94 78 88 106 120 129 125 113 109 118 60 84 99 86 84 69 61 70 64 50 43 30 -2
288 369 392 474 449 465 421 367 327 304 253 274 237 171 107 106 96 103 101 98 102 145 134 128 113 104 100 93 107 103 93 107 114 103 105 87 98 77 88 95 104 102 104 104 68 50 35 38 29 35 25 22 14 5
391 429 489 527 482 410 368 349 321 296 264 248 192 202 194 177 128 102 89 94 94 73 68 75 69 58 65 87 90 92 84 100 94 96 90 79 83 91 85 91 80 87 90 88 90 90 39 48 34 30 18 7 -9 -29
451 436 492 580 479 499 440 356 269 202 174 157 195 192 199 139 108 76 64 75 88 120 119 88 62 53 85 92 98 102 101 70 73 73 71 66 76 98 114 103 91 78 74 65 61 72 75 58 41 27 7 -8 -21 -28
452 397 404 579 543 480 361 228 192 207 253 235 239 190 160 129 81 47 48 100 100 73 43 61 75 51 52 82 89 87 70 74 60 55 31 52 80 113 81 58 48 52 49 42 44 47 59 58 51 35 22 6 -4 -10
535 525 497 475 432 290 263 228 243 212 221 181 162 120 104 94 82 74 72 29 46 31 38 39 67 89 89 89 96 80 66 52 32 17 12 4 7 25 28 28 46 39 41 36 33 37 44 48 52 48 35 23 16 20

GFSWCAN_con_3kmhel_075.txt.gz
Helicity
59 -61 -24 -5 11 46 66 58 15 39 17 -29 41 70 100 133 132 75 103 144 60 43 175 135 130 118 108 56 -20 -7 -16 -1 -39 -41 -54 -60 -75 -55 -60 -46 -43 -16 -4 4 24 33 2 8 41 56 33 26 14 27
50 -57 -20 -4 22 47 72 60 24 87 30 -6 66 35 28 49 -4 23 82 126 114 69 109 150 142 148 118 95 62 110 -27 2 -29 -44 -38 -39 -46 -57 -45 6 -18 21 10 6 29 20 14 16 39 59 64 71 86 84
43 -15 -18 4 16 45 81 53 4 33 34 33 58 75 92 11 25 25 61 85 95 95 135 138 173 208 160 131 106 14 63 -12 4 20 -13 -33 -23 -6 11 0 3 -2 26 35 35 34 52 66 90 110 129 125 117 106
41 18 -16 2 26 50 71 43 43 6 35 25 37 50 17 27 31 45 58 65 59 58 45 96 145 139 194 145 99 80 13 61 65 51 11 -17 -13 -4 15 25 28 33 45 58 56 46 69 66 93 118 124 131 126 117
38 14 -11 12 29 53 69 38 64 43 17 31 21 35 51 53 45 78 55 68 59 41 39 94 117 154 163 136 111 104 76 66 63 21 0 -8 8 11 18 23 25 54 67 89 67 59 88 62 94 114 110 96 91 92
22 16 5 21 26 48 58 32 0 65 18 45 43 29 47 61 92 100 76 73 71 27 34 91 85 94 129 118 111 118 89 75 63 33 9 2 28 29 21 25 19 42 65 77 78 87 110 127 129 141 130 125 126 131
15 11 20 31 26 47 57 27 33 56 39 40 62 47 58 78 37 77 41 62 87 45 63 82 93 92 103 88 76 85 81 55 43 17 -10 -9 0 28 42 56 46 65 86 109 113 126 136 125 132 128 136 129 128 127
15 4 20 43 22 35 59 83 47 82 64 34 55 92 79 64 41 66 74 102 81 41 74 78 68 97 89 62 44 53 23 32 37 -8 -13 1 15 33 49 63 87 107 112 107 109 120 134 142 149 154 134 121 116 100
13 1 -21 38 16 25 37 75 22 46 56 37 27 68 81 84 57 49 86 89 53 47 83 77 59 34 55 48 18 16 8 -7 -9 0 4 22 44 53 64 82 89 100 112 106 105 117 146 158 149 139 121 117 118 102
9 7 -17 29 17 23 40 77 47 62 36 76 128 167 128 67 98 109 111 112 122 92 75 77 68 50 65 50 12 9 2 5 14 16 27 50 60 73 87 78 100 117 115 122 139 139 151 136 124 125 128 118 103 90
5 18 -15 10 20 21 44 85 78 57 82 165 192 185 87 96 107 159 134 110 101 92 66 44 42 73 74 30 29 10 17 36 49 38 93 74 63 63 96 92 100 108 122 136 131 132 130 125 125 128 119 123 129 126
6 17 -37 8 14 19 40 115 95 139 105 191 151 113 129 131 137 127 122 120 92 87 58 68 70 87 68 41 33 19 42 51 57 54 94 99 75 67 62 45 73 100 113 114 129 127 134 136 138 138 139 135 127 117
22 45 -14 26 19 40 65 105 117 61 123 197 220 181 173 128 137 106 101 126 113 63 57 85 99 77 71 55 53 55 73 73 72 96 111 101 80 43 39 51 83 105 114 122 129 145 149 148 155 159 141 131 119 123
47 10 28 24 50 47 64 89 119 119 173 267 249 198 161 128 110 78 88 92 85 79 100 128 115 92 89 91 58 91 82 88 124 137 103 90 45 39 54 90 116 119 132 130 135 156 166 167 166 146 131 116 105 101
18 27 30 48 59 31 63 94 168 235 243 276 241 178 122 151 106 80 82 105 116 88 176 154 138 98 120 104 88 96 97 108 96 91 100 68 51 70 92 116 119 115 131 146 175 190 181 182 181 151 110 85 87 88
47 83 80 19 25 40 189 372 366 291 314 261 217 142 139 156 130 114 109 125 125 123 167 183 137 127 129 102 107 98 138 103 99 97 71 75 102 113 111 118 114 124 145 162 179 210 203 201 185 153 109 96 102 109
163 160 98 169 383 406 477 520 379 332 335 271 221 192 109 148 117 99 107 137 124 152 207 189 176 140 107 130 109 81 98 98 80 69 73 96 124 117 118 119 124 135 151 164 189 191 224 227 184 135 112 107 122 104
247 123 140 335 531 546 527 411 375 277 272 266 238 225 136 99 86 120 135 176 156 170 169 158 118 136 116 96 68 67 80 92 81 87 110 112 120 127 137 129 136 153 164 164 184 200 202 174 163 146 128 123 116 92
196 156 217 304 398 334 299 352 337 207 196 245 241 234 164 93 164 148 209 183 158 164 123 133 131 112 75 63 87 78 75 84 93 97 105 118 137 149 142 150 163 174 178 187 181 170 162 162 163 157 158 157 148 125
117 112 181 158 270 366 319 261 266 223 153 216 238 215 127 155 194 223 216 200 179 169 164 133 84 54 73 77 71 79 73 87 103 108 110 125 137 153 166 177 180 178 178 150 131 117 144 151 147 152 154 146 147 130
92 22 40 306 368 294 246 188 269 212 191 274 258 212 171 228 256 241 222 207 180 149 124 82 89 103 122 116 91 91 95 83 87 93 97 114 131 148 156 152 155 155 140 116 115 127 149 147 137 143 140 130 121 105
159 233 387 273 243 279 235 241 229 183 248 339 285 227 204 222 255 238 219 201 161 127 102 87 58 94 112 78 67 83 84 104 100 97 107 116 127 135 142 158 147 120 114 135 143 140 135 130 124 124 125 109 88 79
369 477 375 290 215 286 212 303 307 306 218 330 342 311 283 259 250 248 235 184 152 128 109 100 100 95 96 81 98 108 101 99 97 107 112 126 152 159 155 144 130 135 136 140 128 123 129 105 112 114 103 94 88 78
347 438 365 273 240 229 285 322 365 383 328 345 339 296 319 285 294 277 243 186 150 115 109 118 137 156 115 105 99 88 81 89 111 110 116 138 142 142 128 97 102 128 133 115 113 121 132 129 97 109 109 101 103 112
272 201 148 180 295 285 315 372 364 385 314 319 340 341 312 331 329 287 239 184 135 106 117 121 114 100 88 85 81 79 71 98 112 113 115 169 136 118 94 94 117 121 115 99 97 109 127 125 112 99 92 87 87 64
267 201 214 192 309 284 269 305 300 306 358 331 334 278 314 291 265 207 229 145 113 77 81 83 102 93 90 79 94 83 78 100 120 116 115 137 118 112 87 93 94 105 107 95 92 94 108 105 89 71 65 49 0 3
212 197 359 421 337 367 337 315 333 319 298 227 283 282 298 244 244 267 218 154 99 41 56 92 107 97 92 95 97 90 93 101 111 109 107 103 87 80 108 97 83 90 83 79 80 90 91 85 74 69 59 58 53 43
186 171 272 329 351 414 339 295 230 213 274 294 261 296 259 211 202 215 155 122 144 220 237 190 159 145 132 113 95 85 85 97 105 114 117 103 99 98 97 98 95 51 67 77 63 77 81 74 77 62 50 39 28 14
202 283 332 372 371 375 310 242 243 260 320 294 325 385 366 285 242 186 149 176 189 243 209 173 159 159 161 118 97 88 92 108 130 137 133 107 99 82 89 88 84 82 86 81 38 40 41 46 40 44 37 28 19 5
322 338 305 343 333 278 310 251 264 307 304 312 280 265 283 266 231 203 193 176 134 105 88 90 92 101 77 82 67 63 75 79 88 113 111 87 77 84 85 79 69 71 76 67 62 59 31 62 47 44 31 12 2 -10
344 331 333 397 354 378 366 369 389 364 351 342 358 293 289 234 226 192 151 142 124 131 149 131 83 60 91 69 61 82 64 47 64 73 71 70 74 84 89 74 65 70 68 59 49 47 44 45 49 52 41 21 0 -8
392 359 278 372 427 408 449 431 366 295 340 302 307 295 302 287 207 103 67 111 113 95 73 78 87 33 14 45 72 76 95 104 73 52 50 66 80 92 62 47 42 54 52 47 43 43 44 43 42 45 46 40 30 18
456 463 481 468 461 410 400 299 270 214 200 197 241 260 258 217 122 75 87 69 64 50 55 52 74 74 65 64 72 74 89 79 63 56 59 42 32 36 50 41 59 59 55 45 42 41 36 36 36 38 35 41 44 38

GFSWCAN_con_3kmhel_078.txt.gz
Helicity
87 55 -38 -42 -10 9 70 44 -9 83 11 19 90 128 148 141 86 47 19 53 -6 5 150 87 82 69 74 34 -37 -21 -19 -8 -51 -54 -56 -53 -59 -37 -35 -28 -12 9 27 24 28 36 22 13 19 28 33 54 57 64
64 50 34 -32 -11 2 52 55 -1 50 -5 21 34 49 101 112 112 71 35 59 64 24 81 102 108 118 98 82 13 1 -40 -9 -41 -49 -41 -42 -34 -38 -21 1 -0 10 35 36 54 48 40 37 43 61 73 85 83 89
43 37 29 -26 -8 7 54 74 28 9 15 35 49 16 42 74 50 43 37 86 59 63 120 116 137 167 134 96 62 -42 -55 -26 -21 -6 -28 -34 -30 -11 6 -0 18 32 68 58 51 55 56 66 75 90 102 107 106 106
53 24 23 -4 7 15 38 60 38 33 6 8 11 18 -33 -22 16 33 30 69 63 44 28 87 120 106 168 116 71 66 4 32 26 31 2 -21 -22 -11 9 22 35 56 80 75 60 52 60 63 79 106 120 121 125 125
64 34 18 9 11 22 27 41 37 23 -3 13 25 -2 -8 32 70 84 50 70 68 47 18 61 109 128 146 138 118 105 48 33 29 16 14 -5 10 15 21 35 44 77 89 104 74 69 83 65 82 119 137 134 136 132
56 21 20 8 11 30 29 45 31 19 3 16 13 39 45 66 99 94 55 53 74 49 20 44 79 103 141 142 129 126 102 66 51 35 23 13 27 25 29 33 27 51 64 84 90 95 95 108 115 139 143 138 133 123
46 23 9 2 11 47 26 42 27 46 37 47 61 52 72 71 109 77 26 25 75 58 29 51 75 88 102 104 87 78 78 51 45 29 10 9 5 27 42 71 54 68 89 106 118 124 130 137 158 155 156 154 151 143
37 18 14 2 -0 59 38 77 17 20 43 42 51 55 77 69 78 65 43 66 73 57 48 51 60 91 102 74 60 64 28 32 33 16 1 5 16 31 37 55 80 114 126 122 132 135 139 159 174 171 172 164 157 150
35 10 11 8 15 58 62 70 5 37 21 42 54 58 72 97 104 56 49 88 72 57 43 50 47 36 97 81 66 52 32 10 4 6 11 19 40 56 48 74 91 105 125 134 138 140 155 175 163 164 167 160 156 150
33 2 8 12 25 55 91 61 14 23 33 52 79 117 103 113 47 56 107 89 91 68 63 56 72 60 75 82 52 35 23 18 19 15 38 49 47 67 85 95 109 121 111 141 161 162 175 165 159 156 158 145 147 144
37 3 12 26 36 56 101 69 28 78 85 104 128 98 74 80 98 126 102 94 92 86 61 60 73 89 50 58 58 27 24 29 45 37 82 69 61 68 97 116 117 118 139 155 157 155 153 155 155 158 149 160 149 137
28 -2 20 22 46 55 73 87 87 142 79 143 109 78 98 129 142 136 131 129 86 68 58 79 96 121 91 63 56 23 47 49 58 59 93 84 68 69 74 69 78 116 140 147 142 142 143 145 152 159 153 145 151 150
22 7 10 24 43 56 72 101 85 108 124 171 205 178 150 132 154 147 145 150 109 36 63 106 157 139 117 78 65 63 63 68 71 90 91 76 79 60 48 82 99 117 130 134 135 152 152 156 169 185 171 179 154 133
17 3 23 13 55 80 89 90 87 146 190 218 240 229 142 134 124 113 73 91 87 72 94 169 182 136 120 110 78 91 79 87 99 105 81 61 65 71 87 98 121 130 133 128 133 148 162 174 184 198 212 183 159 133
14 17 41 58 79 90 100 86 100 230 207 239 229 188 127 139 104 123 108 97 96 94 210 182 150 113 140 124 88 101 100 99 81 78 62 85 92 90 107 119 126 131 140 135 162 176 177 196 233 225 202 181 146 122
19 51 95 81 73 111 141 200 273 269 222 208 218 171 118 134 114 97 110 88 108 154 190 156 157 166 158 134 120 116 150 94 85 60 94 114 108 122 140 139 138 137 139 147 167 192 189 209 227 226 199 168 153 158
45 134 109 97 85 135 219 259 218 193 123 164 124 165 108 73 46 116 107 80 114 200 208 192 201 173 138 165 134 101 101 93 78 104 105 97 125 139 136 135 140 150 162 179 185 184 196 189 179 180 176 171 186 179
119 178 85 111 159 121 354 268 210 169 112 100 56 60 117 86 54 135 123 132 187 188 182 172 143 172 160 126 97 73 73 110 131 117 103 123 127 132 137 142 146 166 177 186 189 168 147 141 157 173 190 185 183 167
178 231 124 196 335 385 363 370 313 129 108 83 99 77 111 97 100 135 127 200 240 203 164 163 162 151 122 86 75 51 67 111 107 99 117 123 132 134 139 150 165 170 176 179 162 140 147 160 172 181 175 173 181 161
180 270 192 248 260 275 355 380 380 209 94 135 160 138 130 128 157 159 223 219 209 181 175 161 145 101 88 54 32 46 88 96 125 117 104 109 113 132 145 153 158 160 162 139 130 151 156 147 145 142 136 139 151 137
334 244 321 330 365 180 228 265 306 259 206 160 199 229 167 190 166 191 188 221 208 194 156 120 114 102 87 98 110 142 115 97 90 86 88 99 119 143 147 153 167 160 153 140 138 124 124 122 113 119 127 122 120 117
409 469 337 201 233 254 250 226 182 146 215 158 192 249 174 153 191 192 212 208 207 163 124 113 65 63 108 120 131 130 111 117 101 95 103 110 118 121 130 148 146 140 133 121 130 119 116 107 105 115 115 109 97 104
521 468 381 281 153 180 171 291 229 278 194 155 265 191 173 182 161 217 216 182 201 162 161 118 83 95 141 147 154 149 109 87 82 81 91 99 111 119 140 147 150 149 126 120 111 111 112 78 100 107 100 93 89 97
575 490 252 222 251 229 216 331 326 264 311 254 196 217 208 214 190 245 215 215 197 191 162 111 140 188 200 169 119 84 76 79 87 79 81 105 116 130 139 135 130 121 109 99 101 109 112 113 97 105 96 80 82 78
589 364 244 263 230 258 322 373 318 317 225 244 217 208 214 202 250 246 202 203 214 167 122 102 97 131 148 123 92 74 64 79 86 80 75 105 115 133 137 116 109 92 110 96 105 111 111 116 125 110 88 66 57 44
521 339 330 213 263 201 213 288 234 233 242 240 233 213 232 203 219 157 176 170 205 146 98 94 136 163 134 99 85 66 53 74 95 89 72 103 117 133 120 111 108 88 93 90 94 93 99 100 103 88 75 52 13 20
502 343 322 208 359 392 375 283 257 303 246 155 175 267 215 172 128 181 182 245 201 146 133 111 138 151 131 112 138 137 111 86 81 85 100 101 110 100 103 105 91 82 76 82 88 90 87 83 83 80 72 58 49 38
275 176 227 272 247 409 344 325 245 247 225 212 228 211 183 126 172 216 204 233 215 266 283 237 198 173 166 138 132 115 103 85 105 126 139 131 103 75 81 88 72 30 67 70 66 79 80 74 81 76 58 46 37 28
224 177 273 348 475 321 305 282 239 266 281 213 194 175 204 214 159 199 235 263 249 347 299 279 265 268 269 208 147 107 77 85 117 105 100 87 98 68 77 65 61 71 69 70 40 40 38 49 60 66 60 52 41 29
275 249 233 332 341 278 309 333 266 268 319 310 256 208 187 211 230 207 189 184 180 193 224 212 159 142 117 109 94 78 64 74 79 100 99 84 72 61 63 54 57 61 65 73 66 62 48 62 49 52 49 46 47 41
153 162 252 263 243 356 395 328 349 314 294 282 245 225 259 272 296 234 147 154 216 264 258 192 141 103 111 89 77 84 53 25 61 83 84 82 61 61 61 51 55 64 75 75 63 59 54 51 52 49 43 41 35 40
133 214 255 261 333 350 384 353 303 300 308 298 300 270 314 315 234 148 137 195 226 207 138 113 107 42 43 66 68 67 68 94 68 51 54 46 58 75 59 50 67 79 82 75 63 56 52 48 47 43 38 35 39 44
172 334 392 353 361 330 363 296 289 274 283 265 267 277 278 264 211 187 146 123 103 74 77 78 111 108 70 61 61 73 92 90 86 70 46 29 48 82 73 72 80 82 87 76 62 57 54 48 43 38 29 32 35 41

GFSWCAN_con_3kmhel_081.txt.gz
Helicity
100 67 54 49 -27 -5 44 69 56 39 3 11 28 83 60 -2 -14 -9 -5 22 -25 -4 45 24 37 18 3 -18 -51 -41 -44 -28 -50 -61 -52 -43 -47 -44 -43 -27 -2 25 41 41 43 35 33 40 35 49 46 50 61 75
89 63 45 36 -18 -6 12 56 84 55 -13 -18 -35 -49 -13 -20 -16 -0 -11 13 19 -8 22 33 44 51 42 15 -70 -47 -64 -53 -62 -73 -55 -52 -35 -40 -10 26 10 31 49 43 51 43 55 52 49 70 70 77 79 90
77 66 51 35 10 2 -2 38 84 65 -16 3 -27 -72 -56 15 61 49 32 11 23 23 75 63 76 84 72 45 8 -69 -54 -40 -54 -43 -48 -32 -12 -3 15 21 26 31 62 53 36 42 49 67 73 77 91 102 118 113
68 61 49 38 35 -3 1 18 36 86 9 -7 -0 -7 -31 21 30 30 27 23 25 10 7 40 78 81 122 75 -36 -45 -36 -26 -9 -20 -19 -11 -9 12 16 27 42 50 77 64 49 43 54 64 77 96 118 137 135 132
65 48 55 35 26 17 12 1 36 36 64 15 30 22 -1 1 17 46 33 41 35 11 3 33 86 96 123 111 70 45 16 21 10 3 9 3 5 16 23 32 56 90 91 108 68 66 86 80 83 125 144 143 138 140
69 48 46 38 22 15 8 4 12 22 74 14 10 45 8 32 31 42 65 53 60 45 38 31 55 96 126 123 114 100 77 64 36 25 20 16 28 18 29 34 19 50 64 82 95 92 110 120 124 139 153 150 154 158
61 49 50 46 23 22 10 11 -19 16 34 13 8 46 45 52 64 48 47 18 66 55 45 45 41 83 107 110 95 89 90 65 43 29 22 29 22 30 42 93 79 71 86 101 114 138 135 127 131 141 161 178 171 169
57 55 47 44 29 21 29 41 11 -3 25 30 17 56 86 87 84 70 31 45 60 67 59 48 42 56 95 83 72 79 60 56 44 30 20 12 18 43 27 39 60 97 123 131 141 132 135 152 173 182 190 190 186 176
54 58 53 45 29 21 36 76 87 109 23 29 39 81 105 124 104 87 34 75 65 64 50 51 55 42 92 95 74 64 63 25 21 17 24 19 43 45 32 68 89 96 109 127 146 146 153 154 167 176 180 176 174 167
55 63 63 50 31 32 49 82 90 113 64 74 119 118 93 86 83 70 85 85 94 101 96 47 63 59 69 105 77 57 47 43 28 22 28 35 42 49 80 104 113 125 155 158 168 145 160 163 166 170 168 164 161 156
56 67 65 52 35 37 57 88 110 173 124 76 117 118 64 79 90 111 86 99 105 91 80 78 80 70 56 95 81 45 49 51 61 39 57 40 36 44 78 124 128 137 121 135 154 168 168 165 163 164 158 160 169 177
61 64 69 50 30 39 60 89 133 141 88 59 74 70 79 112 120 112 120 139 97 78 87 89 105 110 82 90 92 60 83 82 71 54 76 49 34 51 85 99 105 117 144 153 156 150 145 137 147 173 178 171 198 198
65 59 59 53 20 36 59 76 103 143 129 113 157 153 126 108 134 124 104 111 136 71 46 110 153 140 123 120 120 99 113 104 80 93 71 47 64 61 89 110 114 118 140 148 140 151 142 142 167 202 193 209 217 214
66 58 46 34 23 30 53 88 155 189 188 154 130 162 107 133 114 73 63 68 85 87 92 165 195 152 153 162 105 135 118 118 117 99 60 67 42 77 127 126 143 137 142 136 144 152 155 175 179 184 219 217 228 218
60 52 47 20 7 18 97 141 184 255 193 178 122 101 92 114 66 30 29 54 76 93 152 168 185 141 162 159 124 130 116 106 77 66 65 50 91 144 142 129 145 153 145 149 154 167 176 189 200 191 177 186 198 198
62 70 63 5 28 93 157 312 261 230 188 213 181 139 81 94 68 46 54 62 79 96 147 155 149 154 157 168 159 126 148 107 81 64 73 115 162 152 135 149 159 155 154 155 166 171 177 190 190 163 152 166 179 187
86 138 64 64 93 167 303 291 238 203 172 227 211 140 93 65 41 19 38 66 93 140 152 154 161 141 145 189 165 120 104 77 66 94 103 142 151 132 141 152 155 162 165 168 168 176 175 164 152 167 159 148 158 156
166 100 50 100 187 362 377 287 242 242 280 225 235 153 110 89 28 33 14 60 134 147 120 165 143 169 174 150 102 81 77 103 131 117 146 153 134 138 136 145 151 156 161 156 154 147 147 153 149 136 135 131 129 144
143 85 60 153 301 350 342 351 350 359 314 245 228 227 118 65 116 44 -5 53 130 133 154 144 156 114 115 95 80 64 67 95 110 127 155 127 122 123 129 137 137 140 145 141 148 151 141 139 134 137 134 128 135 146
68 52 55 163 259 309 352 327 327 336 269 170 240 307 182 91 111 83 44 129 139 157 169 155 131 107 83 117 75 56 62 105 159 170 116 95 99 115 124 118 119 125 135 139 142 167 141 133 130 118 104 108 120 117
107 68 31 318 266 282 347 304 312 262 248 225 210 285 186 186 170 142 88 170 169 181 166 84 94 114 118 116 98 115 101 108 99 80 70 77 82 110 114 114 114 130 147 154 153 133 130 113 104 91 98 98 84 74
359 394 349 323 255 303 296 249 266 266 281 266 307 256 116 134 169 191 163 161 159 144 83 35 114 154 166 149 133 118 126 163 149 144 148 123 95 102 104 105 128 142 133 130 124 108 104 98 84 78 84 79 57 77
359 448 309 311 259 313 298 300 322 266 262 266 373 247 130 123 175 236 149 71 136 98 83 106 159 190 208 200 182 175 143 135 115 109 103 93 98 102 111 114 117 127 135 120 109 103 101 71 65 70 84 73 67 75
410 416 363 325 389 325 313 417 400 380 336 280 318 252 128 203 176 155 92 132 147 150 129 154 215 248 235 174 126 125 96 94 121 115 77 86 94 86 105 110 122 118 121 104 100 98 93 88 62 72 81 87 81 73
549 374 315 483 489 475 441 453 504 483 386 392 317 188 134 149 131 127 101 139 166 153 160 196 174 157 145 125 148 124 59 72 94 84 53 72 106 117 116 122 126 112 100 104 96 100 100 92 84 87 84 78 63 47
468 443 528 574 645 507 501 493 459 467 418 365 311 237 172 135 112 47 81 139 172 200 188 162 155 144 107 140 160 77 59 86 111 94 62 70 87 104 112 135 127 88 74 86 88 93 91 80 73 70 83 71 30 36
464 467 537 575 574 642 612 565 503 480 395 315 329 267 234 113 25 41 113 165 219 175 220 243 187 135 124 173 137 150 162 128 102 84 104 100 94 99 121 119 97 71 59 63 80 79 78 68 66 69 80 85 60 41
367 421 476 589 754 688 561 553 490 424 345 313 339 225 85 47 10 55 103 186 173 292 380 342 246 197 213 214 175 226 204 163 161 164 159 129 100 85 107 94 70 43 69 62 58 63 65 62 66 66 68 65 63 49
423 434 505 541 605 556 422 336 326 355 412 418 299 133 149 176 127 129 139 206 247 300 399 396 356 357 380 302 232 180 159 139 154 114 76 71 73 51 52 51 54 55 50 48 35 44 40 63 55 62 59 57 54 51
469 478 523 477 377 343 374 393 347 327 369 365 356 220 137 125 145 111 125 240 254 275 365 369 359 263 243 177 159 188 89 55 72 79 85 72 60 89 76 54 59 53 51 59 56 52 60 66 51 48 48 50 50 51
411 455 465 410 336 342 273 352 362 305 294 263 312 225 172 105 95 102 158 245 306 335 360 314 235 223 185 170 142 125 73 33 56 69 110 148 125 86 64 70 65 64 65 64 73 74 69 67 57 51 59 59 49 53
547 431 425 382 352 284 234 297 344 286 260 235 213 216 145 102 83 94 122 208 222 215 186 180 173 82 121 145 120 89 81 117 72 74 117 106 87 69 71 72 71 73 68 78 84 76 72 73 58 57 57 51 47 48
558 517 471 381 337 320 271 260 228 211 227 215 188 178 159 115 73 117 178 171 185 199 152 169 213 212 150 116 103 106 106 106 105 103 97 91 84 78 77 80 71 68 87 84 86 76 80 73 62 60 56 50 45 46

GFSWCAN_con_3kmhel_084.txt.gz
Helicity
99 68 62 44 23 19 20 41 33 20 16 -35 -45 -7 -29 -46 20 8 -6 10 5 -6 9 19 6 1 -1 5 -13 -36 -30 -44 -67 -66 -52 -47 -36 -48 -28 -19 1 15 17 22 23 25 24 30 35 38 53 61 63 61
95 70 58 45 27 25 20 30 65 25 31 14 -25 -42 -32 28 13 6 -34 6 25 -21 0 22 12 -3 -9 -20 -34 -37 -48 -55 -70 -71 -49 -47 -26 -28 -21 1 -1 15 15 17 26 31 38 48 33 51 61 66 71 76
80 67 51 38 21 14 23 24 32 65 40 27 10 28 3 17 37 -4 -20 6 -1 13 11 14 0 -2 -12 -31 -42 -47 -53 -49 -40 -46 -45 -35 -11 -8 2 14 17 21 36 36 23 46 45 52 53 58 72 81 105 126
82 68 52 41 29 15 10 26 36 35 35 29 0 105 63 38 35 -7 -7 -2 4 16 11 16 40 -1 39 -20 -40 -51 -46 -27 -17 -7 -25 -17 -13 -5 4 2 22 34 50 43 38 37 54 66 74 82 103 118 131 129
76 67 56 47 30 13 16 13 20 45 35 24 13 85 113 76 33 -14 -7 3 3 6 24 35 50 54 85 93 30 -24 -38 -19 -9 -6 -4 -2 22 9 10 12 55 117 99 85 51 77 80 87 83 111 129 137 144 140
73 59 49 52 32 19 8 13 13 38 49 15 8 47 96 86 28 22 5 14 25 26 38 39 49 59 89 100 103 82 52 30 25 5 8 12 36 17 10 30 18 43 47 61 75 89 95 115 125 135 146 154 156 153
68 63 48 43 39 25 7 -3 17 26 59 35 11 34 56 80 73 61 30 27 30 29 34 48 40 66 92 93 87 85 84 61 56 29 11 27 32 28 29 77 71 75 80 86 97 127 116 112 125 143 157 157 160 160
68 62 51 45 44 24 17 4 12 27 77 90 40 46 74 97 124 76 43 42 29 37 50 52 53 50 83 80 79 95 80 68 64 63 37 35 37 38 24 38 46 82 105 106 113 113 132 147 166 164 160 155 146 153
75 71 51 51 46 34 34 30 62 127 114 99 71 42 66 101 120 106 58 45 46 53 56 48 57 47 66 104 94 81 81 55 61 47 55 40 51 47 25 44 77 104 98 105 145 140 132 146 158 153 151 152 156 160
81 75 54 54 46 47 59 58 91 128 109 95 58 85 56 75 99 87 77 61 61 98 102 60 85 62 52 91 104 87 74 76 56 53 71 56 45 33 58 86 103 128 137 173 170 135 140 147 148 158 154 152 169 174
82 73 53 49 57 59 58 72 119 147 74 65 106 100 61 50 62 91 88 69 81 55 61 86 128 91 65 98 107 83 90 74 70 75 77 59 51 42 64 135 139 155 168 137 143 164 167 164 167 157 147 162 178 190
88 72 50 54 63 60 69 87 150 116 89 73 70 70 73 85 100 90 89 84 50 47 49 54 89 156 101 89 115 99 93 83 91 76 93 69 45 55 76 89 124 151 155 162 161 164 156 150 151 145 156 174 199 213
92 71 47 55 67 62 60 76 101 120 102 88 91 126 109 91 119 74 81 59 46 26 38 60 92 122 115 101 122 108 99 94 88 103 96 51 62 74 73 114 157 160 161 170 166 153 149 136 147 165 165 181 188 173
101 71 54 59 68 64 60 82 154 143 153 162 163 145 139 135 88 46 66 70 47 28 29 85 95 91 123 120 110 120 121 105 116 112 65 64 55 78 110 146 178 146 144 156 154 156 151 159 160 175 194 199 191 181
113 80 64 59 69 67 59 142 198 156 172 199 184 206 147 183 176 84 31 52 37 43 89 91 87 81 99 134 125 148 124 125 94 80 67 57 99 135 155 176 169 154 149 150 149 151 166 180 176 164 184 169 170 172
125 110 89 41 61 69 78 309 224 175 178 221 263 288 197 160 132 52 27 35 29 55 80 94 84 82 87 136 146 120 166 122 90 44 63 123 136 150 175 165 149 141 148 152 151 162 173 176 166 155 146 156 149 155
163 196 76 33 50 71 274 279 275 245 226 344 318 297 267 218 154 123 32 52 39 74 106 94 99 110 109 113 153 117 113 93 87 80 104 121 140 169 167 158 135 133 143 144 155 166 162 162 157 162 149 133 128 121
233 109 100 93 142 347 424 311 307 336 402 324 278 246 239 208 133 103 18 0 103 129 122 139 107 98 106 73 64 49 81 124 138 128 143 150 182 158 138 135 122 132 136 145 156 147 151 162 157 145 118 114 106 109
163 111 131 231 311 365 332 364 369 403 318 289 295 257 242 209 189 162 95 -6 85 125 142 126 114 76 53 40 60 61 79 111 130 149 162 167 140 137 134 127 129 131 134 145 150 145 150 140 132 116 113 104 96 83
93 118 148 223 271 275 264 267 327 405 332 268 302 269 240 223 212 194 176 132 133 61 78 128 138 62 15 57 34 76 102 145 197 185 143 123 123 128 108 102 112 116 137 144 133 137 137 137 132 120 101 72 75 75
178 157 95 285 280 262 292 309 374 338 332 308 276 244 229 240 227 195 204 255 248 200 151 101 116 65 -33 -42 32 88 134 137 104 104 111 118 99 95 98 107 104 116 132 127 123 131 138 133 109 91 71 69 72 57
238 237 358 329 292 293 282 315 368 378 347 275 230 207 232 230 219 213 262 302 274 229 178 171 139 100 20 57 117 104 130 159 151 155 175 187 129 94 90 93 101 122 125 123 130 138 128 106 84 73 65 65 65 53
356 322 290 319 299 320 300 365 455 401 350 255 281 262 220 208 210 247 247 277 191 192 205 208 183 153 65 140 197 197 192 173 173 154 147 129 126 118 123 102 112 123 120 117 124 121 107 81 75 61 62 64 66 55
352 342 290 313 387 422 417 458 458 481 493 442 365 275 199 214 232 235 244 260 152 163 214 188 219 250 231 218 191 166 164 163 177 156 124 135 114 98 93 107 116 111 118 124 127 116 95 83 64 66 65 68 63 51
428 306 312 450 497 628 694 639 615 548 507 483 414 361 281 295 270 266 299 183 154 175 223 252 236 234 243 246 195 172 161 146 122 109 96 99 124 132 111 112 102 105 116 134 128 99 81 76 73 71 63 63 51 46
478 468 452 501 678 686 670 683 599 547 542 526 388 413 388 343 301 223 290 170 144 220 315 282 289 239 195 235 248 194 113 122 113 117 98 89 84 92 100 102 103 98 105 130 104 77 69 68 67 70 65 54 38 48
590 640 560 543 608 618 618 560 563 570 494 427 412 398 374 283 190 249 213 176 120 191 268 293 285 217 244 287 274 234 220 178 103 109 133 124 86 82 107 106 96 117 134 102 73 64 58 52 63 70 64 50 50 53
592 613 676 593 646 623 543 520 529 481 403 363 394 359 261 239 228 224 129 115 115 102 215 248 217 271 282 292 319 344 330 231 250 256 238 178 121 112 120 130 139 140 113 79 58 52 42 48 63 66 58 52 49 51
511 485 607 599 583 493 511 516 443 417 429 402 336 331 326 289 273 187 132 140 189 275 295 331 344 362 376 400 353 308 266 203 233 158 120 104 96 49 67 101 131 123 93 69 32 24 33 58 74 68 56 50 49 52
535 458 585 562 584 528 483 401 364 405 403 386 358 313 283 260 213 172 125 113 137 163 159 201 310 306 318 385 351 255 159 117 154 134 123 90 66 110 105 100 120 107 88 66 52 39 66 83 77 69 56 54 53 57
511 519 481 416 355 348 319 399 418 417 392 348 326 257 227 215 187 128 154 149 135 183 215 223 280 268 312 300 271 223 113 67 122 96 80 109 148 140 128 130 120 104 81 66 57 69 87 80 74 66 65 63 61 69
426 377 378 380 383 401 370 329 304 302 296 278 273 265 206 175 148 77 87 66 132 171 114 168 230 191 187 213 217 188 124 189 137 109 115 129 141 139 144 135 112 93 86 77 75 89 92 79 74 68 65 67 68 64
413 434 392 377 347 383 351 351 265 230 249 230 219 185 144 128 108 88 71 115 115 166 162 169 189 191 182 205 186 176 147 185 154 120 117 134 144 144 138 116 102 94 87 85 88 92 84 79 77 70 63 63 68 65

GFSWCAN_con_3kmhel_087.txt.gz
Helicity
86 82 55 54 47 41 37 54 63 23 25 19 35 23 -27 47 79 38 8 19 38 -15 -9 3 8 11 -12 -23 -41 -69 -45 -52 -57 -34 -28 -29 0 -20 -12 -9 -3 4 11 25 26 33 23 35 39 44 52 49 54 64
83 84 51 47 48 58 39 43 60 73 35 22 10 26 41 17 54 26 14 11 33 -19 -30 -41 -44 -19 -8 -13 -14 -36 -37 -49 -50 -36 -38 -31 -4 -13 -12 12 -2 12 12 21 35 41 40 47 28 40 42 51 61 67
80 79 68 47 39 53 54 38 40 51 61 31 17 25 14 68 53 23 17 19 -20 -15 -9 -2 -8 -42 -15 -10 -23 -16 -44 -47 -32 -31 -35 -28 -2 -14 3 11 13 23 27 32 13 53 41 49 52 45 54 73 90 112
90 80 81 52 36 39 47 45 31 36 53 52 36 28 53 22 66 38 34 28 9 14 15 8 22 6 13 -31 -26 -32 -38 -5 -12 -9 9 3 5 21 16 20 25 53 63 42 33 27 35 54 67 82 99 111 125 138
93 77 77 60 42 35 47 43 27 30 48 52 62 38 12 26 30 56 41 28 20 29 38 30 16 29 52 59 26 21 22 32 36 29 31 36 51 27 32 32 62 124 81 94 38 86 53 98 88 96 119 129 140 142
97 74 70 60 48 34 34 40 29 28 39 58 71 50 20 3 13 20 39 42 48 26 31 48 40 38 62 68 75 71 58 59 64 56 50 51 75 53 40 46 34 54 30 29 59 86 101 119 112 118 131 147 149 154
107 83 67 56 51 39 27 28 16 27 38 51 67 53 42 19 44 67 77 47 29 31 47 38 33 47 83 90 77 67 73 76 79 71 61 82 69 69 65 75 67 75 68 95 108 119 110 113 136 127 141 147 155 141
125 89 69 53 45 43 40 28 22 8 34 60 79 73 85 104 77 60 67 56 33 52 62 49 41 32 57 87 86 90 75 74 79 100 83 71 70 83 48 48 58 90 100 101 115 138 172 170 152 145 146 140 129 126
138 98 71 52 43 45 46 51 74 93 93 90 95 55 65 83 74 87 84 58 74 80 54 50 52 56 34 69 85 71 86 78 96 93 108 85 89 89 36 49 74 84 80 102 164 167 168 150 141 138 124 116 120 120
152 111 79 61 52 56 55 71 86 89 95 80 67 69 104 93 73 45 68 67 63 106 161 118 136 88 45 41 62 86 81 108 85 77 91 109 81 89 52 50 57 96 139 188 219 182 152 136 123 116 115 125 141 144
169 129 87 66 51 65 65 77 79 107 67 76 102 103 79 54 82 97 74 76 60 32 37 71 87 102 75 69 60 72 96 101 95 82 109 73 61 75 58 136 142 149 167 182 192 171 154 154 154 147 144 153 158 165
174 135 92 78 59 75 70 78 88 87 83 96 96 75 67 105 134 143 153 116 65 50 45 30 49 100 102 104 84 73 90 99 108 93 94 67 52 78 76 101 142 169 208 215 173 163 158 155 153 149 154 160 167 177
179 142 98 86 65 79 75 78 112 97 102 103 110 129 99 119 192 185 142 137 101 77 55 32 42 55 76 96 98 89 94 103 108 101 90 48 68 65 89 128 151 169 190 190 176 164 151 151 151 160 157 166 179 178
191 147 103 97 86 90 78 84 138 145 113 129 136 156 135 153 137 133 119 152 136 95 42 26 51 36 57 76 96 102 102 108 110 98 58 54 83 86 101 117 151 174 170 166 158 151 144 140 148 158 173 184 175 170
208 158 113 112 97 108 99 120 174 189 171 151 118 100 115 127 139 129 124 112 80 73 46 61 90 71 107 89 79 119 107 107 50 47 56 70 114 112 129 130 149 160 160 157 146 143 136 139 146 156 176 169 167 153
229 223 188 121 112 136 140 213 230 195 233 194 124 136 134 139 118 116 126 125 112 109 81 90 115 108 119 165 140 102 130 81 45 26 41 51 88 126 148 153 157 152 144 145 146 139 142 147 143 146 149 155 155 136
354 344 176 152 137 172 215 268 281 285 232 249 147 191 214 164 141 156 152 171 128 159 129 127 86 101 166 120 136 110 108 39 8 39 71 71 97 130 156 177 163 144 142 144 140 139 142 143 128 139 155 143 124 103
527 321 202 173 204 206 311 244 284 270 270 216 185 170 167 148 179 194 174 184 156 127 148 162 173 158 162 130 116 78 9 40 12 68 112 130 153 167 169 166 143 137 138 136 130 129 133 119 124 151 134 120 92 100
489 370 191 195 328 434 340 286 324 352 226 192 214 217 215 171 131 148 133 132 140 150 180 171 154 165 158 156 102 11 -74 -9 56 107 132 142 151 158 171 158 150 134 128 121 116 122 123 125 145 136 120 98 98 104
437 292 209 246 336 367 310 273 303 327 277 177 211 229 249 209 182 178 194 194 217 276 291 304 376 259 129 87 110 24 -7 8 146 150 131 131 136 144 132 118 121 121 120 121 115 112 112 127 138 120 104 95 103 100
344 330 210 235 270 307 335 285 304 274 305 257 177 211 238 205 208 240 242 240 301 404 410 260 213 195 140 140 93 -40 -29 116 180 156 144 133 120 124 121 124 131 114 109 103 103 111 114 131 126 109 104 100 96 78
581 428 613 450 406 373 337 216 294 307 289 275 186 236 257 262 253 247 272 301 367 341 345 234 228 222 218 202 123 21 47 127 174 169 132 165 172 143 109 118 122 108 106 109 111 109 120 128 111 104 105 98 77 73
668 609 548 516 455 438 324 256 376 283 280 235 261 274 282 282 242 281 267 275 299 281 268 261 245 223 209 210 127 134 129 177 203 172 147 161 166 150 134 135 117 115 110 107 114 108 121 114 104 103 104 92 76 70
610 580 529 467 417 473 382 469 451 435 409 360 304 307 303 301 292 274 257 235 242 227 237 290 349 317 256 144 124 166 217 233 240 236 205 204 176 138 125 129 115 108 113 133 112 118 123 107 96 104 109 91 75 65
615 402 415 478 492 488 491 598 600 522 460 408 363 340 326 293 258 295 285 192 167 208 248 310 279 222 171 168 171 213 207 209 230 192 176 177 195 170 142 135 113 105 123 116 110 121 109 101 96 101 96 85 74 62
567 456 393 358 484 507 549 590 481 455 429 398 304 370 405 358 287 232 164 108 134 223 326 338 291 225 137 211 237 200 190 207 211 224 166 153 139 132 134 135 114 91 106 105 126 115 110 99 92 91 83 75 60 63
524 438 507 555 533 587 573 510 491 488 410 382 390 395 320 307 215 188 185 169 166 172 222 268 285 273 223 285 272 232 291 290 228 188 159 189 142 136 144 139 117 118 157 130 121 119 108 99 90 85 76 73 69 66
472 493 546 531 569 481 439 453 455 445 473 435 428 430 286 230 191 228 168 149 127 128 136 128 160 179 203 262 337 366 411 364 303 291 308 275 198 166 174 162 160 169 149 130 124 113 99 90 85 73 71 73 63 65
459 456 567 547 506 449 446 502 489 493 513 463 390 340 311 298 248 221 189 156 106 109 136 175 239 372 336 279 286 315 372 373 320 225 166 137 142 112 158 165 168 153 136 126 98 97 96 89 88 70 71 63 59 58
442 415 483 486 499 495 501 456 424 408 381 370 341 302 257 239 244 252 203 165 157 129 109 137 209 266 243 216 231 246 222 202 177 172 142 117 84 170 196 169 154 140 134 118 123 119 115 115 104 85 71 68 66 64
466 589 527 468 427 404 370 348 351 366 366 344 384 341 289 258 184 158 174 176 173 181 156 163 138 149 238 264 238 271 171 137 162 149 156 192 238 203 197 170 158 158 134 127 130 117 126 114 95 84 76 82 66 67
445 396 412 350 282 268 282 246 228 244 257 267 289 310 278 210 135 104 133 201 213 161 116 139 75 70 222 235 177 224 171 194 172 148 136 188 216 208 214 199 185 158 136 135 125 124 117 106 94 81 83 80 67 57
485 489 460 380 311 288 282 282 253 250 268 271 272 278 230 195 135 99 103 110 131 139 115 98 32 132 254 215 193 232 162 203 184 129 133 171 195 201 209 191 169 141 140 135 126 127 118 103 92 82 80 68 57 59

GFSWCAN_con_3kmhel_090.txt.gz
Helicity
93 106 88 64 54 50 47 51 41 33 51 20 -12 -22 6 31 37 22 14 6 -32 -71 -84 -74 -67 -52 -34 -27 -4 -42 -43 -40 -44 -26 -33 -22 6 -8 1 12 12 29 33 50 42 55 35 35 24 62 49 42 45 56
99 107 89 66 51 54 47 41 50 36 31 25 -3 -14 -14 30 57 15 30 20 5 26 -39 -89 -80 -66 -60 -52 -37 -27 -28 -54 -58 -30 -18 -23 7 4 8 42 20 41 62 68 67 63 51 43 54 56 52 54 67 71
107 103 98 71 49 44 46 39 39 45 33 14 10 -3 -10 19 56 55 29 16 15 14 33 10 -51 -27 -36 -30 -24 16 28 -11 13 8 26 40 42 55 51 50 71 45 71 69 32 46 62 54 78 81 77 80 107 115
119 105 100 76 55 36 43 45 38 35 32 29 16 20 -1 -4 59 43 54 33 26 38 48 50 44 17 36 38 20 16 6 -1 4 32 67 75 69 85 72 75 70 84 102 74 53 23 71 49 99 110 125 120 124 131
120 123 101 86 66 40 30 38 36 32 44 33 29 27 26 8 13 59 40 49 38 38 31 54 34 48 88 80 50 35 35 63 75 75 79 79 89 93 68 83 110 198 152 149 78 68 116 89 104 126 135 119 123 129
116 132 103 87 73 53 22 26 18 27 41 45 31 32 31 16 -0 41 46 37 58 59 57 36 50 65 64 77 122 106 94 78 90 97 86 103 122 111 80 73 56 54 91 55 39 107 120 128 132 130 133 153 146 137
119 136 122 86 66 58 33 22 9 8 28 47 43 36 33 23 31 58 33 35 21 19 51 51 37 29 37 83 85 121 135 111 106 96 99 126 113 121 138 136 178 83 103 124 127 152 117 114 117 135 167 155 149 131
124 135 132 104 68 58 32 17 5 -5 20 48 63 65 69 78 81 64 26 35 29 53 81 68 66 58 31 48 78 100 107 131 120 121 132 114 118 126 85 86 55 104 192 151 113 143 164 173 181 164 140 136 126 108
127 132 132 110 70 60 40 26 34 54 80 88 107 70 66 73 82 69 19 5 39 88 56 102 92 60 46 31 18 45 88 95 118 138 141 122 111 152 85 47 81 122 97 82 168 164 159 163 148 134 120 114 110 110
135 142 138 119 84 69 56 56 57 74 98 83 90 94 85 76 39 35 69 107 110 98 152 133 166 149 88 58 45 32 26 66 96 70 105 117 174 242 165 78 57 112 125 206 211 152 153 151 127 117 108 118 130 131
130 158 156 128 95 73 74 81 80 92 75 79 100 99 98 71 89 109 134 132 130 173 125 62 80 107 81 96 85 87 72 51 47 55 80 66 105 68 51 131 145 161 159 148 140 152 155 144 127 129 129 135 141 147
135 168 174 145 110 77 80 87 93 95 96 97 92 92 100 112 110 93 107 101 125 156 133 108 65 83 87 93 84 90 101 106 48 61 55 46 8 41 76 149 164 177 206 215 202 208 185 161 140 131 126 124 126 131
179 208 189 156 120 83 92 84 97 115 118 96 107 117 102 83 110 107 105 135 164 138 122 115 87 34 52 67 97 96 88 86 97 74 45 61 35 31 71 105 144 150 180 212 213 185 163 144 135 125 129 142 140 137
218 221 200 161 130 109 108 102 119 137 133 132 134 136 110 96 79 113 146 170 150 151 155 122 107 72 60 89 106 113 94 117 102 40 106 54 7 53 80 90 117 116 140 168 171 153 145 130 115 120 135 133 127 133
254 233 211 172 139 131 129 146 167 194 175 173 130 137 115 86 119 129 146 153 136 135 147 143 146 128 113 113 127 160 129 96 63 47 85 32 3 67 77 75 95 117 135 144 128 127 123 115 110 114 133 127 129 134
260 233 345 213 164 167 160 213 229 238 224 208 190 220 130 137 101 138 148 159 142 162 158 151 201 208 186 155 187 140 198 136 130 63 56 46 44 61 71 88 103 118 119 126 119 112 114 110 103 104 118 129 132 127
417 447 282 235 198 222 252 309 320 362 273 260 239 204 200 195 133 155 187 157 182 236 257 278 339 215 273 269 319 204 203 145 77 86 -1 -10 30 104 125 138 144 139 133 123 123 114 100 96 93 109 122 114 119 111
509 429 317 330 358 327 448 387 364 342 391 287 210 156 164 158 174 186 205 233 262 231 282 312 298 442 444 383 367 170 107 92 44 -2 8 38 96 149 162 155 146 137 136 124 123 104 98 91 86 109 122 119 113 122
509 455 419 401 467 610 458 381 432 383 260 251 235 178 170 180 175 188 216 204 245 264 301 373 370 502 406 356 209 136 142 83 11 -83 -124 65 104 147 174 172 164 153 122 115 92 89 95 94 109 122 114 115 119 115
369 460 459 381 511 635 480 406 421 424 290 231 233 185 185 161 180 223 267 283 331 327 451 578 530 435 359 213 154 129 156 89 60 -13 -85 75 172 160 159 165 160 144 135 130 110 99 94 88 104 115 107 109 118 116
483 470 395 488 600 633 487 418 400 335 357 329 268 213 200 189 218 255 300 321 341 420 584 541 387 311 270 166 86 82 91 87 97 92 55 157 192 193 198 184 183 144 137 112 98 91 92 104 125 113 108 106 111 101
864 474 623 623 676 557 526 404 426 437 390 337 283 301 252 224 217 248 294 322 348 396 480 347 296 273 227 195 145 137 149 134 84 28 71 176 257 229 186 182 177 134 127 116 116 107 104 121 112 100 109 105 101 92
728 800 892 755 596 482 364 396 529 432 371 290 357 310 273 244 182 217 257 302 321 356 318 274 276 272 253 218 230 194 169 222 210 126 135 197 175 211 206 189 153 169 156 127 137 133 118 115 108 102 103 101 99 100
837 916 934 728 606 508 431 554 621 555 480 453 399 409 339 271 216 228 277 308 283 282 257 244 279 290 310 285 239 254 274 292 255 173 156 231 222 177 178 174 166 161 136 155 148 133 131 118 107 111 109 106 93 96
740 578 545 687 644 636 621 669 648 580 516 497 462 432 347 254 269 290 278 189 179 265 272 265 288 267 244 200 182 226 292 342 271 154 203 232 253 252 224 183 178 142 167 177 149 136 133 128 122 111 107 97 78 86
580 542 546 521 661 687 750 673 582 589 573 531 437 461 359 311 257 231 207 96 68 165 194 249 258 246 239 240 237 275 256 262 231 186 252 237 220 218 186 188 151 106 114 130 152 139 139 134 121 113 103 68 58 110
613 658 712 668 677 773 758 652 575 570 535 538 464 428 347 291 236 260 151 77 133 201 188 211 267 273 210 213 233 296 247 178 249 205 192 218 218 165 163 159 115 94 139 149 157 145 146 137 119 115 95 78 81 105
487 506 667 855 857 720 617 626 553 492 472 394 421 396 263 238 237 195 65 106 163 135 128 135 149 163 179 173 294 357 416 328 385 291 320 334 259 211 158 159 178 144 162 172 166 163 157 138 127 107 90 96 88 103
530 590 688 705 683 577 491 477 435 380 376 387 384 400 389 332 249 142 151 173 150 145 152 142 144 187 245 298 288 200 302 361 413 281 183 214 185 126 186 187 196 168 168 166 148 153 142 127 119 94 102 105 104 93
652 564 617 550 529 471 413 351 310 322 321 317 319 304 274 232 207 216 215 192 177 135 108 124 152 191 232 207 189 101 154 200 163 203 230 144 133 169 192 217 212 176 175 171 175 165 143 146 140 118 117 119 112 91
437 618 591 481 353 329 329 305 328 319 339 326 323 261 217 241 210 134 168 155 153 169 209 208 197 201 202 169 117 105 173 142 134 154 175 182 202 178 226 225 191 192 176 172 170 151 148 148 134 130 132 131 107 89
546 411 363 339 324 340 328 277 262 286 306 292 268 262 256 244 249 97 155 227 211 185 134 164 188 174 164 130 77 116 80 249 215 161 157 178 168 200 244 242 213 203 186 172 161 143 148 148 137 125 126 121 89 68
404 374 363 324 308 284 310 321 276 240 244 230 210 179 210 218 222 127 135 173 185 160 177 199 189 174 154 180 117 124 106 179 201 144 105 122 152 195 242 224 223 200 182 165 145 150 148 146 126 117 128 106 76 62

GFSWCAN_con_3kmhel_093.txt.gz
Helicity
134 117 126 128 97 66 44 34 32 34 23 11 -0 -21 -31 34 53 16 -7 -5 20 -4 -22 -23 -42 -15 -16 -42 -37 -37 -43 -27 -34 18 42 53 67 43 36 40 43 52 46 62 56 56 33 46 39 55 45 48 54 54
127 113 103 122 95 59 42 32 33 40 37 21 3 -4 -21 -14 61 36 12 3 16 36 25 47 26 -21 -25 1 25 13 37 17 23 30 43 30 42 50 70 56 44 43 67 51 71 49 33 41 33 50 59 63 64 89
114 99 94 117 97 60 37 30 24 28 35 28 24 19 6 4 11 50 12 11 30 32 45 73 65 54 47 27 7 41 61 55 51 37 33 42 56 84 72 61 68 51 82 79 40 27 53 64 64 73 68 73 86 98
114 83 76 100 101 60 35 27 23 24 23 30 25 32 31 21 11 28 54 22 32 34 33 32 66 81 97 108 92 92 88 80 84 103 84 85 86 85 70 68 82 78 111 87 66 22 23 58 92 103 120 124 129 124
110 85 93 88 95 67 31 17 17 19 15 20 38 31 33 28 19 31 31 41 55 47 34 23 48 54 76 93 120 136 135 122 98 98 138 128 114 95 86 93 121 202 180 152 102 42 60 51 63 101 118 106 103 117
85 85 97 106 103 74 45 18 13 17 15 10 40 32 37 29 22 44 98 12 10 15 -25 39 39 66 76 88 95 120 150 157 159 137 94 102 161 147 80 65 35 54 75 89 90 105 80 82 111 111 111 112 119 128
96 93 89 110 113 76 50 22 10 13 19 11 31 42 45 38 66 79 106 38 -15 8 17 -34 -9 21 39 61 91 114 130 145 179 180 176 164 146 132 140 219 295 185 97 97 121 163 115 96 83 118 144 148 147 131
92 97 102 114 136 87 57 22 8 2 5 9 25 60 64 77 100 88 74 47 19 58 96 97 51 37 38 42 93 105 116 134 150 162 215 187 157 160 129 157 86 72 123 179 147 134 92 110 149 153 160 156 149 130
125 122 130 113 137 112 75 30 9 17 39 56 58 64 73 77 79 85 78 74 70 121 214 235 195 90 38 61 52 48 105 110 132 122 129 138 148 203 197 90 36 41 80 99 177 162 141 128 134 148 156 141 134 116
141 141 115 129 146 132 100 49 35 53 86 98 98 76 60 57 51 74 119 134 145 148 216 209 192 168 101 102 92 89 81 103 109 83 82 75 134 191 144 89 91 61 94 177 168 123 128 130 129 146 144 144 130 111
150 154 160 137 165 143 121 77 73 100 102 103 123 107 80 71 92 96 91 92 84 95 87 83 114 158 82 125 114 114 126 117 128 86 71 31 17 -0 12 30 45 154 126 105 87 85 95 98 138 160 155 136 119 111
142 179 178 158 200 156 126 88 103 129 94 101 109 113 101 111 126 116 93 67 76 72 108 110 98 110 94 98 107 112 134 132 93 133 110 11 15 26 22 31 58 122 158 145 100 136 160 184 165 152 131 116 99 90
167 191 183 181 223 208 144 109 104 121 142 140 140 143 135 123 179 153 133 94 93 96 107 121 130 115 91 87 114 154 217 174 127 116 94 34 29 34 16 52 85 114 136 147 164 170 168 162 145 119 107 98 99 111
164 194 199 222 265 229 166 127 128 163 186 182 174 190 144 153 123 118 124 109 107 129 154 160 149 147 127 179 185 253 217 216 278 195 62 72 62 34 35 55 90 88 91 101 117 121 123 113 100 97 92 85 100 108
174 225 236 254 281 250 188 138 180 224 220 227 216 231 171 167 151 130 134 166 145 179 207 175 171 169 183 225 228 241 234 193 191 112 117 48 42 40 -8 51 60 72 84 92 102 107 105 96 82 80 82 98 103 103
226 256 300 276 318 257 221 240 307 271 295 289 327 271 215 195 152 170 146 161 161 220 230 205 195 207 180 191 242 214 283 307 197 133 80 -1 -50 -85 -38 30 67 94 98 103 103 103 103 85 77 76 101 106 101 96
272 441 344 385 356 279 313 443 436 381 295 409 391 218 230 222 154 147 157 149 202 294 223 236 238 113 276 210 297 300 299 186 142 88 12 -61 -11 12 -33 64 108 121 120 124 121 109 105 93 87 105 106 82 91 92
481 485 355 499 428 334 520 495 437 400 407 418 260 234 204 223 235 202 171 252 317 234 299 261 287 353 351 339 409 242 115 105 96 63 7 -66 -108 -75 3 65 130 141 145 138 130 125 113 86 99 98 101 97 100 112
446 494 505 535 598 807 695 504 478 407 390 391 255 204 203 175 163 171 192 216 270 261 305 331 243 331 417 424 307 175 139 130 123 48 -0 -76 -72 -10 13 109 173 172 160 159 135 101 86 93 108 115 112 110 104 107
361 446 564 601 708 805 657 472 466 419 269 284 265 246 245 156 178 201 230 276 330 293 308 498 441 565 471 333 261 194 158 137 171 120 57 1 27 73 50 146 173 177 177 164 136 135 111 133 118 116 114 103 103 110
557 469 570 655 842 544 470 452 469 349 427 378 224 258 231 207 213 254 300 348 404 342 373 484 392 381 401 349 275 218 192 213 212 176 59 -8 -11 85 130 124 240 226 199 161 129 134 94 121 131 129 124 119 107 109
713 747 729 699 607 535 518 366 354 438 443 403 348 373 300 256 218 236 293 394 433 227 350 410 314 303 316 283 257 275 253 231 205 199 121 118 147 209 199 211 197 214 193 160 125 129 109 157 129 132 125 114 109 111
790 994 956 774 549 425 372 401 498 415 422 357 453 347 280 266 256 287 293 362 360 301 267 306 237 312 298 267 283 252 261 280 278 266 230 239 229 218 235 212 212 201 157 158 148 142 135 146 109 135 126 118 115 112
806 943 815 599 539 466 381 471 515 523 595 568 527 452 367 368 370 332 334 381 289 224 194 136 244 280 309 306 255 214 253 319 290 291 278 304 277 238 245 199 199 176 173 159 173 153 153 155 129 140 129 121 114 116
716 596 511 596 553 520 510 564 682 687 657 726 693 590 444 421 374 348 355 296 217 181 153 195 243 237 210 193 234 254 299 344 294 242 273 284 343 367 288 208 185 171 188 204 179 188 152 164 157 142 124 110 106 108
533 452 459 398 593 525 503 555 606 654 734 786 665 601 554 472 372 291 225 158 109 84 186 194 167 188 209 252 246 258 266 300 322 273 238 295 304 284 250 234 194 133 128 182 201 168 152 156 145 130 110 90 87 136
462 454 542 521 485 553 535 529 527 571 691 711 716 737 602 436 333 295 173 77 109 172 175 170 175 182 184 231 224 213 232 216 271 195 197 239 261 240 279 295 164 81 124 170 167 139 151 155 142 128 112 103 100 122
478 402 565 704 694 651 545 586 648 618 667 607 665 644 484 395 292 212 70 118 115 143 145 169 178 203 237 244 243 320 331 341 398 342 292 310 304 279 196 178 127 103 144 152 137 149 158 160 150 139 115 103 113 118
424 476 628 602 614 538 481 485 510 580 616 605 596 541 466 347 232 175 141 172 184 126 150 178 211 248 280 285 281 268 268 307 332 296 246 206 279 209 177 173 147 150 166 132 103 142 170 167 155 134 119 117 119 119
425 504 538 505 510 474 493 439 449 437 446 433 434 387 325 267 170 194 222 232 214 172 181 219 236 238 238 260 251 234 192 198 190 227 192 181 147 203 212 220 191 170 152 223 199 178 162 168 171 165 146 140 129 128
389 606 546 454 457 525 459 482 492 466 430 366 365 303 217 200 206 187 191 199 214 256 299 304 290 232 256 267 283 270 179 124 100 111 145 161 218 200 224 224 202 190 214 218 193 179 187 170 148 136 134 136 137 143
466 417 422 434 473 495 442 440 425 398 380 346 311 259 228 222 182 188 200 294 328 320 242 255 257 209 212 231 233 216 153 148 160 194 211 183 203 232 264 259 235 224 207 200 177 174 160 150 136 122 126 139 141 118
588 520 494 404 367 409 448 440 370 308 282 240 205 199 193 202 221 238 175 168 265 253 215 205 200 239 205 187 200 187 173 160 108 172 91 107 176 233 227 224 245 222 204 183 154 154 149 148 130 120 135 143 118 98

GFSWCAN_con_3kmhel_096.txt.gz
Helicity
77 98 105 123 135 92 67 37 32 26 36 16 2 -4 -15 -29 -29 46 27 1 24 50 3 2 -2 12 25 11 8 -10 -17 -2 6 57 88 92 90 59 36 41 41 55 56 56 54 46 16 50 54 32 15 22 44 46
76 75 102 96 152 99 87 49 29 18 28 28 13 3 -5 -7 -12 -3 31 33 34 40 15 36 16 -18 5 17 45 49 75 67 60 62 42 41 56 67 78 49 57 33 54 49 68 40 25 28 33 30 37 44 37 47
70 68 78 90 131 116 82 61 36 18 15 32 27 15 10 -3 7 24 21 12 44 48 43 57 40 56 70 67 94 102 98 117 132 145 136 119 91 94 57 39 75 64 82 73 49 34 24 27 52 64 62 54 66 70
49 52 59 95 113 116 81 60 36 25 13 23 33 21 20 11 -5 32 48 8 -9 4 -14 31 44 50 93 111 106 115 107 121 151 161 182 191 190 172 158 123 119 97 119 99 48 12 -3 -1 57 63 87 100 112 115
54 55 53 89 104 121 101 87 39 29 13 19 29 26 20 23 15 36 47 36 17 14 -8 -42 66 79 93 97 107 117 124 122 139 168 198 190 186 190 199 223 252 345 246 180 97 94 76 24 37 102 107 92 101 134
73 59 63 96 115 140 104 87 51 28 22 24 36 30 25 24 41 69 81 53 34 31 75 48 -6 -3 28 59 99 43 48 76 117 143 130 152 195 176 145 202 226 233 144 99 95 90 94 90 81 82 108 111 122 147
87 74 63 84 129 145 114 92 75 31 26 23 43 47 33 32 67 95 90 73 43 55 113 84 71 40 17 28 50 75 84 124 113 126 193 208 212 203 231 169 345 228 194 164 166 233 150 106 70 102 127 140 171 181
94 90 65 78 115 165 132 114 79 46 34 24 34 54 67 74 76 78 80 82 90 128 126 100 89 93 67 119 128 77 103 118 123 159 239 194 193 199 150 168 55 74 101 108 178 184 142 168 193 182 187 188 193 184
96 109 81 84 132 173 161 138 97 59 58 32 51 98 88 89 79 83 78 90 107 138 120 138 132 86 82 103 109 120 127 186 160 212 199 153 197 171 88 72 51 71 54 48 131 166 158 163 154 156 165 157 171 158
147 116 87 91 137 182 200 177 119 89 116 154 128 89 78 73 94 87 108 105 120 137 163 93 135 120 130 100 102 153 164 190 244 170 134 170 239 101 8 3 14 22 72 166 201 163 159 180 143 128 115 136 140 129
156 124 110 109 150 207 215 245 191 189 166 142 116 112 104 83 102 110 84 100 104 84 73 61 81 100 73 107 110 114 178 214 246 180 188 149 117 34 20 49 17 17 81 190 180 126 115 98 109 125 137 136 123 110
125 128 133 128 165 210 250 291 278 277 173 132 127 136 122 122 153 166 197 154 135 123 96 90 65 79 87 100 121 116 165 170 170 222 236 182 62 69 23 18 45 38 87 130 133 148 139 130 119 140 130 122 114 103
125 114 134 129 183 219 281 324 307 275 207 203 218 165 136 151 212 198 219 148 143 112 94 107 123 118 107 112 140 137 149 164 180 191 202 156 108 69 74 54 53 54 79 90 102 121 152 165 149 128 113 94 93 97
122 132 157 176 199 242 300 325 370 315 291 328 290 288 239 250 188 202 177 125 141 146 149 173 168 122 123 126 129 141 170 199 150 142 176 171 98 39 37 6 46 38 73 77 85 91 105 108 108 101 94 86 88 93
119 143 167 176 225 285 347 341 352 342 408 394 320 306 300 280 260 195 174 241 225 172 225 212 187 160 153 148 132 145 129 120 168 167 188 132 97 27 -42 -30 19 23 55 86 80 94 97 97 88 86 81 80 93 85
117 137 228 202 291 336 370 340 385 406 407 367 395 429 354 263 198 197 190 255 213 242 249 207 159 140 122 152 148 107 193 148 183 191 134 113 74 -20 -50 -19 -8 17 51 92 109 101 107 99 93 78 86 85 76 91
102 196 165 243 377 433 365 623 626 578 351 411 434 446 360 286 210 206 212 213 219 283 230 186 164 74 210 193 145 165 160 187 173 151 137 103 88 36 -40 5 54 36 39 120 113 113 113 128 130 107 100 82 69 117
137 157 186 294 521 533 593 620 583 542 472 387 381 384 358 294 267 233 218 264 323 250 242 225 227 276 275 246 247 171 58 95 139 170 180 132 65 13 10 7 41 54 90 123 144 155 159 140 125 95 104 77 110 108
160 248 253 485 780 877 662 610 562 541 436 423 395 379 297 282 270 265 243 247 329 332 316 263 196 269 378 298 220 175 168 178 203 180 158 149 143 113 61 45 75 151 136 143 167 146 150 137 115 122 138 88 111 119
172 220 414 581 705 688 623 566 562 590 373 381 441 400 345 258 243 256 279 290 346 366 405 425 369 378 318 246 210 194 185 217 275 278 240 198 158 155 141 129 116 158 192 183 152 146 167 153 145 174 159 101 122 136
310 390 471 743 807 635 523 531 581 548 530 412 362 417 361 351 353 347 351 343 372 488 492 406 322 315 300 296 261 260 258 304 311 327 267 216 236 242 219 169 184 198 240 231 200 155 135 134 135 139 147 95 145 153
344 710 877 782 602 632 545 399 395 447 547 471 440 470 410 350 354 347 372 364 446 460 436 372 336 326 293 274 277 285 237 259 273 276 297 356 362 325 247 248 299 231 251 255 235 182 163 162 163 146 159 100 137 152
549 751 798 749 514 488 409 451 444 388 443 377 485 468 378 354 330 389 316 323 432 414 335 321 323 312 290 233 224 200 238 275 265 288 307 349 329 315 290 275 272 293 282 243 211 195 186 147 137 161 163 123 154 145
639 755 722 500 483 475 422 460 416 405 414 452 496 496 386 426 394 371 315 320 401 390 321 261 299 258 289 277 249 171 174 277 270 293 337 381 317 251 269 268 280 247 252 271 263 230 206 204 171 176 160 141 134 147
591 516 435 539 537 562 557 504 543 484 454 538 564 584 438 406 387 385 323 246 293 252 206 234 282 298 293 217 184 175 200 291 277 244 283 338 329 337 305 280 242 236 290 278 228 227 184 176 202 188 171 140 127 139
421 423 411 329 488 462 499 490 447 466 502 498 417 471 555 518 402 298 274 192 198 247 224 267 296 333 262 222 157 165 168 262 292 265 193 288 301 302 312 326 284 219 189 197 240 217 201 201 177 177 148 107 109 144
376 402 466 475 425 497 538 479 475 465 472 492 501 637 569 471 369 313 249 233 225 202 196 265 294 242 178 205 186 185 181 199 226 204 193 208 247 260 291 295 222 135 221 247 211 195 203 196 160 147 121 136 127 142
454 375 425 579 618 593 503 553 533 476 505 493 504 498 355 357 294 290 172 118 139 192 198 222 222 202 201 177 183 251 301 305 325 296 264 260 271 235 232 208 206 214 278 273 255 205 186 175 177 137 125 131 138 133
332 415 593 534 576 505 477 477 457 478 608 570 483 477 460 453 401 303 213 198 231 210 241 260 231 229 253 278 305 294 296 324 317 263 200 178 204 182 209 240 235 197 224 232 132 164 179 185 154 122 141 149 154 149
317 449 494 461 478 436 419 400 400 437 435 422 420 379 349 309 249 258 297 318 247 163 189 183 215 220 240 270 263 255 247 259 247 270 242 193 176 184 237 266 237 229 260 217 188 201 215 191 173 207 206 188 161 146
364 513 532 447 365 493 491 483 486 455 419 344 362 271 247 266 284 264 233 216 204 248 249 240 255 248 279 281 292 304 245 204 176 199 205 186 199 231 269 326 246 244 255 241 243 251 221 170 156 176 172 160 129 135
493 432 472 494 482 526 513 463 415 378 326 268 247 276 287 296 278 303 225 274 247 230 206 251 285 249 215 240 283 283 249 227 227 225 237 229 208 209 277 333 295 261 254 224 224 211 164 151 153 159 155 139 128 128
444 486 484 414 343 367 437 410 345 325 321 290 279 265 258 233 208 236 208 161 206 254 262 250 230 265 260 237 230 234 218 207 192 177 182 199 224 244 304 318 290 247 231 231 229 185 142 146 160 158 144 133 124 120

GFSWCAN_con_3kmhel_099.txt.gz
Helicity
32 53 70 90 98 130 120 103 85 51 37 35 32 22 25 21 -1 10 4 33 48 29 19 52 29 56 52 51 89 73 25 14 30 31 37 54 73 87 96 96 103 111 93 73 91 89 29 58 85 61 34 25 15 33
10 33 57 83 97 120 127 104 97 68 42 43 51 42 17 13 18 38 55 -6 18 26 33 54 46 53 67 72 84 80 118 130 141 151 110 93 77 98 105 98 137 96 103 117 128 83 68 41 63 62 60 52 43 55
40 29 39 58 70 105 130 94 98 73 49 40 52 52 61 30 40 43 68 29 0 -36 -31 25 26 66 103 72 73 108 106 131 161 146 166 189 183 180 108 70 105 132 181 195 168 88 68 51 58 75 90 71 73 78
62 48 53 47 58 90 128 93 80 85 57 42 51 56 55 71 51 59 70 66 73 65 22 -26 -13 5 51 97 99 123 130 133 154 155 154 193 217 176 207 193 226 198 228 201 169 146 113 63 92 100 115 122 124 122
78 67 76 60 56 75 116 112 81 88 65 54 46 66 65 74 75 66 58 77 93 120 109 32 -30 25 59 63 61 77 96 129 151 169 214 229 222 178 204 261 254 318 260 236 189 195 141 92 92 125 161 156 135 144
82 93 74 75 70 71 112 131 99 90 67 58 55 62 80 91 88 79 62 60 69 108 129 71 57 75 46 56 89 104 105 122 179 209 212 228 271 244 202 191 227 177 141 107 146 157 135 107 95 99 119 137 152 148
90 112 92 88 86 89 99 134 114 90 86 55 63 69 80 98 125 99 86 76 52 71 119 55 53 51 60 68 70 89 103 139 173 220 246 270 289 275 337 311 295 147 75 24 68 101 97 120 73 90 151 169 172 194
91 86 90 105 103 95 104 127 111 107 91 72 66 72 94 94 117 118 113 137 127 113 119 59 55 87 111 122 122 95 128 145 163 234 258 213 195 228 228 173 38 39 62 24 46 99 95 127 200 202 213 211 208 187
94 90 88 113 99 94 121 153 121 127 120 91 77 102 122 121 96 100 122 156 152 172 107 120 122 54 98 97 111 117 127 141 163 161 167 180 224 280 153 113 99 46 43 67 55 93 128 154 224 248 253 189 185 160
100 98 89 116 110 100 122 162 153 158 160 204 206 143 91 93 89 108 133 119 147 201 305 229 208 140 140 112 90 95 97 86 123 105 122 146 157 109 19 56 62 49 61 75 145 135 163 166 145 152 134 128 125 134
105 112 104 105 105 116 135 184 203 258 300 269 189 199 192 112 106 106 91 146 131 131 129 120 170 165 114 142 104 84 94 105 124 99 124 109 65 69 79 64 59 62 69 98 137 112 160 149 162 146 131 122 134 128
89 117 124 122 115 118 155 222 247 374 257 237 268 264 213 225 251 224 201 201 190 164 195 174 136 155 130 127 126 96 101 116 99 139 134 81 70 70 91 79 39 36 67 101 49 81 123 133 148 132 137 142 126 123
90 96 116 120 116 116 158 278 226 363 454 427 312 288 199 195 264 238 205 236 162 198 145 183 226 174 162 130 148 117 123 109 163 139 110 74 102 109 79 63 23 33 73 96 75 75 116 142 146 146 147 128 132 117
107 109 97 125 108 106 221 297 331 471 466 351 254 269 206 207 219 280 341 260 250 154 155 235 262 182 178 157 152 149 141 148 152 130 70 116 126 144 105 56 25 29 64 95 104 100 114 132 133 130 117 116 113 103
90 109 102 112 131 139 265 349 435 648 567 366 296 204 228 357 404 291 240 237 225 203 277 271 274 217 190 191 147 194 186 147 109 71 78 131 149 149 111 83 63 81 72 99 123 118 110 142 147 134 117 109 104 114
75 111 112 104 109 159 376 447 524 701 516 375 357 370 339 318 240 301 308 304 242 307 315 312 239 217 181 188 212 150 225 123 64 85 92 156 157 126 100 90 81 86 114 115 134 109 124 136 140 127 125 110 110 115
86 134 66 69 101 162 492 749 764 616 399 405 273 338 373 381 291 296 338 310 261 435 467 312 313 217 271 215 247 211 170 100 40 43 85 139 151 127 96 79 77 101 112 129 146 161 142 152 173 167 140 113 120 107
87 14 84 36 98 344 822 806 573 524 486 379 293 362 334 404 412 377 333 388 435 408 411 388 328 397 408 300 264 215 57 19 63 68 89 136 154 146 136 127 110 97 112 155 176 206 219 218 198 143 131 149 159 118
29 57 79 52 252 643 696 613 632 526 388 348 332 314 355 322 376 358 339 322 445 405 366 384 367 481 433 322 208 147 113 125 93 116 120 124 170 183 195 192 138 118 150 197 230 229 216 200 172 164 162 200 157 147
61 40 60 207 485 433 416 467 541 586 330 276 308 384 440 325 364 400 381 397 476 471 419 529 611 507 383 276 207 134 109 144 215 196 159 172 199 233 238 231 141 163 194 219 221 216 239 210 191 185 194 186 182 142
55 54 73 499 614 505 422 537 552 482 483 394 259 368 390 362 378 443 524 528 517 503 487 573 495 412 378 314 248 214 226 256 248 213 219 206 222 273 256 254 248 297 283 260 269 242 227 217 215 243 203 196 180 152
76 185 430 598 483 528 523 416 424 416 442 431 412 364 275 301 339 387 508 541 502 492 492 431 407 375 344 298 324 356 291 237 224 233 243 311 268 284 276 294 394 328 312 277 279 269 269 248 266 239 210 195 160 169
178 339 448 552 501 435 352 477 522 439 373 255 330 338 339 302 320 436 363 436 451 467 403 377 381 349 257 214 241 263 264 306 310 315 307 315 271 294 309 349 360 357 317 250 273 293 282 271 259 255 207 205 229 204
347 280 353 369 474 419 372 563 533 486 476 434 329 346 306 318 309 381 393 426 433 381 360 343 342 260 213 256 233 267 357 427 329 270 284 324 277 267 308 307 334 297 274 251 279 283 319 333 274 235 221 221 217 195
243 223 294 422 526 510 516 466 511 531 440 395 420 409 333 303 290 345 330 276 380 392 383 377 349 339 316 302 250 239 241 278 269 234 232 307 250 302 281 267 259 254 310 318 284 283 308 328 295 249 228 227 193 186
206 231 220 302 534 528 490 470 424 455 494 512 345 355 379 365 327 248 211 207 309 317 291 304 291 306 265 283 262 248 203 279 286 232 172 224 233 231 211 238 232 184 254 259 318 304 301 305 289 252 213 150 134 193
208 212 321 500 445 450 485 491 485 479 438 469 384 424 366 341 231 169 131 204 255 220 216 222 273 289 250 241 225 203 224 226 236 182 170 149 165 185 225 243 197 157 213 293 313 301 299 291 256 219 203 173 169 185
217 192 193 305 393 437 430 540 573 473 448 379 381 366 291 227 89 116 110 100 31 95 162 210 230 181 192 187 236 276 258 253 237 202 165 148 148 142 140 158 165 147 196 228 271 275 273 271 239 226 191 181 189 153
168 184 279 285 356 382 374 388 409 388 435 472 396 344 312 319 288 279 243 161 128 138 180 171 187 222 244 250 248 235 215 247 230 174 126 113 133 111 153 186 223 228 203 195 168 214 240 230 220 200 195 201 179 178
195 227 225 202 278 273 290 295 290 392 445 413 396 351 336 328 254 239 219 218 180 133 142 156 194 228 242 236 191 165 148 177 197 215 168 130 100 110 201 240 265 248 248 276 261 212 190 214 194 221 253 219 196 194
269 377 261 195 201 217 314 404 427 425 412 367 332 217 173 236 267 250 251 239 227 220 165 193 258 226 247 245 209 170 124 130 124 152 199 169 145 146 175 221 269 292 302 340 291 255 259 207 211 247 214 179 145 143
334 314 320 229 178 226 352 315 300 304 323 307 273 282 260 230 186 212 237 306 264 171 131 208 247 191 143 152 173 220 227 196 220 232 259 224 186 186 210 237 262 305 320 306 281 293 217 203 205 176 153 146 128 124
360 361 302 231 163 150 258 278 277 283 297 262 238 211 226 228 221 223 212 218 224 238 242 247 181 145 157 189 220 255 248 215 151 113 106 170 196 217 210 225 245 278 316 319 305 193 182 200 186 153 136 126 118 127

GFSWCAN_con_3kmhel_102.txt.gz
Helicity
40 55 61 49 39 55 74 111 106 89 75 35 32 27 25 53 65 57 78 39 4 -31 -30 31 17 25 37 51 57 44 38 64 112 155 176 176 178 167 170 154 153 153 151 153 184 137 27 63 77 45 42 61 30 8
54 38 37 54 46 40 57 87 103 79 72 56 29 30 26 29 58 96 93 102 69 46 -22 -42 17 55 48 49 54 76 105 99 105 111 122 148 142 165 172 159 201 127 126 134 156 137 97 68 75 70 110 87 71 87
75 66 54 46 58 55 53 64 98 80 64 63 30 35 35 26 34 64 94 110 142 119 40 -20 -28 -15 39 29 56 58 48 70 107 113 123 137 183 237 229 175 189 166 192 220 209 160 110 92 80 121 125 102 90 88
87 83 81 71 62 61 56 66 98 87 68 56 50 34 37 34 30 48 68 95 131 149 104 76 57 36 39 58 63 82 99 112 129 129 150 181 257 202 288 185 268 254 266 245 208 130 119 99 125 169 133 124 127 139
91 82 99 80 79 74 70 75 100 113 69 65 57 46 37 47 38 65 69 89 125 137 118 113 59 104 149 98 108 136 128 128 132 154 192 201 185 229 277 216 222 329 208 285 228 99 156 87 128 117 64 86 125 143
87 102 108 102 87 79 75 72 102 124 89 82 76 57 40 54 71 72 61 57 46 93 117 46 92 128 130 137 147 126 125 159 183 180 174 175 205 225 307 346 273 195 125 110 174 137 148 133 81 149 189 175 125 124
140 134 112 131 108 78 82 78 96 113 107 86 82 71 64 57 106 93 90 94 78 93 92 32 52 60 67 115 125 131 145 143 172 196 206 222 217 217 374 360 347 196 150 75 85 91 89 152 134 129 181 202 225 227
127 135 112 97 88 64 72 83 93 108 99 107 84 92 84 100 95 93 123 165 153 145 138 77 72 109 124 155 144 130 149 155 169 190 220 170 157 231 249 208 130 109 69 43 71 169 158 115 136 194 213 261 275 242
99 94 131 120 104 104 85 89 94 105 128 123 109 113 131 142 118 108 140 197 195 190 127 174 155 40 119 127 153 169 182 144 192 198 176 165 179 173 112 106 113 91 120 77 61 64 106 149 148 171 197 186 218 218
109 94 93 120 122 110 99 110 89 127 159 161 184 151 119 124 150 154 142 153 184 243 351 275 369 290 224 175 159 134 113 99 109 112 151 148 149 142 55 83 115 86 86 89 113 101 138 118 162 168 151 132 108 115
92 95 105 102 124 116 101 117 96 196 206 288 232 221 232 191 181 168 131 151 126 134 157 197 248 308 234 260 201 125 126 126 99 89 123 121 88 51 74 84 104 75 67 74 124 90 21 79 132 164 138 109 98 124
70 81 82 96 105 120 116 113 215 329 258 273 275 302 262 204 213 134 172 252 146 144 222 200 147 209 245 221 207 164 170 169 130 160 157 134 58 27 74 71 72 66 40 26 38 23 22 63 98 149 155 136 128 136
66 59 73 80 88 100 103 116 286 347 487 480 351 214 191 205 351 358 333 299 152 230 232 226 232 201 231 201 226 179 163 156 199 209 206 97 90 48 68 74 54 53 44 58 66 75 89 100 137 167 177 159 163 150
67 59 45 58 81 94 85 110 401 437 480 343 221 306 328 306 364 476 374 293 239 193 208 244 322 282 250 221 202 204 173 222 240 235 153 112 8 25 75 84 83 53 61 68 81 99 119 144 158 136 140 159 172 151
69 66 63 65 57 88 100 89 512 639 398 415 362 369 327 452 530 374 268 287 286 324 329 292 314 327 322 315 279 344 299 263 222 111 107 62 51 83 70 77 66 64 80 88 113 129 138 157 161 169 165 167 153 134
76 71 75 46 63 69 91 144 577 654 472 412 423 372 286 360 397 350 306 325 273 317 398 371 327 324 326 381 452 397 401 341 181 96 45 53 68 81 79 87 78 92 104 101 124 144 163 176 178 170 179 161 150 147
75 103 53 47 36 31 73 295 549 655 300 410 294 363 253 232 238 278 305 288 281 394 422 394 347 290 382 359 567 589 500 261 139 106 54 27 36 70 103 106 94 88 101 95 120 163 177 209 239 234 173 151 150 141
90 76 20 -1 21 117 272 460 408 409 513 449 276 303 362 383 358 361 371 371 422 386 390 397 358 392 416 453 484 389 212 160 130 104 46 31 60 97 142 125 114 109 132 129 118 163 238 282 269 209 187 181 181 161
55 47 20 -8 59 252 305 289 567 324 316 388 302 327 356 353 370 326 332 316 482 477 467 410 288 381 508 543 423 332 331 200 109 108 123 58 95 98 124 171 170 175 167 185 178 168 230 262 248 241 238 257 210 201
40 30 51 49 145 219 153 370 328 574 352 336 339 383 486 389 371 399 382 375 491 483 441 436 450 514 379 298 292 295 239 203 224 209 144 121 142 149 124 219 238 227 243 230 196 189 258 269 250 264 266 266 250 197
47 -10 45 57 137 257 279 299 427 362 354 352 354 451 368 335 379 423 502 518 536 511 419 438 477 455 388 391 362 315 278 294 295 224 192 153 160 208 195 252 271 330 313 278 260 246 250 267 263 300 310 279 237 217
16 14 69 157 138 104 312 298 361 401 266 243 317 367 256 349 418 445 546 530 526 472 547 493 490 438 402 393 421 387 334 275 244 237 220 276 242 247 282 290 373 352 330 297 320 299 285 279 311 303 299 284 244 226
20 112 121 156 153 84 210 309 361 405 384 287 354 351 334 301 246 431 388 453 517 490 419 428 456 435 349 280 293 302 340 341 277 260 276 294 307 325 359 366 391 359 313 286 330 311 294 262 238 266 278 276 303 242
88 47 28 43 137 137 309 403 394 350 545 378 337 345 330 310 277 296 329 404 500 457 395 383 395 307 298 264 285 277 329 377 298 258 259 238 267 299 320 303 329 318 311 313 295 307 325 288 234 275 276 316 291 233
62 91 29 84 236 238 291 367 398 461 436 474 438 449 394 339 269 288 236 152 288 357 359 344 306 364 338 305 300 264 222 284 338 284 202 277 238 221 243 238 237 226 281 276 298 308 288 284 273 292 292 308 270 214
119 62 71 57 175 183 183 263 254 346 431 439 345 379 437 378 299 226 113 21 134 185 151 216 196 194 201 255 218 222 301 336 292 229 152 222 240 202 161 180 168 126 216 216 293 315 317 283 271 286 272 210 166 204
243 149 178 187 183 238 193 257 331 372 332 397 347 443 345 327 271 190 130 115 160 206 203 204 215 225 256 242 257 255 294 251 262 190 169 172 182 189 181 180 161 163 157 195 255 272 277 271 251 250 232 207 184 194
130 168 230 260 286 319 278 292 272 303 357 355 366 357 281 282 277 194 57 94 68 51 52 75 112 99 151 180 248 269 246 283 286 219 163 142 127 104 110 156 167 137 146 150 178 217 225 222 224 231 229 215 214 194
150 143 255 280 358 323 245 211 178 204 320 408 369 344 377 406 342 300 256 232 174 93 94 88 134 204 260 252 224 222 207 225 203 140 83 74 95 81 130 146 158 175 149 140 108 143 183 200 223 222 220 217 197 197
188 178 226 200 254 259 234 184 190 195 238 249 279 304 303 315 305 279 253 234 206 152 119 111 165 157 185 192 174 142 115 117 104 116 100 76 74 97 121 142 165 163 158 176 179 163 181 218 216 213 208 197 195 239
270 323 278 240 221 185 178 202 209 165 182 177 249 210 217 214 236 235 263 278 248 250 245 217 202 168 159 172 156 122 70 59 22 72 119 134 139 127 119 136 158 176 192 204 207 224 259 267 239 200 187 181 179 188
332 326 351 260 243 272 255 180 141 121 141 147 159 218 243 230 188 192 274 332 300 248 189 221 253 234 165 143 143 110 100 95 133 145 193 219 205 169 163 160 180 183 193 208 224 248 247 265 220 153 148 186 189 149
286 308 300 233 173 167 168 131 63 26 29 29 109 162 229 243 91 202 254 264 285 230 228 283 241 207 163 146 147 157 169 162 117 120 155 193 187 174 171 161 170 170 202 223 237 228 224 217 163 155 161 168 152 126

GFSWCAN_con_3kmhel_105.txt.gz
Helicity
88 97 76 74 62 58 49 36 52 51 61 73 47 17 17 29 41 61 63 64 78 110 81 58 28 31 14 9 16 -9 -34 2 35 65 86 83 118 104 121 125 142 171 210 210 242 209 42 103 111 49 45 59 29 46
97 97 76 72 69 59 51 47 58 57 51 67 63 27 16 28 38 52 60 69 95 115 113 106 75 33 47 62 74 69 97 101 84 115 110 120 161 192 206 199 156 184 158 212 262 266 134 94 132 104 147 172 169 170
119 119 89 94 83 68 62 56 60 77 63 52 70 33 21 32 58 58 46 63 88 86 80 74 93 91 109 103 109 116 96 128 148 133 112 141 166 245 233 182 182 163 170 253 198 192 138 137 111 69 81 106 170 198
135 105 104 90 119 92 69 55 59 79 64 57 75 48 38 32 50 98 70 63 86 92 78 29 69 89 107 132 156 164 176 148 159 169 171 204 239 197 305 261 325 280 268 309 256 160 111 91 114 71 21 70 111 132
154 106 102 75 88 100 69 73 81 86 72 55 66 63 37 46 59 97 102 95 112 110 80 80 107 131 166 181 192 204 212 224 216 201 237 232 216 225 298 324 313 358 249 309 258 158 174 115 38 36 45 19 41 90
179 131 117 109 64 90 105 111 121 87 96 80 65 70 62 36 82 67 81 72 62 89 83 32 95 131 135 133 155 184 203 209 225 230 200 209 236 209 211 319 308 284 205 169 208 158 113 83 82 99 81 89 94 89
192 149 104 103 115 104 103 99 119 83 81 104 89 67 76 62 101 98 88 104 102 111 83 31 40 56 68 121 145 185 190 182 205 199 231 245 250 234 321 376 289 206 161 144 140 106 62 137 119 72 70 65 86 117
143 137 142 122 99 87 109 89 91 93 72 90 105 92 76 86 104 94 104 182 176 169 152 83 91 109 128 157 154 161 189 196 185 207 261 240 248 269 195 175 55 71 83 78 100 172 184 144 98 93 107 133 154 169
113 121 135 136 108 91 91 101 87 96 96 116 129 121 174 143 82 83 139 208 223 192 174 197 210 85 150 147 186 188 192 164 200 222 196 153 213 148 66 79 70 95 97 100 117 84 91 118 107 96 120 130 136 144
68 76 102 116 108 104 114 114 106 101 145 221 251 170 149 137 152 147 145 136 188 275 385 307 369 282 271 216 163 146 125 132 152 125 178 182 216 130 77 90 55 77 88 76 79 76 88 71 60 65 77 101 97 95
84 91 84 89 96 90 87 118 119 140 387 318 255 266 244 227 198 175 122 159 172 211 207 233 207 267 190 264 205 134 142 162 191 177 168 205 151 57 88 43 -4 39 76 82 91 67 62 40 23 23 53 85 101 110
84 83 92 80 89 93 89 92 104 277 196 241 249 274 248 141 139 170 216 261 280 204 259 177 145 249 240 251 244 168 200 218 243 262 228 243 64 56 117 78 76 84 78 62 72 59 57 55 55 55 69 105 127 134
89 84 81 81 90 88 98 90 95 191 325 394 306 204 154 230 307 235 280 487 366 199 185 240 227 260 264 206 240 206 205 282 291 313 296 236 106 99 84 50 71 69 70 64 67 71 67 66 82 97 116 130 158 163
81 80 81 84 85 88 79 73 102 215 273 227 212 338 299 355 379 440 383 293 332 288 232 234 262 206 236 247 225 213 272 345 392 321 256 140 77 26 69 82 89 70 63 56 49 61 66 82 92 107 122 161 178 159
79 79 78 80 80 80 72 52 74 303 335 238 123 257 287 316 335 292 222 232 181 161 196 281 309 294 291 307 250 314 326 337 271 179 141 107 46 79 86 81 64 54 64 69 88 90 87 110 133 139 146 157 157 165
75 83 93 76 71 52 53 40 121 271 225 201 198 215 259 338 317 251 211 234 272 271 327 331 296 248 270 311 301 304 399 324 256 207 139 97 108 64 61 54 64 69 74 68 88 94 106 137 147 157 188 179 169 161
69 129 76 48 39 44 42 81 187 251 193 290 342 174 224 234 149 208 242 238 291 308 325 285 311 262 410 379 490 569 538 405 236 203 116 116 41 22 53 67 80 92 85 69 82 103 113 130 193 218 207 185 195 169
121 104 66 50 48 64 86 155 170 403 388 300 383 350 373 234 269 276 219 372 467 409 460 427 343 369 410 360 403 296 201 183 196 167 166 122 42 49 164 111 95 90 108 104 103 129 164 187 186 179 196 220 230 202
92 83 39 29 41 66 55 170 195 219 437 448 419 424 375 314 275 254 285 286 444 432 436 400 291 286 305 379 296 271 277 263 179 176 186 118 97 117 150 186 144 103 126 169 185 145 167 202 184 197 221 275 251 235
37 31 35 34 64 41 7 25 150 368 447 388 452 434 494 413 280 309 324 445 534 557 496 477 489 449 384 268 206 194 196 200 289 235 190 153 159 192 159 216 202 255 246 232 223 201 224 207 196 216 265 270 282 234
52 49 44 47 79 66 21 23 96 218 383 465 410 434 384 345 334 366 392 529 561 555 427 508 511 532 512 440 390 328 298 304 279 303 269 204 171 233 197 208 226 301 299 272 271 274 266 250 205 267 286 276 268 249
76 24 85 75 71 81 99 26 98 96 243 266 262 407 467 489 429 382 398 397 469 465 406 413 467 442 424 410 419 417 334 295 288 342 294 313 340 356 306 278 306 279 275 254 302 334 308 263 286 307 291 246 249 270
36 33 61 66 89 120 175 276 150 77 137 162 282 332 428 377 348 403 353 360 412 436 398 345 343 373 329 301 373 310 317 319 316 311 293 307 306 279 293 324 327 243 209 207 300 312 304 288 281 293 294 278 295 263
36 84 68 46 37 18 77 204 249 216 228 257 228 171 195 221 312 357 345 444 418 369 312 338 383 331 314 315 301 349 335 270 222 202 221 243 236 223 244 250 315 319 251 235 296 270 302 327 272 314 312 310 290 265
45 95 114 149 63 99 206 225 283 293 293 319 272 285 321 244 233 285 295 285 362 405 417 405 400 359 376 305 251 181 131 159 205 243 231 297 266 231 210 238 235 242 249 232 235 265 277 280 299 315 310 297 272 254
110 149 80 88 166 116 78 137 143 205 226 200 118 242 316 299 261 228 208 314 381 369 367 368 314 227 169 248 228 213 237 271 268 257 290 329 313 245 193 162 164 158 215 211 227 237 240 257 262 275 257 211 177 237
248 170 176 242 128 223 245 196 176 167 214 217 180 239 221 190 151 240 286 223 192 285 345 302 317 283 181 137 205 195 255 295 297 232 229 236 207 183 172 165 146 171 183 160 174 208 228 235 240 241 239 222 193 221
260 199 174 198 271 281 231 209 203 188 194 198 211 228 86 55 161 223 116 95 74 104 84 120 159 147 117 116 165 228 255 262 278 248 205 171 146 135 144 154 169 134 133 129 147 168 184 203 220 230 224 201 227 205
221 136 54 198 325 215 181 162 164 184 192 240 201 196 235 284 221 177 133 127 154 168 111 68 87 138 176 184 190 208 214 238 224 172 127 124 117 78 128 128 127 144 141 137 112 140 176 183 186 182 187 206 221 235
193 229 132 26 56 90 125 125 139 154 193 205 200 197 180 174 127 127 177 208 218 212 188 153 120 128 122 124 90 104 111 132 150 155 147 136 115 100 112 118 115 137 144 164 170 148 143 169 187 211 238 238 219 209
231 329 249 184 132 117 186 237 214 163 178 164 191 177 138 123 107 89 141 203 214 244 264 222 212 223 215 186 165 119 59 73 149 133 122 116 109 85 81 88 114 143 153 165 165 178 203 227 208 206 192 183 149 159
272 223 234 200 199 195 193 147 148 153 193 192 197 178 188 165 66 15 127 208 265 257 251 264 254 213 281 238 183 157 155 138 200 165 143 142 132 113 123 124 143 164 174 174 172 192 211 206 205 185 163 163 154 160
228 264 258 225 201 186 191 207 161 136 174 174 146 171 222 169 -16 35 59 125 266 303 271 265 286 263 304 241 211 170 143 193 90 124 118 123 139 157 168 171 186 190 193 203 203 190 184 198 178 156 146 136 141 145

GFSWCAN_con_3kmhel_108.txt.gz
Helicity
95 103 91 98 73 45 35 33 31 36 43 53 51 43 29 28 36 34 46 52 65 73 70 100 99 116 65 43 41 68 40 71 83 105 111 131 170 162 161 157 198 233 261 322 317 344 263 174 175 176 116 13 53 70
75 85 91 114 114 58 52 43 42 35 39 50 54 49 39 30 45 33 51 51 60 80 92 109 98 98 97 91 74 102 103 128 99 112 98 132 178 220 201 193 165 204 238 288 291 265 213 182 136 141 105 62 36 -18
118 127 114 115 126 109 68 55 38 44 43 53 65 52 50 43 47 70 66 48 48 55 55 31 51 68 104 103 123 161 120 146 158 167 155 161 180 227 214 207 215 212 214 337 249 148 126 100 113 81 68 92 74 86
93 121 138 123 137 100 67 46 46 41 43 46 68 62 54 53 52 90 86 90 74 67 58 40 53 78 118 125 129 158 174 205 204 188 200 193 201 142 219 175 278 229 254 234 219 143 91 73 67 101 84 81 97 120
131 129 154 142 138 100 70 64 52 54 59 63 68 64 58 56 63 89 96 104 143 99 72 64 89 141 134 148 170 147 137 168 205 198 217 228 211 170 212 245 214 326 251 333 253 121 92 72 128 100 51 35 42 52
190 201 173 147 184 135 110 92 75 72 92 83 92 79 68 63 74 63 62 79 61 85 64 32 95 131 160 112 151 186 193 193 191 205 204 202 247 176 154 225 218 202 175 174 169 91 81 48 69 65 75 88 54 53
136 172 181 167 169 176 147 128 97 88 90 87 93 105 87 85 96 86 100 118 103 107 76 37 65 42 54 131 169 192 206 220 213 218 242 257 254 232 237 275 188 118 147 130 115 106 68 109 81 129 106 64 51 78
94 116 136 142 149 154 155 153 138 125 108 93 92 109 122 94 114 100 120 181 191 166 140 106 109 130 175 179 174 187 198 215 226 260 312 279 245 319 237 294 96 48 73 79 72 102 48 34 107 82 72 71 73 91
99 88 89 107 115 118 122 111 95 94 108 110 140 179 193 164 120 88 114 166 241 232 224 244 226 136 188 194 212 182 197 195 244 282 311 227 286 250 97 49 60 66 102 109 111 92 75 52 33 31 46 67 58 53
73 73 77 85 89 101 113 109 101 98 127 188 283 205 212 160 158 125 86 88 155 332 473 346 342 349 292 251 211 189 158 175 207 179 213 247 337 119 159 179 121 135 94 111 112 85 78 73 61 50 49 47 54 52
74 67 72 86 91 102 112 108 107 148 217 224 175 262 247 143 160 91 80 149 151 227 129 128 130 279 206 250 220 159 191 185 197 227 226 228 249 81 63 68 67 18 63 86 85 72 88 73 74 62 56 59 68 76
80 81 71 71 84 96 99 112 119 152 159 168 198 227 256 177 147 146 242 274 252 167 172 113 118 131 171 227 229 214 220 224 200 269 272 226 104 32 84 107 138 89 76 88 100 72 67 62 61 64 68 72 88 101
79 81 81 78 75 87 94 102 93 102 199 200 227 190 118 162 264 284 388 515 386 150 107 144 154 161 251 226 225 239 260 248 217 226 257 267 129 73 65 116 137 100 113 127 104 79 70 68 68 75 71 81 113 128
80 83 80 80 83 86 98 100 77 121 206 188 201 327 302 307 315 358 302 201 247 220 155 217 265 212 223 193 216 266 186 189 241 243 137 172 100 60 55 73 106 107 101 86 88 95 87 81 75 79 77 103 134 146
73 75 79 87 83 78 91 98 52 152 183 226 260 289 278 357 380 300 235 191 122 88 130 160 174 172 198 196 159 197 141 135 91 51 57 36 57 21 75 112 103 98 94 86 96 95 76 79 79 81 97 112 129 166
58 75 110 84 74 66 61 55 73 112 190 232 335 375 346 331 314 289 232 168 172 163 234 213 165 189 131 136 186 67 124 167 182 127 102 91 88 48 33 98 117 101 84 82 95 90 86 88 78 78 121 126 138 171
39 165 79 58 53 38 22 101 131 171 138 367 411 349 218 252 211 261 257 269 237 269 271 194 132 -49 146 230 232 165 248 334 234 205 121 81 66 86 86 100 103 83 85 117 112 93 86 107 122 112 111 113 145 164
123 120 36 26 53 102 101 115 155 217 321 314 340 278 367 273 177 237 363 395 427 353 305 231 204 315 252 158 160 225 117 108 150 127 140 109 109 95 125 115 107 75 98 134 177 144 133 130 155 121 139 116 150 177
112 110 41 30 70 103 140 123 188 268 254 260 250 203 263 266 296 270 382 391 395 391 309 296 201 198 266 306 240 242 264 210 152 166 161 116 134 150 166 147 167 179 217 230 235 229 197 174 193 253 254 195 146 188
46 44 50 51 59 134 126 129 148 195 197 231 243 232 259 239 237 312 316 393 505 458 388 393 339 308 291 180 330 251 221 203 184 129 120 143 194 194 174 170 210 193 224 277 282 225 252 293 312 250 239 246 205 188
69 83 63 64 113 148 165 147 151 149 100 146 163 184 268 289 325 413 417 472 465 516 472 497 450 364 340 295 254 296 344 307 270 290 227 178 185 162 168 180 195 259 287 290 247 234 229 299 274 314 264 302 225 191
138 91 146 124 141 151 168 137 140 89 151 149 96 125 116 152 258 330 421 463 432 421 533 512 494 436 339 262 307 422 346 289 299 272 226 213 203 212 238 213 248 262 308 290 273 268 267 238 267 299 245 269 238 240
101 122 163 148 120 142 147 192 189 176 178 139 111 108 75 17 59 225 240 356 340 382 462 574 583 477 375 269 199 205 211 203 246 258 249 267 234 190 188 205 233 230 247 246 308 293 287 229 223 220 217 279 276 265
107 150 151 144 132 148 194 185 183 162 195 184 173 194 201 149 200 172 199 275 280 265 465 509 476 394 345 283 259 259 272 274 226 242 269 239 221 198 182 157 147 209 230 162 158 229 230 226 191 223 279 291 272 277
112 153 208 156 136 136 171 214 204 173 200 300 258 292 246 296 283 185 174 206 261 339 314 398 417 458 432 367 292 281 275 264 252 260 238 193 240 248 167 150 179 187 231 222 199 191 209 268 232 225 260 252 250 243
134 122 174 156 178 157 169 171 117 82 52 66 99 181 236 263 237 157 192 133 182 204 230 258 284 216 251 305 263 231 258 243 233 237 147 214 254 297 216 151 135 133 201 197 181 188 209 207 210 221 224 181 161 238
231 196 167 214 146 204 244 266 253 212 110 139 151 178 184 185 125 132 145 143 127 143 226 229 235 236 171 191 210 237 227 187 173 170 144 128 202 230 224 199 163 146 147 155 144 156 169 187 172 170 175 189 199 219
152 114 115 132 143 228 217 273 226 155 133 175 186 182 139 108 97 93 56 50 40 77 76 90 102 114 148 164 142 167 169 167 164 140 85 71 127 150 172 172 173 133 161 137 126 123 123 133 142 161 193 198 208 210
124 44 34 79 282 270 233 185 185 176 205 234 188 177 201 219 139 86 63 64 101 125 89 55 81 138 100 91 68 88 178 169 144 76 14 43 75 112 171 153 128 148 135 120 83 83 105 124 141 162 173 188 200 225
127 46 48 136 173 167 185 170 120 198 238 200 176 152 111 102 75 79 105 111 117 132 106 72 38 196 153 157 123 152 181 159 123 88 89 51 90 126 109 114 130 131 124 129 126 114 117 147 174 208 231 235 225 230
259 207 162 157 207 213 209 242 274 269 237 182 181 147 98 110 92 82 132 168 155 140 155 52 47 145 213 190 219 45 -15 158 159 88 124 165 135 120 118 127 165 168 157 146 147 144 172 199 198 202 201 196 173 183
206 168 241 268 233 264 263 186 202 206 208 205 180 190 187 188 94 37 119 168 196 190 149 97 55 120 273 231 184 211 227 184 199 140 102 205 194 163 178 176 171 190 172 160 156 180 192 183 176 169 164 171 160 157
200 246 236 207 186 184 233 261 197 169 202 239 234 253 246 201 70 102 179 221 207 196 255 216 131 138 107 168 186 237 209 261 233 170 103 162 245 194 144 133 205 200 178 180 179 180 158 155 150 158 166 165 153 149

GFSWCAN_con_3kmhel_111.txt.gz
Helicity
70 57 60 53 47 57 55 43 25 14 15 30 36 35 43 40 52 23 41 38 46 30 52 61 68 105 132 134 104 103 61 72 92 102 97 92 105 104 107 122 179 206 179 276 248 309 169 260 304 284 227 185 144 122
61 61 59 63 73 69 74 55 46 33 23 18 40 42 42 39 36 29 34 48 66 70 72 110 83 58 67 72 129 194 167 155 132 92 87 101 115 141 112 142 143 162 167 218 257 215 190 235 230 200 189 101 107 83
88 82 87 78 75 56 75 52 56 33 36 23 31 46 43 49 47 42 43 51 39 47 58 53 19 62 36 63 117 159 148 171 205 221 197 152 147 116 153 145 95 172 119 284 198 135 79 139 179 121 92 102 55 70
123 120 110 93 95 58 82 61 66 50 30 29 25 40 48 58 54 48 54 66 57 55 59 36 60 55 124 139 112 115 132 198 182 164 201 233 206 130 174 136 109 204 207 214 200 151 73 68 54 42 70 127 114 83
138 112 99 111 123 86 81 77 85 97 34 25 38 65 59 58 60 68 84 96 89 87 54 50 74 138 124 125 123 162 110 92 111 181 255 238 195 193 164 135 215 254 224 234 285 100 100 60 104 133 141 112 84 80
137 122 142 137 124 133 123 97 65 106 84 59 52 67 90 77 76 54 46 83 69 62 51 18 71 146 140 117 112 101 163 172 225 205 193 210 303 253 222 246 151 145 129 107 165 102 122 90 118 122 99 76 94 117
157 147 136 129 121 130 150 127 120 96 132 106 91 80 109 102 110 77 118 121 69 97 92 34 36 74 57 87 104 170 191 216 230 250 268 299 251 263 350 375 280 85 104 108 103 85 61 124 103 122 110 98 92 74
103 109 121 107 93 90 110 108 124 133 122 147 141 103 141 127 120 107 144 186 163 165 160 183 182 105 109 130 178 198 217 218 245 279 346 335 278 304 316 480 175 114 72 100 144 136 100 93 110 111 97 79 65 64
89 85 81 86 93 80 76 95 110 104 90 115 94 168 202 186 139 124 129 126 206 220 255 345 299 129 161 179 191 167 183 190 234 311 319 245 292 336 333 139 74 58 112 105 111 98 96 88 77 87 80 77 71 64
86 79 73 72 71 71 88 92 97 105 100 101 150 123 145 168 161 112 93 118 151 269 507 562 436 325 296 227 164 109 103 153 193 169 188 248 254 327 361 321 212 148 89 171 186 131 114 100 100 88 96 94 82 85
62 66 67 69 75 77 74 89 120 131 143 121 128 183 194 100 119 88 101 175 146 229 121 35 74 162 168 196 138 102 180 155 229 182 167 223 168 205 63 48 40 60 166 214 133 124 124 106 114 101 101 106 102 100
64 65 69 71 77 80 85 88 113 107 140 139 137 133 132 115 127 181 261 244 244 119 118 80 80 84 139 178 155 113 168 136 196 206 236 259 72 64 48 39 78 47 81 150 72 82 96 104 95 91 92 97 104 117
75 79 79 74 78 83 87 97 96 119 142 133 126 160 154 135 228 351 478 482 265 92 48 60 86 41 74 88 95 67 118 217 295 243 254 131 127 31 35 40 73 73 84 74 85 123 126 101 106 98 95 97 96 112
66 70 72 75 77 82 79 82 111 122 178 206 203 241 193 234 282 270 284 261 254 221 137 125 169 186 224 218 269 345 330 327 364 260 127 193 16 36 8 48 20 52 82 92 106 117 108 104 97 95 96 106 116 120
66 60 62 74 82 82 79 69 52 82 165 258 294 326 282 297 356 324 307 241 157 111 108 113 109 117 139 163 178 194 171 178 116 126 62 -4 17 55 48 45 22 61 93 90 98 90 75 83 90 89 97 109 110 126
51 57 100 78 72 65 59 42 88 122 146 262 366 442 425 387 332 314 310 269 197 150 229 230 195 185 205 246 225 135 192 133 151 77 -12 13 51 98 108 41 84 105 101 104 113 106 93 95 101 94 131 121 119 114
55 159 94 45 15 23 44 147 152 209 257 413 447 415 307 301 244 233 198 195 223 303 251 185 94 27 79 78 129 158 324 219 136 109 86 69 32 41 31 83 86 131 111 131 160 146 138 152 191 181 143 124 139 119
153 135 82 54 47 91 147 170 211 278 418 387 400 356 346 266 205 229 232 254 268 286 280 248 162 147 180 240 224 145 112 105 79 182 126 79 49 42 76 94 106 136 174 194 200 204 226 235 219 196 185 212 237 212
130 139 103 49 73 170 184 210 250 364 313 309 275 250 258 249 222 167 164 219 242 274 251 233 165 245 252 251 254 221 200 166 158 89 72 68 79 46 47 152 176 147 165 182 255 293 257 228 240 261 280 318 274 255
69 84 86 55 92 193 206 228 252 278 261 226 233 227 206 179 134 111 123 175 241 295 274 287 272 290 325 367 420 362 268 180 159 112 22 37 81 57 85 147 173 186 214 203 199 191 254 290 266 277 335 339 336 261
89 99 79 94 162 220 261 296 269 250 237 216 173 153 162 159 148 176 225 223 274 361 305 296 302 369 389 337 301 301 323 315 258 191 141 103 111 98 73 125 155 170 189 199 247 223 201 280 274 349 375 320 311 283
166 102 153 158 167 163 245 251 289 275 237 208 176 151 130 124 137 164 211 232 310 281 316 270 312 341 351 271 303 339 348 282 239 208 139 157 184 180 108 84 106 171 219 280 235 187 189 229 259 326 309 308 277 341
116 127 207 211 167 174 190 226 242 235 246 232 197 170 131 127 140 161 144 154 201 196 225 190 195 283 332 272 193 227 274 273 259 249 222 225 235 210 189 170 196 200 204 180 237 240 226 168 179 269 326 285 312 315
149 180 168 172 188 211 250 245 263 237 233 200 198 146 175 154 161 147 132 148 191 207 267 217 193 194 191 234 309 344 308 238 218 211 214 213 190 174 202 176 130 143 191 174 189 191 194 188 191 232 291 275 264 270
159 162 209 210 241 242 250 246 234 222 228 217 179 218 192 165 175 189 161 111 158 168 221 241 279 307 317 227 196 217 225 215 223 205 169 175 193 186 144 109 139 159 179 187 178 177 121 142 224 264 269 243 232 219
159 134 197 114 174 222 239 239 271 261 244 199 185 138 135 282 298 249 107 79 106 199 249 260 254 223 209 244 190 171 171 158 131 135 128 149 148 142 105 39 -11 24 180 162 155 101 91 144 212 204 185 162 144 200
223 227 213 212 226 253 216 206 211 221 213 198 193 210 121 18 -46 -37 -52 53 56 167 232 183 143 145 133 113 130 138 125 159 165 132 110 117 112 100 86 76 5 45 162 162 163 131 97 118 157 149 165 176 158 172
207 194 164 182 233 230 140 186 192 165 155 248 252 205 191 166 109 60 -32 -4 17 -6 -13 24 10 32 90 113 121 129 151 175 185 187 139 -17 -128 -30 41 -9 59 111 147 169 157 130 116 103 107 113 119 120 126 157
166 179 175 162 168 184 187 195 195 199 213 235 203 165 187 203 63 125 89 3 -58 -23 6 -36 -42 50 79 100 66 127 159 190 175 -35 -20 -3 -20 10 91 79 69 103 162 157 107 110 87 77 85 99 113 132 159 187
219 193 183 241 222 234 211 232 173 130 199 244 266 210 122 53 32 80 43 4 -2 4 35 46 40 62 33 61 24 31 162 238 271 243 47 59 67 135 99 71 67 103 131 138 170 140 110 142 181 178 171 163 167 174
193 183 214 224 173 164 192 232 260 245 258 285 316 259 -3 25 23 64 82 59 69 29 1 32 47 94 103 37 48 23 11 118 192 208 233 267 316 246 135 103 144 181 208 225 203 185 208 196 144 123 118 135 129 157
246 178 147 126 49 145 218 208 188 173 204 273 277 316 273 205 1 10 86 126 85 56 52 67 84 82 127 106 65 137 -22 -75 -26 136 205 299 323 341 247 189 258 279 239 208 180 224 206 146 120 110 117 132 141 141
238 215 227 174 195 189 198 157 110 101 142 209 213 212 204 203 0 17 83 176 152 104 89 99 123 132 120 118 120 109 54 6 -8 155 167 233 368 401 352 305 333 287 148 180 242 186 150 126 114 125 129 141 143 134

GFSWCAN_con_3kmhel_114.txt.gz
Helicity
62 75 69 65 66 52 37 24 24 42 58 49 37 26 20 28 26 22 32 30 37 42 36 45 41 71 87 83 61 67 50 63 104 122 120 114 135 136 151 140 162 231 202 271 238 286 137 200 242 225 173 235 218 199
86 65 67 69 65 54 32 14 20 32 37 37 50 43 23 24 33 22 26 34 48 76 78 119 97 49 76 118 81 107 112 108 88 83 80 109 154 181 165 185 161 185 174 232 264 253 183 309 270 201 315 290 261 206
109 104 100 101 102 74 53 24 13 47 51 21 22 46 42 24 31 37 40 42 23 13 49 59 45 27 65 79 118 135 124 150 199 209 172 168 175 162 206 162 163 159 176 257 279 250 156 225 320 233 254 251 196 142
118 108 103 94 86 70 66 59 52 56 64 41 23 22 54 38 36 40 34 69 59 69 73 14 28 81 117 134 128 167 244 233 172 181 140 192 250 145 183 182 137 237 241 282 266 256 159 84 48 30 101 163 219 203
133 133 122 113 101 97 91 94 79 82 79 76 50 39 37 56 42 38 62 79 67 80 74 56 81 139 94 86 113 156 180 195 204 189 195 242 240 247 195 163 315 452 271 260 318 172 181 147 127 197 192 189 198 183
163 153 146 134 117 104 102 94 86 92 82 91 70 86 54 76 73 43 32 55 44 45 55 19 74 141 126 87 78 100 117 144 195 213 225 233 331 283 239 384 387 358 243 126 182 167 140 131 174 171 158 138 151 132
155 142 151 138 129 117 119 124 114 109 92 100 114 88 73 136 133 112 115 102 54 65 65 35 50 102 65 84 104 153 180 203 252 289 260 294 307 264 364 467 518 202 177 197 164 135 108 159 156 131 159 127 151 137
88 92 96 90 86 97 112 123 109 93 105 99 92 82 88 141 209 139 132 179 142 148 137 153 194 190 88 95 115 135 154 178 229 273 330 330 301 293 308 469 203 159 105 34 -18 121 170 224 218 175 133 145 131 116
57 63 58 62 66 78 93 103 114 98 92 81 83 113 128 149 168 176 125 117 187 216 226 300 281 142 194 230 175 122 116 129 171 286 304 254 362 251 315 215 208 187 158 90 118 87 118 153 140 116 109 115 111 107
64 71 77 84 84 80 87 100 101 94 92 81 67 96 94 101 112 89 130 160 196 308 472 508 379 266 271 222 158 101 87 143 204 142 193 255 382 22 226 274 219 214 239 188 258 155 150 126 103 101 102 110 113 111
74 81 78 80 84 79 86 94 102 113 112 98 82 95 111 87 81 83 112 189 216 274 108 38 21 58 116 172 174 111 224 198 291 236 252 267 198 114 76 62 59 63 58 70 202 178 136 133 100 84 85 96 108 106
72 71 75 74 76 75 77 87 90 91 124 114 114 114 98 92 96 136 228 244 284 151 51 44 30 40 62 71 80 93 163 198 273 238 273 299 91 20 27 44 27 63 58 45 130 167 87 77 68 75 78 81 93 106
67 65 67 70 71 70 74 80 83 123 121 121 147 138 105 105 231 304 353 356 122 48 55 88 90 48 105 141 179 207 253 240 302 320 324 143 42 90 69 55 45 19 31 44 82 78 16 29 89 96 72 75 86 99
70 72 68 60 64 69 70 65 88 106 146 171 181 215 179 232 240 158 204 152 137 185 162 106 107 82 62 99 152 198 225 258 329 394 219 100 93 52 -5 -36 -6 43 27 10 -1 -17 -2 38 65 73 73 77 79 82
63 65 71 73 66 69 68 57 60 82 159 247 250 277 267 299 309 272 268 244 214 198 208 192 106 53 40 25 58 111 151 234 198 160 70 42 -9 -58 9 -33 -12 11 38 71 72 48 72 73 81 72 72 87 73 85
57 63 93 70 71 56 45 59 115 130 198 279 350 381 371 323 296 324 294 259 228 228 219 170 128 131 144 224 218 236 392 373 236 182 95 66 21 28 35 13 5 32 -6 52 107 160 153 123 138 140 144 142 144 149
58 158 107 66 41 30 44 171 189 213 225 424 428 389 327 317 246 233 204 175 204 270 223 221 189 122 239 228 365 315 359 330 194 50 -100 64 86 32 -55 35 37 100 69 64 110 147 199 186 196 222 160 180 198 202
134 140 115 71 50 103 160 189 251 324 405 385 386 251 340 287 209 175 220 268 285 253 235 225 187 240 331 378 332 349 285 199 130 149 112 14 -26 69 81 113 121 93 24 60 93 131 178 226 247 214 212 233 248 269
109 140 108 80 137 229 235 239 327 370 308 303 256 208 229 220 222 189 185 165 191 250 272 287 223 272 287 282 235 213 219 222 205 134 108 100 118 100 125 150 115 95 152 167 148 199 220 227 243 232 229 266 289 318
51 74 98 93 131 254 262 250 281 343 310 302 288 222 252 248 201 168 134 155 210 253 232 300 335 320 273 268 285 243 227 199 195 161 163 180 165 175 213 219 168 154 151 179 216 200 219 195 201 237 303 322 341 328
72 95 96 105 207 293 303 305 302 322 314 292 242 207 204 201 167 171 195 207 214 245 258 315 279 237 231 245 241 198 167 214 272 261 156 153 200 198 194 201 191 190 161 148 178 174 98 166 171 255 336 418 393 349
145 93 170 173 262 236 287 280 326 294 299 284 279 243 193 147 149 159 157 160 174 230 269 264 294 291 245 178 167 176 198 133 194 184 195 248 254 234 217 191 178 164 147 162 176 142 130 142 256 309 364 367 356 436
132 195 261 243 229 271 265 269 278 303 330 340 313 267 261 234 238 231 206 202 185 206 236 262 234 184 157 155 166 157 187 217 164 179 232 228 211 183 185 196 209 197 184 169 177 133 80 104 173 248 306 286 309 311
250 281 296 207 277 313 298 307 300 288 261 325 316 313 340 316 294 277 229 169 203 230 215 178 169 158 175 187 247 297 288 191 236 223 220 207 189 178 167 177 179 179 186 136 126 57 33 103 131 192 250 243 215 238
289 187 252 247 313 293 256 259 301 331 342 309 312 311 286 252 236 212 182 207 199 141 148 170 196 238 183 205 222 207 245 250 216 161 130 152 165 166 159 132 137 179 198 151 118 56 55 130 148 194 213 165 160 184
174 198 154 147 280 293 278 334 342 342 344 326 315 304 280 230 163 163 149 99 87 70 126 183 172 140 133 117 107 226 273 160 171 144 119 136 163 176 167 143 89 115 212 175 135 49 38 75 135 123 120 143 117 156
261 247 218 234 280 283 281 266 234 251 241 268 279 248 235 197 168 75 172 79 -11 28 76 -9 -32 -4 116 163 125 163 158 116 111 132 129 134 197 224 231 197 161 191 175 215 215 78 35 52 96 128 134 137 143 140
219 207 249 240 259 242 237 266 251 256 261 272 277 246 233 226 33 76 71 24 -34 2 -67 -87 -74 7 -0 111 34 16 -22 17 31 72 58 35 168 227 246 298 311 158 182 243 207 136 138 117 144 159 180 175 157 107
220 248 260 243 253 231 229 252 263 281 289 335 274 212 247 317 164 63 50 72 53 12 -55 -61 -11 -15 5 50 36 -0 27 80 67 18 12 -5 5 127 250 254 249 251 237 175 143 171 111 89 116 129 118 106 112 123
214 269 312 314 320 311 340 316 265 233 236 263 244 198 201 33 46 123 101 82 112 79 56 43 64 36 -11 -26 -46 -13 43 144 196 145 -15 -43 -16 57 140 224 268 255 251 213 225 167 120 146 159 163 171 172 123 108
353 363 322 280 226 251 268 238 255 222 226 237 245 244 81 17 25 43 46 124 144 155 103 42 19 49 50 30 31 25 26 35 107 119 99 -33 -52 56 173 206 279 307 248 273 238 232 203 178 159 137 103 91 68 87
380 360 359 302 245 243 324 222 199 191 181 205 117 249 256 168 -26 -47 17 92 36 54 73 93 108 90 102 109 101 116 77 54 94 170 119 174 181 150 211 259 305 361 279 306 288 237 183 146 143 95 85 91 90 89
330 294 299 251 197 229 219 239 179 159 206 136 28 164 104 -5 -56 -99 -11 174 170 99 121 146 170 181 178 161 142 141 123 89 34 44 110 146 117 176 272 287 305 307 293 336 268 208 167 168 128 83 97 95 85 96

GFSWCAN_con_3kmhel_117.txt.gz
Helicity
68 69 64 64 72 77 71 49 46 34 23 32 29 32 35 27 30 31 4 11 27 40 37 22 61 67 74 100 74 62 47 52 76 81 87 61 83 67 95 140 155 182 162 213 211 243 80 120 150 176 112 162 166 190
83 78 74 68 58 58 71 68 58 45 21 15 27 32 42 40 33 27 28 15 24 56 60 89 60 24 58 70 86 69 95 102 93 94 85 92 141 136 162 172 199 156 150 189 255 228 214 237 284 189 204 209 213 218
96 97 97 84 82 84 75 57 54 41 32 33 27 26 51 60 59 42 20 13 35 35 39 92 48 66 32 61 87 125 110 153 238 229 179 160 175 163 176 187 194 218 256 331 282 368 269 241 217 235 287 268 224 224
132 128 121 107 95 93 92 77 62 60 54 53 43 46 56 71 78 55 36 29 54 64 58 38 31 20 97 130 112 129 143 197 248 233 205 239 310 182 252 246 292 393 344 389 284 252 220 215 161 171 154 152 200 221
172 159 148 134 121 111 118 100 83 81 75 68 66 61 83 79 79 73 52 40 42 85 62 45 46 103 83 76 107 141 155 181 209 213 249 216 220 254 229 246 430 543 361 396 427 181 187 135 136 135 134 127 127 159
165 166 174 144 156 151 121 113 110 120 124 86 87 91 95 93 113 93 33 37 56 23 63 21 72 111 109 115 103 99 87 129 175 203 209 219 294 307 232 236 372 229 215 165 239 158 178 182 135 162 171 158 165 179
140 155 183 181 163 149 132 138 123 124 127 92 82 95 91 94 156 137 135 118 21 -10 56 50 49 95 65 63 89 126 156 166 210 268 300 278 296 252 329 306 249 116 119 131 113 108 99 141 161 159 173 161 156 151
127 120 124 134 127 112 132 123 106 100 81 67 68 74 84 88 130 125 150 136 105 135 133 140 187 201 125 85 100 113 137 191 208 275 376 335 291 322 344 381 216 112 75 97 96 125 133 153 145 215 238 232 167 125
84 74 80 87 96 92 88 79 68 66 61 64 78 78 95 115 120 116 130 153 178 209 228 284 261 76 162 166 167 128 67 82 156 264 272 218 332 239 295 244 144 142 142 141 141 166 152 116 100 172 183 150 134 117
56 56 62 68 73 70 68 68 69 68 58 66 77 95 107 102 82 87 108 136 168 243 363 312 334 218 182 129 98 83 110 160 215 170 171 214 222 69 188 105 48 67 81 77 101 119 156 162 121 184 130 101 93 87
50 53 60 64 67 73 76 82 84 102 102 109 114 125 115 93 98 109 143 208 157 162 19 -6 38 51 72 69 69 89 139 146 205 201 211 262 77 97 10 109 163 93 33 67 96 120 117 121 79 92 70 59 60 62
68 62 61 64 68 75 76 74 73 97 100 107 113 104 93 101 130 201 309 257 144 10 -12 -6 6 33 46 69 84 83 149 169 172 175 232 170 48 86 195 244 257 165 95 89 79 96 57 74 43 3 23 62 69 68
57 63 66 66 66 72 73 76 80 99 105 119 152 143 129 136 269 339 321 196 76 63 36 55 73 61 71 82 93 128 135 158 239 279 244 114 61 150 181 196 258 127 62 20 41 50 55 73 48 42 55 75 55 64
55 60 61 71 75 74 75 80 96 104 184 183 185 217 179 245 252 132 190 129 97 136 115 143 123 107 94 103 90 118 117 147 257 229 89 146 106 89 124 45 -37 2 -27 33 -8 12 98 120 74 67 82 82 80 83
43 43 51 59 66 68 73 74 70 121 204 252 234 278 267 265 273 227 193 196 178 153 195 191 177 149 118 121 148 200 224 283 233 155 185 121 124 109 104 103 -4 -17 42 41 48 49 56 64 70 117 156 141 134 128
62 60 79 47 60 52 40 74 141 150 240 318 351 394 355 346 285 271 251 204 175 180 201 199 163 134 135 213 230 258 360 346 358 254 156 52 3 -55 -119 -199 -112 -58 64 90 115 124 56 -15 -7 72 102 139 175 198
68 157 86 67 52 57 65 201 221 263 270 430 464 394 379 362 249 235 240 214 181 225 185 170 152 100 220 238 367 450 440 336 214 177 112 39 -18 -52 -38 -7 83 107 130 105 111 68 116 111 74 83 96 116 177 213
140 123 77 71 64 94 144 213 297 349 413 408 382 269 374 309 232 224 187 189 223 229 214 172 155 216 323 392 345 347 269 223 206 135 43 65 79 83 144 160 147 143 160 169 167 162 179 160 163 122 111 139 193 216
107 118 80 57 95 179 212 258 400 460 387 375 308 244 258 257 222 204 222 219 226 244 170 138 129 296 319 312 248 216 180 180 163 138 111 98 107 135 130 125 150 186 181 176 169 183 181 189 171 148 125 170 193 208
43 47 54 57 83 186 246 301 341 463 445 380 331 206 269 237 161 172 158 198 249 235 248 295 268 254 242 215 195 208 206 180 144 82 89 82 105 93 109 108 111 135 156 181 224 199 215 207 183 143 146 167 184 168
72 81 71 80 139 168 184 211 287 341 389 429 315 310 276 281 204 175 174 220 256 321 266 260 238 224 202 211 208 193 189 193 191 171 158 129 144 98 113 89 91 139 163 194 207 188 184 250 172 151 179 165 174 186
119 75 141 129 175 167 179 222 204 354 432 378 324 315 300 271 258 270 289 266 300 271 315 285 289 272 242 210 215 197 209 192 175 169 139 163 179 105 100 108 128 146 194 213 175 186 198 180 184 176 176 159 124 141
95 111 151 167 153 149 136 203 331 448 530 429 403 342 349 369 326 331 292 302 312 286 293 268 244 234 250 234 219 209 214 202 202 200 222 209 161 167 164 159 186 187 186 155 166 176 180 160 169 167 173 158 156 142
108 142 166 169 170 142 188 253 345 377 462 433 331 387 406 323 329 329 299 290 286 247 216 222 273 258 223 225 274 277 270 244 200 180 197 168 175 187 229 207 189 211 234 204 165 168 160 165 154 161 167 157 134 103
131 94 192 209 242 226 287 268 286 311 360 365 362 382 336 294 269 285 305 239 210 194 193 211 213 252 217 161 178 222 166 137 148 135 136 154 160 200 176 148 149 175 195 186 223 168 166 180 150 116 98 94 24 42
118 115 170 220 295 264 198 289 343 359 339 311 272 242 269 273 304 294 258 192 150 158 142 163 165 141 150 151 48 30 4 42 115 124 198 126 138 154 108 59 61 126 231 268 251 244 187 170 172 143 112 49 -1 18
102 115 152 253 225 234 237 243 258 238 223 253 261 268 264 273 243 299 251 229 208 194 177 157 118 124 85 58 4 36 24 49 90 103 134 89 56 100 151 71 94 214 209 285 304 283 257 191 168 154 119 46 24 91
132 115 178 211 215 196 280 308 265 240 250 271 308 326 305 313 307 314 313 243 211 179 199 152 95 71 9 12 1 9 51 77 52 58 77 54 68 89 120 119 127 137 170 187 258 291 280 207 181 159 127 90 89 72
254 158 195 188 293 257 255 280 314 348 369 353 258 214 284 335 260 231 191 147 133 141 112 94 98 78 57 62 60 77 91 92 38 -15 1 -19 -25 22 89 114 111 108 123 174 200 216 190 193 157 117 92 62 63 80
259 355 381 340 317 289 314 324 283 245 251 263 259 213 186 -7 -36 115 99 120 166 134 106 115 77 70 126 107 77 50 77 82 103 97 -26 -37 2 14 61 95 79 69 121 162 199 237 197 216 218 138 122 113 104 98
239 297 308 338 303 266 285 261 293 231 237 251 292 307 -14 -60 -23 41 96 117 147 118 101 129 122 106 99 129 155 116 72 78 99 80 45 26 22 38 80 13 94 136 173 186 221 212 225 202 211 143 108 86 76 87
307 292 286 270 230 235 311 242 246 213 156 174 120 143 36 65 -98 -42 52 127 117 91 103 139 104 130 142 149 112 110 115 136 121 119 73 96 74 28 -6 -12 155 205 218 219 240 213 201 226 180 105 91 80 80 68
403 353 291 218 215 175 262 292 225 180 219 162 10 88 106 104 44 43 167 262 284 281 207 175 164 154 130 75 84 110 105 125 96 64 51 42 46 20 90 166 191 225 240 233 223 207 215 199 137 111 107 102 76 70